Darstellungsparameter: Aktuell verwendete Einstellungen:
Skalierung der Graphiken ... ?
xyx+y,   Skalierungsfaktor:      Skalierung: Modus: x, Faktor: 1
Darstellungszeitraum ... ?
Vom - - bis: - -   Zeitraum: 03.09.2019 - 02.09.2020
Min/Max/Avg-Anzeige ... ?
Zeige MMA aktuell
Zeige MMA Monat
Zeige MMA alles
Zeige --A aktuell
Zeige --A Monat
Zeige --A alles
Keine MMA-Anzeige
MMA:
Keine MMA-Graphiken
MMA-Basis: 03.09.2019 - 02.09.2020
Quicknavigation für Darstellung... ?
Tage:      1T, 2T, 3T, 5T -1T -2T -3T -5T +1T +2T +3T +5T
Wochen: 1W, 2W, 3W -1W -2W -3W +1W +2W +3W
Monate: 1M, 3M, 6M -1M -3M -6M +1M +3M +6M
Jahre:    1J, 3J, 5J, 10J -1J -3J -5J -10J +1J +3J +5J +10J
Nutze für die Darstellung ... ?
Originaldaten oder ...
Mittelwerte Minima Maxima auf...
Stundenbasis Tagesbasis Wochenbasis
Monatsbasis Jahresbasis      Datenbasis: Mittelwerte auf Stundenbasis
Darstellen als:
Statistik (Auto) Statistik J:M      Darstellung:
Zur Graphik,    zurück zur Übersicht aller Sensoren.
 
Tabellarische Datenbersicht: ?
 
Sensor: Nr:Datum:Temp:Abs-Feuchte:Windchill:Wind:
Aussen-T/F 1 03-09-2019 00:00:00 12.39167 C 8.17 g/m*3 12.39 C 0 km/h
2 03-09-2019 01:00:00 12.125 C 8.22 g/m*3 12.13 C 0 km/h
3 03-09-2019 02:00:00 10.89167 C 7.86 g/m*3 10.89 C 0 km/h
4 03-09-2019 03:00:00 10.175 C 7.75 g/m*3 10.18 C 0 km/h
5 03-09-2019 04:00:00 10.08333 C 7.92 g/m*3 10.08 C 0 km/h
6 03-09-2019 05:00:00 9.45 C 7.72 g/m*3 9.45 C 0 km/h
7 03-09-2019 06:00:00 8.91667 C 7.64 g/m*3 8.92 C 0 km/h
8 03-09-2019 07:00:00 8.65833 C 7.66 g/m*3 8.66 C 0.13333 km/h
9 03-09-2019 08:00:00 9.08333 C 7.95 g/m*3 9.08 C 0 km/h
10 03-09-2019 09:00:00 10.375 C 8.56 g/m*3 10.38 C 0.26667 km/h
11 03-09-2019 10:00:00 13.225 C 9.38 g/m*3 13.23 C 1.46667 km/h
12 03-09-2019 11:00:00 17.34167 C 9.34 g/m*3 17.34 C 5.90833 km/h
13 03-09-2019 12:00:00 19.95833 C 9.22 g/m*3 19.96 C 8.18333 km/h
14 03-09-2019 13:00:00 21.25 C 9.23 g/m*3 21.25 C 11.55833 km/h
15 03-09-2019 14:00:00 22.64167 C 9.16 g/m*3 22.64 C 10.35 km/h
16 03-09-2019 15:00:00 23.75 C 9.83 g/m*3 23.75 C 10.20833 km/h
17 03-09-2019 16:00:00 23.58333 C 10.59 g/m*3 23.58 C 10.75 km/h
18 03-09-2019 17:00:00 23.65 C 10.86 g/m*3 23.65 C 11.7 km/h
19 03-09-2019 18:00:00 23.225 C 10.95 g/m*3 23.23 C 10.63333 km/h
20 03-09-2019 19:00:00 21.11667 C 10.84 g/m*3 21.12 C 7.91667 km/h
21 03-09-2019 20:00:00 18.86667 C 10.66 g/m*3 18.87 C 2.40833 km/h
22 03-09-2019 21:00:00 16.325 C 10.42 g/m*3 16.33 C 0 km/h
23 03-09-2019 22:00:00 15.33333 C 10.37 g/m*3 15.33 C 0.13333 km/h
24 03-09-2019 23:00:00 14.05 C 10.08 g/m*3 14.05 C 0 km/h
25 04-09-2019 00:00:00 13.05 C 9.9 g/m*3 13.05 C 0 km/h
Sensor: Nr:Datum:Temp:Abs-Feuchte:Windchill:Wind:
Aussen-T/F 26 04-09-2019 01:00:00 12.35 C 9.74 g/m*3 12.35 C 0 km/h
27 04-09-2019 02:00:00 11.85833 C 9.58 g/m*3 11.86 C 0 km/h
28 04-09-2019 03:00:00 11.325 C 9.39 g/m*3 11.33 C 0 km/h
29 04-09-2019 04:00:00 10.74167 C 9.12 g/m*3 10.74 C 0 km/h
30 04-09-2019 05:00:00 10.36667 C 9 g/m*3 10.37 C 0 km/h
31 04-09-2019 06:00:00 10.15833 C 8.95 g/m*3 10.16 C 0 km/h
32 04-09-2019 07:00:00 10.09167 C 8.96 g/m*3 10.09 C 0 km/h
33 04-09-2019 08:00:00 10.675 C 9.35 g/m*3 10.68 C 0.4 km/h
34 04-09-2019 09:00:00 13.11667 C 10.54 g/m*3 13.12 C 4.26667 km/h
35 04-09-2019 10:00:00 14.875 C 10.87 g/m*3 14.88 C 3.73333 km/h
36 04-09-2019 11:00:00 18.09167 C 11.22 g/m*3 18.09 C 11.68333 km/h
37 04-09-2019 12:00:00 19.78333 C 11.25 g/m*3 19.78 C 12.1 km/h
38 04-09-2019 13:00:00 21.16667 C 11.47 g/m*3 21.17 C 12.63333 km/h
39 04-09-2019 14:00:00 22.59167 C 11.56 g/m*3 22.59 C 14.63333 km/h
40 04-09-2019 15:00:00 23.85 C 11.54 g/m*3 23.85 C 11.01667 km/h
41 04-09-2019 16:00:00 25.11667 C 11.74 g/m*3 25.12 C 11.825 km/h
42 04-09-2019 17:00:00 26.875 C 11.46 g/m*3 26.88 C 10.35 km/h
43 04-09-2019 18:00:00 25.04167 C 10.84 g/m*3 25.04 C 14.49167 km/h
44 04-09-2019 19:00:00 23.58333 C 11.1 g/m*3 23.58 C 9.65833 km/h
45 04-09-2019 20:00:00 19.81667 C 11.87 g/m*3 19.82 C 9.50833 km/h
46 04-09-2019 21:00:00 17.625 C 12.77 g/m*3 17.63 C 0.53333 km/h
47 04-09-2019 22:00:00 16.28333 C 12.52 g/m*3 16.28 C 0.53333 km/h
48 04-09-2019 23:00:00 15.64167 C 12.12 g/m*3 15.64 C 0.4 km/h
49 05-09-2019 00:00:00 15.6 C 12.1 g/m*3 15.6 C 0 km/h
50 05-09-2019 01:00:00 15.41667 C 11.73 g/m*3 15.42 C 1.33333 km/h
Sensor: Nr:Datum:Temp:Abs-Feuchte:Windchill:Wind:
Aussen-T/F 51 05-09-2019 02:00:00 14.29167 C 10.66 g/m*3 14.29 C 1.06667 km/h
52 05-09-2019 03:00:00 13.975 C 10.44 g/m*3 13.98 C 1.6 km/h
53 05-09-2019 04:00:00 14.075 C 10.3 g/m*3 14.08 C 3.06667 km/h
54 05-09-2019 05:00:00 13.48333 C 9.83 g/m*3 13.48 C 3.875 km/h
55 05-09-2019 06:00:00 12.56667 C 9.49 g/m*3 12.57 C 4.13333 km/h
56 05-09-2019 07:00:00 12.20833 C 9.38 g/m*3 12.21 C 5.49167 km/h
57 05-09-2019 08:00:00 12.58333 C 9.44 g/m*3 12.58 C 8.75833 km/h
58 05-09-2019 09:00:00 13.59167 C 9.67 g/m*3 13.59 C 7.65833 km/h
59 05-09-2019 10:00:00 15.475 C 10.21 g/m*3 15.48 C 9.95 km/h
60 05-09-2019 11:00:00 16.775 C 10.05 g/m*3 16.77 C 14.24167 km/h
61 05-09-2019 12:00:00 17.09167 C 9.8 g/m*3 17.09 C 10.48333 km/h
62 05-09-2019 13:00:00 18.1 C 9.41 g/m*3 18.1 C 10.225 km/h
63 05-09-2019 14:00:00 18.09167 C 9.72 g/m*3 18.09 C 13.03333 km/h
64 05-09-2019 15:00:00 18.5 C 9.11 g/m*3 18.5 C 11.15833 km/h
65 05-09-2019 16:00:00 18.91667 C 9.07 g/m*3 18.92 C 13.16667 km/h
66 05-09-2019 17:00:00 17.225 C 9.36 g/m*3 17.23 C 15.43333 km/h
67 05-09-2019 18:00:00 16.4 C 9.44 g/m*3 16.4 C 8.59167 km/h
68 05-09-2019 19:00:00 16.46667 C 9.02 g/m*3 16.47 C 6.325 km/h
69 05-09-2019 20:00:00 15.70833 C 9.25 g/m*3 15.71 C 6.71667 km/h
70 05-09-2019 21:00:00 14.93333 C 8.97 g/m*3 14.93 C 5.35833 km/h
71 05-09-2019 22:00:00 14.49167 C 9.01 g/m*3 14.49 C 2.53333 km/h
72 05-09-2019 23:00:00 13.94167 C 8.89 g/m*3 13.94 C 1.875 km/h
73 06-09-2019 00:00:00 12.025 C 8.52 g/m*3 12.03 C 0.4 km/h
74 06-09-2019 01:00:00 11.23333 C 8.41 g/m*3 11.23 C 1.73333 km/h
75 06-09-2019 02:00:00 10.40833 C 8.34 g/m*3 10.41 C 0 km/h
Sensor: Nr:Datum:Temp:Abs-Feuchte:Windchill:Wind:
Aussen-T/F 76 06-09-2019 03:00:00 9.875 C 8.21 g/m*3 9.88 C 0.13333 km/h
77 06-09-2019 04:00:00 9.00833 C 7.89 g/m*3 9.01 C 0 km/h
78 06-09-2019 05:00:00 8.075 C 7.6 g/m*3 8.07 C 0 km/h
79 06-09-2019 06:00:00 7.56667 C 7.46 g/m*3 7.57 C 0 km/h
80 06-09-2019 07:00:00 7.31667 C 7.41 g/m*3 7.32 C 0 km/h
81 06-09-2019 08:00:00 7.85 C 7.77 g/m*3 7.85 C 0 km/h
82 06-09-2019 09:00:00 8.75 C 8.25 g/m*3 8.75 C 0 km/h
83 06-09-2019 10:00:00 10.175 C 9.03 g/m*3 10.18 C 0.13333 km/h
84 06-09-2019 11:00:00 12.55833 C 9.18 g/m*3 12.56 C 1.73333 km/h
85 06-09-2019 12:00:00 15.03333 C 8.28 g/m*3 15.03 C 4.00833 km/h
86 06-09-2019 13:00:00 16.51667 C 8.14 g/m*3 16.52 C 4.4 km/h
87 06-09-2019 14:00:00 18.3 C 7.75 g/m*3 18.3 C 8.325 km/h
88 06-09-2019 15:00:00 19.475 C 7.53 g/m*3 19.48 C 9.26667 km/h
89 06-09-2019 16:00:00 20.7 C 7.17 g/m*3 20.7 C 7.24167 km/h
90 06-09-2019 17:00:00 22.36667 C 7.38 g/m*3 22.37 C 7.79167 km/h
91 06-09-2019 18:00:00 22.25 C 7.74 g/m*3 22.25 C 6.975 km/h
92 06-09-2019 19:00:00 19.41667 C 8.07 g/m*3 19.42 C 0.8 km/h
93 06-09-2019 20:00:00 16.04167 C 7.71 g/m*3 16.04 C 0 km/h
94 06-09-2019 21:00:00 14.65 C 7.6 g/m*3 14.65 C 0 km/h
95 06-09-2019 22:00:00 12.74167 C 7.65 g/m*3 12.74 C 0.26667 km/h
96 06-09-2019 23:00:00 12.69167 C 7.95 g/m*3 12.69 C 2 km/h
97 07-09-2019 00:00:00 12.25833 C 7.99 g/m*3 12.26 C 0.93333 km/h
98 07-09-2019 01:00:00 12.41667 C 8.06 g/m*3 12.42 C 1.73333 km/h
99 07-09-2019 02:00:00 12.19167 C 8.09 g/m*3 12.19 C 1.73333 km/h
100 07-09-2019 03:00:00 12.375 C 8.15 g/m*3 12.38 C 3.33333 km/h
Sensor: Nr:Datum:Temp:Abs-Feuchte:Windchill:Wind:
Aussen-T/F 101 07-09-2019 04:00:00 12.69167 C 8.26 g/m*3 12.69 C 3.89167 km/h
102 07-09-2019 05:00:00 12.64167 C 8.27 g/m*3 12.64 C 1.075 km/h
103 07-09-2019 06:00:00 12.29167 C 8.35 g/m*3 12.29 C 0 km/h
104 07-09-2019 07:00:00 11.96667 C 9.01 g/m*3 11.97 C 0.13333 km/h
105 07-09-2019 08:00:00 11.78333 C 9.52 g/m*3 11.78 C 0.13333 km/h
106 07-09-2019 09:00:00 11.80833 C 9.78 g/m*3 11.81 C 0 km/h
107 07-09-2019 10:00:00 12.225 C 10.16 g/m*3 12.23 C 0 km/h
108 07-09-2019 11:00:00 12.80833 C 10.52 g/m*3 12.81 C 0.4 km/h
109 07-09-2019 12:00:00 13.475 C 10.93 g/m*3 13.48 C 1.06667 km/h
110 07-09-2019 13:00:00 14.19167 C 11.31 g/m*3 14.19 C 1.06667 km/h
111 07-09-2019 14:00:00 14.46667 C 11.38 g/m*3 14.47 C 1.73333 km/h
112 07-09-2019 15:00:00 14.93333 C 11.53 g/m*3 14.93 C 3.73333 km/h
113 07-09-2019 16:00:00 15.25 C 11.63 g/m*3 15.25 C 0.93333 km/h
114 07-09-2019 17:00:00 15.30833 C 11.66 g/m*3 15.31 C 3.21667 km/h
115 07-09-2019 18:00:00 14.29167 C 11.14 g/m*3 14.29 C 0.93333 km/h
116 07-09-2019 19:00:00 13.34167 C 10.59 g/m*3 13.34 C 0.66667 km/h
117 07-09-2019 20:00:00 12.64167 C 10.32 g/m*3 12.64 C 0.13333 km/h
118 07-09-2019 21:00:00 12.00833 C 9.95 g/m*3 12.01 C 0 km/h
119 07-09-2019 22:00:00 11.8 C 9.94 g/m*3 11.8 C 0 km/h
120 07-09-2019 23:00:00 11.725 C 9.95 g/m*3 11.73 C 0 km/h
121 08-09-2019 00:00:00 11.7 C 9.94 g/m*3 11.7 C 0 km/h
122 08-09-2019 01:00:00 11.75833 C 10.04 g/m*3 11.76 C 0 km/h
123 08-09-2019 02:00:00 11.29167 C 9.74 g/m*3 11.29 C 0 km/h
124 08-09-2019 03:00:00 11.3 C 9.79 g/m*3 11.3 C 0 km/h
125 08-09-2019 04:00:00 11.7 C 10.08 g/m*3 11.7 C 0 km/h
Sensor: Nr:Datum:Temp:Abs-Feuchte:Windchill:Wind:
Aussen-T/F 126 08-09-2019 05:00:00 11.90833 C 10.17 g/m*3 11.91 C 0 km/h
127 08-09-2019 06:00:00 12.075 C 10.36 g/m*3 12.08 C 0.13333 km/h
128 08-09-2019 07:00:00 12.20833 C 10.41 g/m*3 12.21 C 0.4 km/h
129 08-09-2019 08:00:00 12.31667 C 10.43 g/m*3 12.32 C 1.46667 km/h
130 08-09-2019 09:00:00 12.325 C 10.38 g/m*3 12.33 C 4.13333 km/h
131 08-09-2019 10:00:00 12.575 C 10.57 g/m*3 12.58 C 0 km/h
132 08-09-2019 11:00:00 12.625 C 10.64 g/m*3 12.63 C 0.4 km/h
133 08-09-2019 12:00:00 12.81667 C 10.75 g/m*3 12.82 C 2.53333 km/h
134 08-09-2019 13:00:00 13.94167 C 11.24 g/m*3 13.94 C 1.6 km/h
135 08-09-2019 14:00:00 14.875 C 11.24 g/m*3 14.88 C 3.6 km/h
136 08-09-2019 15:00:00 15.73333 C 11.27 g/m*3 15.73 C 1.6 km/h
137 08-09-2019 16:00:00 15.65833 C 11.32 g/m*3 15.66 C 1.46667 km/h
138 08-09-2019 17:00:00 13.49167 C 10.83 g/m*3 13.49 C 2.53333 km/h
139 08-09-2019 18:00:00 12.8 C 10.56 g/m*3 12.8 C 0.8 km/h
140 08-09-2019 19:00:00 12.96667 C 10.8 g/m*3 12.97 C 0 km/h
141 08-09-2019 20:00:00 12.56667 C 10.5 g/m*3 12.57 C 3.35 km/h
142 08-09-2019 21:00:00 12.1 C 10.23 g/m*3 12.1 C 0.53333 km/h
143 08-09-2019 22:00:00 11.81667 C 10.11 g/m*3 11.82 C 0 km/h
144 08-09-2019 23:00:00 11.71667 C 10.05 g/m*3 11.72 C 0 km/h
145 09-09-2019 00:00:00 11.45 C 9.88 g/m*3 11.45 C 0 km/h
146 09-09-2019 01:00:00 11.26667 C 9.78 g/m*3 11.27 C 0.26667 km/h
147 09-09-2019 02:00:00 11.29167 C 9.87 g/m*3 11.29 C 0 km/h
148 09-09-2019 03:00:00 11.36667 C 9.94 g/m*3 11.37 C 0 km/h
149 09-09-2019 04:00:00 11.36667 C 9.94 g/m*3 11.37 C 0 km/h
150 09-09-2019 05:00:00 11.29167 C 9.89 g/m*3 11.29 C 0 km/h
Sensor: Nr:Datum:Temp:Abs-Feuchte:Windchill:Wind:
Aussen-T/F 151 09-09-2019 06:00:00 11.3 C 9.89 g/m*3 11.3 C 0 km/h
152 09-09-2019 07:00:00 11.275 C 9.88 g/m*3 11.28 C 0 km/h
153 09-09-2019 08:00:00 11.39167 C 9.95 g/m*3 11.39 C 0 km/h
154 09-09-2019 09:00:00 12.01667 C 10.35 g/m*3 12.02 C 0.26667 km/h
155 09-09-2019 10:00:00 12.23333 C 10.49 g/m*3 12.23 C 0.13333 km/h
156 09-09-2019 11:00:00 12.55833 C 10.62 g/m*3 12.56 C 2.66667 km/h
157 09-09-2019 12:00:00 13.15 C 10.48 g/m*3 13.15 C 1.73333 km/h
158 09-09-2019 13:00:00 14.2 C 10.57 g/m*3 14.2 C 2.4 km/h
159 09-09-2019 14:00:00 14.81667 C 10.11 g/m*3 14.82 C 1.73333 km/h
160 09-09-2019 15:00:00 15.175 C 10.39 g/m*3 15.18 C 0.8 km/h
161 09-09-2019 16:00:00 15.475 C 10.21 g/m*3 15.48 C 1.06667 km/h
162 09-09-2019 17:00:00 15.74167 C 9.89 g/m*3 15.74 C 1.33333 km/h
163 09-09-2019 18:00:00 16.33333 C 10.25 g/m*3 16.33 C 1.46667 km/h
164 09-09-2019 19:00:00 14.35 C 10.11 g/m*3 14.35 C 0.53333 km/h
165 09-09-2019 20:00:00 12.00833 C 9.36 g/m*3 12.01 C 0.4 km/h
166 09-09-2019 21:00:00 10.79167 C 8.96 g/m*3 10.79 C 0.13333 km/h
167 09-09-2019 22:00:00 10.05 C 8.74 g/m*3 10.05 C 0 km/h
168 09-09-2019 23:00:00 9.30833 C 8.44 g/m*3 9.31 C 0 km/h
169 10-09-2019 00:00:00 8.75833 C 8.22 g/m*3 8.76 C 0 km/h
170 10-09-2019 01:00:00 8.44167 C 8.09 g/m*3 8.44 C 0 km/h
171 10-09-2019 02:00:00 8.3 C 8.07 g/m*3 8.3 C 0 km/h
172 10-09-2019 03:00:00 8.625 C 8.26 g/m*3 8.63 C 0.53333 km/h
173 10-09-2019 04:00:00 8.65 C 8.28 g/m*3 8.65 C 0.66667 km/h
174 10-09-2019 05:00:00 8.55833 C 8.24 g/m*3 8.56 C 0.26667 km/h
175 10-09-2019 06:00:00 8.2 C 8.1 g/m*3 8.2 C 0.8 km/h
Sensor: Nr:Datum:Temp:Abs-Feuchte:Windchill:Wind:
Aussen-T/F 176 10-09-2019 07:00:00 8.225 C 8.14 g/m*3 8.23 C 0.13333 km/h
177 10-09-2019 08:00:00 8.21667 C 8.13 g/m*3 8.22 C 2.26667 km/h
178 10-09-2019 09:00:00 8.45833 C 8.26 g/m*3 8.46 C 2.13333 km/h
179 10-09-2019 10:00:00 9.05 C 8.58 g/m*3 9.05 C 1.33333 km/h
180 10-09-2019 11:00:00 9.94167 C 9.08 g/m*3 9.94 C 2.26667 km/h
181 10-09-2019 12:00:00 11.78333 C 9.92 g/m*3 11.78 C 0.4 km/h
182 10-09-2019 13:00:00 14.85833 C 9.92 g/m*3 14.86 C 1.6 km/h
183 10-09-2019 14:00:00 17.25 C 9.44 g/m*3 17.25 C 3.60833 km/h
184 10-09-2019 15:00:00 18.43333 C 9.19 g/m*3 18.43 C 5.36667 km/h
185 10-09-2019 16:00:00 19.65 C 8.8 g/m*3 19.65 C 8.20833 km/h
186 10-09-2019 17:00:00 18.38333 C 10.55 g/m*3 18.38 C 0.8 km/h
187 10-09-2019 18:00:00 18.33333 C 10.97 g/m*3 18.33 C 0 km/h
188 10-09-2019 19:00:00 16.4 C 10.1 g/m*3 16.4 C 0.13333 km/h
189 10-09-2019 20:00:00 13.775 C 8.93 g/m*3 13.78 C 0 km/h
190 10-09-2019 21:00:00 12.03333 C 8.86 g/m*3 12.03 C 0 km/h
191 10-09-2019 22:00:00 10.66667 C 8.52 g/m*3 10.67 C 0 km/h
192 10-09-2019 23:00:00 9.78333 C 8.23 g/m*3 9.78 C 0 km/h
193 11-09-2019 00:00:00 9.2 C 8.04 g/m*3 9.2 C 0 km/h
194 11-09-2019 01:00:00 8.61667 C 7.86 g/m*3 8.62 C 0 km/h
195 11-09-2019 02:00:00 8.04167 C 7.69 g/m*3 8.04 C 0.13333 km/h
196 11-09-2019 03:00:00 7.64167 C 7.55 g/m*3 7.64 C 0 km/h
197 11-09-2019 04:00:00 7.26667 C 7.41 g/m*3 7.27 C 0 km/h
198 11-09-2019 05:00:00 6.90833 C 7.3 g/m*3 6.91 C 0 km/h
199 11-09-2019 06:00:00 6.65833 C 7.2 g/m*3 6.66 C 0 km/h
200 11-09-2019 07:00:00 6.55 C 7.2 g/m*3 6.55 C 0.675 km/h
Sensor: Nr:Datum:Temp:Abs-Feuchte:Windchill:Wind:
Aussen-T/F 201 11-09-2019 08:00:00 7.99167 C 7.97 g/m*3 7.99 C 1.60833 km/h
202 11-09-2019 09:00:00 9.51667 C 8.59 g/m*3 9.52 C 2.8 km/h
203 11-09-2019 10:00:00 10.85 C 9.29 g/m*3 10.85 C 0 km/h
204 11-09-2019 11:00:00 13.10833 C 10.13 g/m*3 13.11 C 1.6 km/h
205 11-09-2019 12:00:00 17.29167 C 9.85 g/m*3 17.29 C 9.41667 km/h
206 11-09-2019 13:00:00 19.9 C 9.95 g/m*3 19.9 C 12.75833 km/h
207 11-09-2019 14:00:00 20.58333 C 9.88 g/m*3 20.58 C 16.5 km/h
208 11-09-2019 15:00:00 20.53333 C 10.07 g/m*3 20.53 C 10.225 km/h
209 11-09-2019 16:00:00 20.03333 C 11.17 g/m*3 20.03 C 4.825 km/h
210 11-09-2019 17:00:00 19.16667 C 10.86 g/m*3 19.17 C 8.45833 km/h
211 11-09-2019 18:00:00 18.35833 C 10.7 g/m*3 18.36 C 3.75833 km/h
212 11-09-2019 19:00:00 17.26667 C 10.41 g/m*3 17.27 C 3.20833 km/h
213 11-09-2019 20:00:00 16.50833 C 10.64 g/m*3 16.51 C 0.93333 km/h
214 11-09-2019 21:00:00 16.275 C 10.82 g/m*3 16.27 C 0.93333 km/h
215 11-09-2019 22:00:00 16.41667 C 11.06 g/m*3 16.42 C 0.93333 km/h
216 11-09-2019 23:00:00 15.7 C 11.15 g/m*3 15.7 C 0.93333 km/h
217 12-09-2019 00:00:00 15.51667 C 10.97 g/m*3 15.52 C 1.86667 km/h
218 12-09-2019 01:00:00 16.14167 C 11.09 g/m*3 16.14 C 1.74167 km/h
219 12-09-2019 02:00:00 17.23333 C 10.81 g/m*3 17.23 C 6.975 km/h
220 12-09-2019 03:00:00 17.24167 C 11 g/m*3 17.24 C 6.70833 km/h
221 12-09-2019 04:00:00 17.05 C 11.08 g/m*3 17.05 C 2.93333 km/h
222 12-09-2019 05:00:00 16.975 C 11.25 g/m*3 16.98 C 8.31667 km/h
223 12-09-2019 06:00:00 16.9 C 11.4 g/m*3 16.9 C 5.75833 km/h
224 12-09-2019 07:00:00 16.24167 C 11.53 g/m*3 16.24 C 0.8 km/h
225 12-09-2019 08:00:00 16.83333 C 12.06 g/m*3 16.83 C 5.76667 km/h
Sensor: Nr:Datum:Temp:Abs-Feuchte:Windchill:Wind:
Aussen-T/F 226 12-09-2019 09:00:00 17.40833 C 12.53 g/m*3 17.41 C 9.025 km/h
227 12-09-2019 10:00:00 18.21667 C 13.08 g/m*3 18.22 C 11.15833 km/h
228 12-09-2019 11:00:00 19.21667 C 13.52 g/m*3 19.22 C 9.01667 km/h
229 12-09-2019 12:00:00 20.25833 C 13.93 g/m*3 20.26 C 10.34167 km/h
230 12-09-2019 13:00:00 20.9 C 14.27 g/m*3 20.9 C 7.79167 km/h
231 12-09-2019 14:00:00 21.38333 C 14.69 g/m*3 21.38 C 1.6 km/h
232 12-09-2019 15:00:00 22.25833 C 14.77 g/m*3 22.26 C 4.025 km/h
233 12-09-2019 16:00:00 22.95 C 14.67 g/m*3 22.95 C 7.91667 km/h
234 12-09-2019 17:00:00 24.44167 C 14.46 g/m*3 24.44 C 11.83333 km/h
235 12-09-2019 18:00:00 24.95833 C 14.66 g/m*3 24.96 C 6.56667 km/h
236 12-09-2019 19:00:00 22.86667 C 14.23 g/m*3 22.87 C 0.53333 km/h
237 12-09-2019 20:00:00 19.11667 C 13.29 g/m*3 19.12 C 0.4 km/h
238 12-09-2019 21:00:00 18.225 C 13.19 g/m*3 18.23 C 0.26667 km/h
239 12-09-2019 22:00:00 18.35 C 13.17 g/m*3 18.35 C 0.4 km/h
240 12-09-2019 23:00:00 17.06667 C 12.6 g/m*3 17.07 C 0 km/h
241 13-09-2019 00:00:00 15.98333 C 12.26 g/m*3 15.98 C 0.93333 km/h
242 13-09-2019 01:00:00 15.55 C 12.18 g/m*3 15.55 C 3.6 km/h
243 13-09-2019 02:00:00 15.25 C 12.05 g/m*3 15.25 C 1.46667 km/h
244 13-09-2019 03:00:00 15.1 C 12.07 g/m*3 15.1 C 1.06667 km/h
245 13-09-2019 04:00:00 15.575 C 12.4 g/m*3 15.58 C 2.93333 km/h
246 13-09-2019 05:00:00 16.19167 C 12.55 g/m*3 16.19 C 6.84167 km/h
247 13-09-2019 06:00:00 16.25833 C 12.58 g/m*3 16.26 C 4.3 km/h
248 13-09-2019 07:00:00 16.64167 C 12.75 g/m*3 16.64 C 2.94167 km/h
249 13-09-2019 08:00:00 16.85833 C 13.01 g/m*3 16.86 C 0.8 km/h
250 13-09-2019 09:00:00 17.49167 C 13.31 g/m*3 17.49 C 2 km/h
Sensor: Nr:Datum:Temp:Abs-Feuchte:Windchill:Wind:
Aussen-T/F 251 13-09-2019 10:00:00 18.51667 C 13.63 g/m*3 18.52 C 0.8 km/h
252 13-09-2019 11:00:00 19.6 C 13.91 g/m*3 19.6 C 2.8 km/h
253 13-09-2019 12:00:00 20.35 C 14.02 g/m*3 20.35 C 1.2 km/h
254 13-09-2019 13:00:00 20.60833 C 13.82 g/m*3 20.61 C 4.675 km/h
255 13-09-2019 14:00:00 21.16667 C 14.03 g/m*3 21.17 C 6.15833 km/h
256 13-09-2019 15:00:00 20.85833 C 14.13 g/m*3 20.86 C 12.76667 km/h
257 13-09-2019 16:00:00 19.325 C 14.49 g/m*3 19.33 C 5.90833 km/h
258 13-09-2019 17:00:00 19.20833 C 14.74 g/m*3 19.21 C 0 km/h
259 13-09-2019 18:00:00 20 C 15.42 g/m*3 20 C 0 km/h
260 13-09-2019 19:00:00 19.48333 C 14.46 g/m*3 19.48 C 0 km/h
261 13-09-2019 20:00:00 17.60833 C 13.73 g/m*3 17.61 C 0.26667 km/h
262 13-09-2019 21:00:00 16.95 C 13.39 g/m*3 16.95 C 0 km/h
263 13-09-2019 22:00:00 16.25833 C 12.87 g/m*3 16.26 C 0 km/h
264 13-09-2019 23:00:00 15.48333 C 12.38 g/m*3 15.48 C 0 km/h
265 14-09-2019 00:00:00 15.39167 C 12.41 g/m*3 15.39 C 0 km/h
266 14-09-2019 01:00:00 14.63333 C 11.86 g/m*3 14.63 C 0 km/h
267 14-09-2019 02:00:00 13.525 C 11.07 g/m*3 13.53 C 0 km/h
268 14-09-2019 03:00:00 12.70833 C 10.58 g/m*3 12.71 C 0 km/h
269 14-09-2019 04:00:00 12.00833 C 10.18 g/m*3 12.01 C 0 km/h
270 14-09-2019 05:00:00 11.31667 C 9.79 g/m*3 11.32 C 0 km/h
271 14-09-2019 06:00:00 10.78333 C 9.48 g/m*3 10.78 C 0 km/h
272 14-09-2019 07:00:00 10.4 C 9.25 g/m*3 10.4 C 0 km/h
273 14-09-2019 08:00:00 10.40833 C 9.26 g/m*3 10.41 C 0 km/h
274 14-09-2019 09:00:00 11.00833 C 9.71 g/m*3 11.01 C 0.13333 km/h
275 14-09-2019 10:00:00 12.25833 C 10.51 g/m*3 12.26 C 0.26667 km/h
Sensor: Nr:Datum:Temp:Abs-Feuchte:Windchill:Wind:
Aussen-T/F 276 14-09-2019 11:00:00 13.69167 C 11.26 g/m*3 13.69 C 0.26667 km/h
277 14-09-2019 12:00:00 16.14167 C 11.54 g/m*3 16.14 C 0.8 km/h
278 14-09-2019 13:00:00 18.675 C 11.2 g/m*3 18.68 C 3.74167 km/h
279 14-09-2019 14:00:00 20.43333 C 11.02 g/m*3 20.43 C 4.95 km/h
280 14-09-2019 15:00:00 21.74167 C 10.66 g/m*3 21.74 C 5.35833 km/h
281 14-09-2019 16:00:00 22.44167 C 10.43 g/m*3 22.44 C 4.3 km/h
282 14-09-2019 17:00:00 24.14167 C 10.29 g/m*3 24.14 C 4.81667 km/h
283 14-09-2019 18:00:00 23.6 C 11.63 g/m*3 23.6 C 0 km/h
284 14-09-2019 19:00:00 19.45833 C 10.87 g/m*3 19.46 C 0.13333 km/h
285 14-09-2019 20:00:00 16.95833 C 10.12 g/m*3 16.96 C 0 km/h
286 14-09-2019 21:00:00 15.96667 C 10.01 g/m*3 15.97 C 0 km/h
287 14-09-2019 22:00:00 13.8 C 9.68 g/m*3 13.8 C 0 km/h
288 14-09-2019 23:00:00 12.48333 C 9.38 g/m*3 12.48 C 0 km/h
289 15-09-2019 00:00:00 11.65 C 9.12 g/m*3 11.65 C 0 km/h
290 15-09-2019 01:00:00 10.825 C 8.89 g/m*3 10.83 C 0 km/h
291 15-09-2019 02:00:00 10.375 C 8.83 g/m*3 10.38 C 0 km/h
292 15-09-2019 03:00:00 10.16667 C 8.79 g/m*3 10.17 C 0.13333 km/h
293 15-09-2019 04:00:00 9.75833 C 8.61 g/m*3 9.76 C 0.13333 km/h
294 15-09-2019 05:00:00 9.31667 C 8.46 g/m*3 9.32 C 0 km/h
295 15-09-2019 06:00:00 8.76667 C 8.17 g/m*3 8.77 C 0 km/h
296 15-09-2019 07:00:00 8.775 C 8.26 g/m*3 8.78 C 0.53333 km/h
297 15-09-2019 08:00:00 9.29167 C 8.62 g/m*3 9.29 C 0.53333 km/h
298 15-09-2019 09:00:00 10.03333 C 9.04 g/m*3 10.03 C 0 km/h
299 15-09-2019 10:00:00 11.35833 C 9.83 g/m*3 11.36 C 0 km/h
300 15-09-2019 11:00:00 13.71667 C 11.23 g/m*3 13.72 C 0 km/h
Sensor: Nr:Datum:Temp:Abs-Feuchte:Windchill:Wind:
Aussen-T/F 301 15-09-2019 12:00:00 16.96667 C 12.32 g/m*3 16.97 C 0 km/h
302 15-09-2019 13:00:00 20.45833 C 12.4 g/m*3 20.46 C 0 km/h
303 15-09-2019 14:00:00 22.79167 C 12.41 g/m*3 22.79 C 0.53333 km/h
304 15-09-2019 15:00:00 24.05 C 12.35 g/m*3 24.05 C 0.53333 km/h
305 15-09-2019 16:00:00 24.65833 C 11.93 g/m*3 24.66 C 2.66667 km/h
306 15-09-2019 17:00:00 25.84167 C 11.52 g/m*3 25.84 C 1.6 km/h
307 15-09-2019 18:00:00 26.43333 C 11.47 g/m*3 26.43 C 0.4 km/h
308 15-09-2019 19:00:00 21.96667 C 11.11 g/m*3 21.97 C 0 km/h
309 15-09-2019 20:00:00 18.225 C 9.86 g/m*3 18.23 C 0 km/h
310 15-09-2019 21:00:00 16.76667 C 9.56 g/m*3 16.77 C 0 km/h
311 15-09-2019 22:00:00 14.475 C 9.48 g/m*3 14.48 C 0 km/h
312 15-09-2019 23:00:00 12.99167 C 9.21 g/m*3 12.99 C 0 km/h
313 16-09-2019 00:00:00 12.55 C 9.24 g/m*3 12.55 C 0 km/h
314 16-09-2019 01:00:00 12.25833 C 9.26 g/m*3 12.26 C 0.53333 km/h
315 16-09-2019 02:00:00 11.41667 C 9.02 g/m*3 11.42 C 0.26667 km/h
316 16-09-2019 03:00:00 11.11667 C 9.09 g/m*3 11.12 C 0.4 km/h
317 16-09-2019 04:00:00 11.45833 C 9.31 g/m*3 11.46 C 0.66667 km/h
318 16-09-2019 05:00:00 11.51667 C 9.27 g/m*3 11.52 C 0.4 km/h
319 16-09-2019 06:00:00 11.23333 C 9.22 g/m*3 11.23 C 0 km/h
320 16-09-2019 07:00:00 11.31667 C 9.35 g/m*3 11.32 C 0.13333 km/h
321 16-09-2019 08:00:00 12.075 C 9.65 g/m*3 12.08 C 1.2 km/h
322 16-09-2019 09:00:00 13.4 C 10.02 g/m*3 13.4 C 1.06667 km/h
323 16-09-2019 10:00:00 14.99167 C 10.52 g/m*3 14.99 C 0.93333 km/h
324 16-09-2019 11:00:00 17.41667 C 11.29 g/m*3 17.42 C 1.33333 km/h
325 16-09-2019 12:00:00 19.64167 C 11.69 g/m*3 19.64 C 4.40833 km/h
Sensor: Nr:Datum:Temp:Abs-Feuchte:Windchill:Wind:
Aussen-T/F 326 16-09-2019 13:00:00 21.18333 C 11.4 g/m*3 21.18 C 5.9 km/h
327 16-09-2019 14:00:00 22.05 C 11.19 g/m*3 22.05 C 4.26667 km/h
328 16-09-2019 15:00:00 22.075 C 11.53 g/m*3 22.08 C 4.275 km/h
329 16-09-2019 16:00:00 22.10833 C 10.87 g/m*3 22.11 C 7.65 km/h
330 16-09-2019 17:00:00 21.8 C 11.67 g/m*3 21.8 C 7.525 km/h
331 16-09-2019 18:00:00 20.725 C 11.4 g/m*3 20.73 C 4.95 km/h
332 16-09-2019 19:00:00 19.71667 C 11.57 g/m*3 19.72 C 8.46667 km/h
333 16-09-2019 20:00:00 17.64167 C 12.45 g/m*3 17.64 C 2.275 km/h
334 16-09-2019 21:00:00 16.74167 C 12.53 g/m*3 16.74 C 1.46667 km/h
335 16-09-2019 22:00:00 16.43333 C 12.39 g/m*3 16.43 C 4.825 km/h
336 16-09-2019 23:00:00 15.4 C 12.03 g/m*3 15.4 C 4.14167 km/h
337 17-09-2019 00:00:00 15.05833 C 11.74 g/m*3 15.06 C 1.73333 km/h
338 17-09-2019 01:00:00 14.81667 C 11.42 g/m*3 14.82 C 4 km/h
339 17-09-2019 02:00:00 14.66667 C 11.26 g/m*3 14.67 C 3.475 km/h
340 17-09-2019 03:00:00 14.54167 C 11.1 g/m*3 14.54 C 1.46667 km/h
341 17-09-2019 04:00:00 14.30833 C 11.03 g/m*3 14.31 C 0.4 km/h
342 17-09-2019 05:00:00 14.16667 C 11 g/m*3 14.17 C 0.53333 km/h
343 17-09-2019 06:00:00 14.1 C 10.95 g/m*3 14.1 C 3.74167 km/h
344 17-09-2019 07:00:00 14.01667 C 10.81 g/m*3 14.02 C 1.86667 km/h
345 17-09-2019 08:00:00 14 C 10.57 g/m*3 14 C 4.00833 km/h
346 17-09-2019 09:00:00 14.04167 C 10.08 g/m*3 14.04 C 8.33333 km/h
347 17-09-2019 10:00:00 14.925 C 9.51 g/m*3 14.93 C 11.29167 km/h
348 17-09-2019 11:00:00 15.73333 C 9.52 g/m*3 15.73 C 11.56667 km/h
349 17-09-2019 12:00:00 16.125 C 9.35 g/m*3 16.13 C 13.83333 km/h
350 17-09-2019 13:00:00 16.625 C 9.11 g/m*3 16.63 C 13.43333 km/h
Sensor: Nr:Datum:Temp:Abs-Feuchte:Windchill:Wind:
Aussen-T/F 351 17-09-2019 14:00:00 17.44167 C 9.01 g/m*3 17.44 C 13.43333 km/h
352 17-09-2019 15:00:00 17.66667 C 8.72 g/m*3 17.67 C 12.1 km/h
353 17-09-2019 16:00:00 18.05833 C 8.61 g/m*3 18.06 C 12.76667 km/h
354 17-09-2019 17:00:00 18.125 C 8.63 g/m*3 18.13 C 11.41667 km/h
355 17-09-2019 18:00:00 18.45 C 8.52 g/m*3 18.45 C 13.43333 km/h
356 17-09-2019 19:00:00 17.3 C 8.79 g/m*3 17.3 C 5.775 km/h
357 17-09-2019 20:00:00 16.71667 C 8.94 g/m*3 16.72 C 6.03333 km/h
358 17-09-2019 21:00:00 16.00833 C 8.74 g/m*3 16.01 C 12.36667 km/h
359 17-09-2019 22:00:00 14.55833 C 7.86 g/m*3 14.56 C 11.7 km/h
360 17-09-2019 23:00:00 13.40833 C 7.65 g/m*3 13.41 C 6.45 km/h
361 18-09-2019 00:00:00 11.80833 C 7.43 g/m*3 11.81 C 3.86667 km/h
362 18-09-2019 01:00:00 10.83333 C 7.47 g/m*3 10.83 C 2.8 km/h
363 18-09-2019 02:00:00 9.26667 C 7.32 g/m*3 9.27 C 0 km/h
364 18-09-2019 03:00:00 8.25 C 7.19 g/m*3 8.25 C 0 km/h
365 18-09-2019 04:00:00 7.425 C 7.05 g/m*3 7.43 C 0 km/h
366 18-09-2019 05:00:00 6.76667 C 6.89 g/m*3 6.77 C 0 km/h
367 18-09-2019 06:00:00 6.08333 C 6.7 g/m*3 6.08 C 0 km/h
368 18-09-2019 07:00:00 5.8 C 6.67 g/m*3 5.8 C 0 km/h
369 18-09-2019 08:00:00 6.10833 C 6.87 g/m*3 6.11 C 0 km/h
370 18-09-2019 09:00:00 7.01667 C 7.37 g/m*3 7.02 C 0 km/h
371 18-09-2019 10:00:00 8.375 C 8.05 g/m*3 8.38 C 0 km/h
372 18-09-2019 11:00:00 10.625 C 8.65 g/m*3 10.63 C 1.33333 km/h
373 18-09-2019 12:00:00 13.6 C 8.4 g/m*3 13.6 C 5.61667 km/h
374 18-09-2019 13:00:00 15.1 C 7.76 g/m*3 15.1 C 9 km/h
375 18-09-2019 14:00:00 16.25 C 7.43 g/m*3 16.25 C 9.54167 km/h
Sensor: Nr:Datum:Temp:Abs-Feuchte:Windchill:Wind:
Aussen-T/F 376 18-09-2019 15:00:00 17.00833 C 7.27 g/m*3 17.01 C 8.86667 km/h
377 18-09-2019 16:00:00 17.225 C 7.48 g/m*3 17.23 C 9.95 km/h
378 18-09-2019 17:00:00 18.14167 C 7.1 g/m*3 18.14 C 11.56667 km/h
379 18-09-2019 18:00:00 18.08333 C 6.92 g/m*3 18.08 C 8.58333 km/h
380 18-09-2019 19:00:00 15.75 C 7.28 g/m*3 15.75 C 1.06667 km/h
381 18-09-2019 20:00:00 12.30833 C 7.28 g/m*3 12.31 C 0 km/h
382 18-09-2019 21:00:00 11.525 C 7.45 g/m*3 11.53 C 0 km/h
383 18-09-2019 22:00:00 10.68333 C 7.43 g/m*3 10.68 C 0 km/h
384 18-09-2019 23:00:00 9.85833 C 7.44 g/m*3 9.86 C 0 km/h
385 19-09-2019 00:00:00 9.16667 C 7.4 g/m*3 9.17 C 0 km/h
386 19-09-2019 01:00:00 8.5 C 7.23 g/m*3 8.5 C 0 km/h
387 19-09-2019 02:00:00 7.20833 C 6.97 g/m*3 7.21 C 0 km/h
388 19-09-2019 03:00:00 6.58333 C 6.86 g/m*3 6.58 C 0 km/h
389 19-09-2019 04:00:00 6.08333 C 6.73 g/m*3 6.08 C 0 km/h
390 19-09-2019 05:00:00 5.65833 C 6.6 g/m*3 5.66 C 0 km/h
391 19-09-2019 06:00:00 5.26667 C 6.48 g/m*3 5.27 C 0 km/h
392 19-09-2019 07:00:00 5.14167 C 6.45 g/m*3 5.14 C 0 km/h
393 19-09-2019 08:00:00 5.33333 C 6.59 g/m*3 5.33 C 0 km/h
394 19-09-2019 09:00:00 6.31667 C 7.08 g/m*3 6.32 C 0 km/h
395 19-09-2019 10:00:00 7.725 C 7.8 g/m*3 7.73 C 0 km/h
396 19-09-2019 11:00:00 9.70833 C 8.42 g/m*3 9.71 C 0.4 km/h
397 19-09-2019 12:00:00 13.33333 C 7.53 g/m*3 13.33 C 10.35833 km/h
398 19-09-2019 13:00:00 14.46667 C 7.05 g/m*3 14.47 C 6.3 km/h
399 19-09-2019 14:00:00 15.7 C 6.76 g/m*3 15.7 C 7.38333 km/h
400 19-09-2019 15:00:00 16.48333 C 6.7 g/m*3 16.48 C 9.54167 km/h
Sensor: Nr:Datum:Temp:Abs-Feuchte:Windchill:Wind:
Aussen-T/F 401 19-09-2019 16:00:00 17.08333 C 6.67 g/m*3 17.08 C 9.28333 km/h
402 19-09-2019 17:00:00 18.04167 C 6.51 g/m*3 18.04 C 8.59167 km/h
403 19-09-2019 18:00:00 18.01667 C 6.64 g/m*3 18.02 C 4.96667 km/h
404 19-09-2019 19:00:00 15.00833 C 7.05 g/m*3 15.01 C 0 km/h
405 19-09-2019 20:00:00 11.975 C 6.78 g/m*3 11.98 C 0 km/h
406 19-09-2019 21:00:00 10.525 C 6.78 g/m*3 10.53 C 0 km/h
407 19-09-2019 22:00:00 9.59167 C 6.78 g/m*3 9.59 C 0 km/h
408 19-09-2019 23:00:00 8.45 C 6.65 g/m*3 8.45 C 0 km/h
409 20-09-2019 00:00:00 7.625 C 6.46 g/m*3 7.63 C 0 km/h
410 20-09-2019 01:00:00 7.05 C 6.42 g/m*3 7.05 C 0 km/h
411 20-09-2019 02:00:00 6.21667 C 6.27 g/m*3 6.22 C 0 km/h
412 20-09-2019 03:00:00 5.75 C 6.19 g/m*3 5.75 C 0 km/h
413 20-09-2019 04:00:00 5.15 C 6.09 g/m*3 5.15 C 0 km/h
414 20-09-2019 05:00:00 4.69167 C 6.03 g/m*3 4.69 C 0 km/h
415 20-09-2019 06:00:00 4.325 C 5.97 g/m*3 4.33 C 0 km/h
416 20-09-2019 07:00:00 4.125 C 5.96 g/m*3 4.13 C 0 km/h
417 20-09-2019 08:00:00 4.65 C 6.24 g/m*3 4.65 C 0 km/h
418 20-09-2019 09:00:00 5.625 C 6.69 g/m*3 5.63 C 0 km/h
419 20-09-2019 10:00:00 7.39167 C 7.47 g/m*3 7.39 C 0 km/h
420 20-09-2019 11:00:00 10 C 8.1 g/m*3 10 C 0 km/h
421 20-09-2019 12:00:00 13.41667 C 7.68 g/m*3 13.42 C 4.95833 km/h
422 20-09-2019 13:00:00 15.83333 C 7.25 g/m*3 15.83 C 5.21667 km/h
423 20-09-2019 14:00:00 17.63333 C 7.14 g/m*3 17.63 C 7.11667 km/h
424 20-09-2019 15:00:00 18.525 C 6.89 g/m*3 18.52 C 7.925 km/h
425 20-09-2019 16:00:00 19.26667 C 7.01 g/m*3 19.27 C 9.28333 km/h
Sensor: Nr:Datum:Temp:Abs-Feuchte:Windchill:Wind:
Aussen-T/F 426 20-09-2019 17:00:00 20.33333 C 7.02 g/m*3 20.33 C 8.59167 km/h
427 20-09-2019 18:00:00 20.525 C 7.17 g/m*3 20.53 C 4.55 km/h
428 20-09-2019 19:00:00 15.85 C 7.09 g/m*3 15.85 C 0.8 km/h
429 20-09-2019 20:00:00 13.7 C 6.96 g/m*3 13.7 C 1.33333 km/h
430 20-09-2019 21:00:00 11.68333 C 7.14 g/m*3 11.68 C 0 km/h
431 20-09-2019 22:00:00 9.525 C 6.97 g/m*3 9.53 C 0 km/h
432 20-09-2019 23:00:00 8.425 C 6.87 g/m*3 8.43 C 0 km/h
433 21-09-2019 00:00:00 7.44167 C 6.69 g/m*3 7.44 C 0 km/h
434 21-09-2019 01:00:00 6.85 C 6.55 g/m*3 6.85 C 0 km/h
435 21-09-2019 02:00:00 6.34167 C 6.4 g/m*3 6.34 C 0 km/h
436 21-09-2019 03:00:00 5.80833 C 6.27 g/m*3 5.81 C 0 km/h
437 21-09-2019 04:00:00 5.45833 C 6.24 g/m*3 5.46 C 0 km/h
438 21-09-2019 05:00:00 5.275 C 6.25 g/m*3 5.28 C 0 km/h
439 21-09-2019 06:00:00 4.80833 C 6.1 g/m*3 4.81 C 0 km/h
440 21-09-2019 07:00:00 4.60833 C 6.09 g/m*3 4.61 C 0 km/h
441 21-09-2019 08:00:00 4.725 C 6.21 g/m*3 4.72 C 0 km/h
442 21-09-2019 09:00:00 5.79167 C 6.72 g/m*3 5.79 C 0 km/h
443 21-09-2019 10:00:00 8.225 C 7.58 g/m*3 8.23 C 0 km/h
444 21-09-2019 11:00:00 11.40833 C 8.4 g/m*3 11.41 C 0 km/h
445 21-09-2019 12:00:00 14.95 C 8.6 g/m*3 14.95 C 0.66667 km/h
446 21-09-2019 13:00:00 18.2 C 7.78 g/m*3 18.2 C 4 km/h
447 21-09-2019 14:00:00 21.43333 C 6.23 g/m*3 21.43 C 7.24167 km/h
448 21-09-2019 15:00:00 22.63333 C 6.11 g/m*3 22.63 C 7.925 km/h
449 21-09-2019 16:00:00 23.23333 C 6.53 g/m*3 23.23 C 7.375 km/h
450 21-09-2019 17:00:00 24.65833 C 7.13 g/m*3 24.66 C 5.09167 km/h
Sensor: Nr:Datum:Temp:Abs-Feuchte:Windchill:Wind:
Aussen-T/F 451 21-09-2019 18:00:00 22.74167 C 7.97 g/m*3 22.74 C 0.66667 km/h
452 21-09-2019 19:00:00 18.49167 C 7.54 g/m*3 18.49 C 1.6 km/h
453 21-09-2019 20:00:00 16.16667 C 7.62 g/m*3 16.17 C 0.66667 km/h
454 21-09-2019 21:00:00 13.66667 C 7.8 g/m*3 13.67 C 0 km/h
455 21-09-2019 22:00:00 11.99167 C 7.62 g/m*3 11.99 C 0 km/h
456 21-09-2019 23:00:00 10.88333 C 7.52 g/m*3 10.88 C 0 km/h
457 22-09-2019 00:00:00 9.825 C 7.43 g/m*3 9.82 C 0 km/h
458 22-09-2019 01:00:00 9.08333 C 7.39 g/m*3 9.08 C 0 km/h
459 22-09-2019 02:00:00 8.425 C 7.24 g/m*3 8.43 C 0 km/h
460 22-09-2019 03:00:00 7.96667 C 7.23 g/m*3 7.97 C 0 km/h
461 22-09-2019 04:00:00 7.39167 C 7.07 g/m*3 7.39 C 0 km/h
462 22-09-2019 05:00:00 7.06667 C 7.06 g/m*3 7.07 C 0 km/h
463 22-09-2019 06:00:00 6.99167 C 7.12 g/m*3 6.99 C 0 km/h
464 22-09-2019 07:00:00 6.93333 C 7.14 g/m*3 6.93 C 0 km/h
465 22-09-2019 08:00:00 7.55833 C 7.47 g/m*3 7.56 C 0 km/h
466 22-09-2019 09:00:00 8.63333 C 8.02 g/m*3 8.63 C 0 km/h
467 22-09-2019 10:00:00 11.05 C 9.19 g/m*3 11.05 C 0 km/h
468 22-09-2019 11:00:00 14.83333 C 10.13 g/m*3 14.83 C 0 km/h
469 22-09-2019 12:00:00 17.68333 C 10.99 g/m*3 17.68 C 0 km/h
470 22-09-2019 13:00:00 20.70833 C 11.63 g/m*3 20.71 C 0.26667 km/h
471 22-09-2019 14:00:00 24.05 C 11.64 g/m*3 24.05 C 2.93333 km/h
472 22-09-2019 15:00:00 24.85 C 11.36 g/m*3 24.85 C 3.86667 km/h
473 22-09-2019 16:00:00 24.73333 C 12.25 g/m*3 24.73 C 0.8 km/h
474 22-09-2019 17:00:00 23.48333 C 12.59 g/m*3 23.48 C 0 km/h
475 22-09-2019 18:00:00 21.74167 C 12.24 g/m*3 21.74 C 0 km/h
Sensor: Nr:Datum:Temp:Abs-Feuchte:Windchill:Wind:
Aussen-T/F 476 22-09-2019 19:00:00 20.33333 C 11.45 g/m*3 20.33 C 0 km/h
477 22-09-2019 20:00:00 19.075 C 10.9 g/m*3 19.08 C 2 km/h
478 22-09-2019 21:00:00 18.175 C 10.66 g/m*3 18.18 C 1.46667 km/h
479 22-09-2019 22:00:00 18.3 C 10.92 g/m*3 18.3 C 0.13333 km/h
480 22-09-2019 23:00:00 17.80833 C 11.4 g/m*3 17.81 C 0 km/h
481 23-09-2019 00:00:00 17.55833 C 12.04 g/m*3 17.56 C 2.80833 km/h
482 23-09-2019 01:00:00 18.375 C 12.81 g/m*3 18.38 C 3.33333 km/h
483 23-09-2019 02:00:00 18.10833 C 12.21 g/m*3 18.11 C 9.26667 km/h
484 23-09-2019 03:00:00 17.2 C 12.06 g/m*3 17.2 C 4.95 km/h
485 23-09-2019 04:00:00 16.05833 C 11.82 g/m*3 16.06 C 0.93333 km/h
486 23-09-2019 05:00:00 15.14167 C 11.8 g/m*3 15.14 C 1.86667 km/h
487 23-09-2019 06:00:00 14.43333 C 11.53 g/m*3 14.43 C 0.26667 km/h
488 23-09-2019 07:00:00 14.23333 C 11.52 g/m*3 14.23 C 0 km/h
489 23-09-2019 08:00:00 14.25 C 11.64 g/m*3 14.25 C 0 km/h
490 23-09-2019 09:00:00 14.74167 C 12.1 g/m*3 14.74 C 0 km/h
491 23-09-2019 10:00:00 15.425 C 12.63 g/m*3 15.43 C 0.4 km/h
492 23-09-2019 11:00:00 16.26667 C 13.08 g/m*3 16.27 C 2.8 km/h
493 23-09-2019 12:00:00 17.06667 C 13.18 g/m*3 17.07 C 8.06667 km/h
494 23-09-2019 13:00:00 18.2 C 12.67 g/m*3 18.2 C 10.49167 km/h
495 23-09-2019 14:00:00 19.425 C 11.89 g/m*3 19.43 C 13.3 km/h
496 23-09-2019 15:00:00 19.61667 C 11.63 g/m*3 19.62 C 12.36667 km/h
497 23-09-2019 16:00:00 19.94167 C 11.61 g/m*3 19.94 C 14.36667 km/h
498 23-09-2019 17:00:00 20.24167 C 11.57 g/m*3 20.24 C 12.49167 km/h
499 23-09-2019 18:00:00 18.46667 C 11.71 g/m*3 18.47 C 1.2 km/h
500 23-09-2019 19:00:00 16 C 11.16 g/m*3 16 C 0.13333 km/h
Sensor: Nr:Datum:Temp:Abs-Feuchte:Windchill:Wind:
Aussen-T/F 501 23-09-2019 20:00:00 14.34167 C 10.75 g/m*3 14.34 C 0 km/h
502 23-09-2019 21:00:00 13.96667 C 10.85 g/m*3 13.97 C 0 km/h
503 23-09-2019 22:00:00 13.9 C 11.03 g/m*3 13.9 C 0 km/h
504 23-09-2019 23:00:00 14.11667 C 11.21 g/m*3 14.12 C 0 km/h
505 24-09-2019 00:00:00 14.33333 C 11.37 g/m*3 14.33 C 0 km/h
506 24-09-2019 01:00:00 13.95 C 11.01 g/m*3 13.95 C 0 km/h
507 24-09-2019 02:00:00 12.66667 C 10.28 g/m*3 12.67 C 0 km/h
508 24-09-2019 03:00:00 11.96667 C 9.98 g/m*3 11.97 C 0 km/h
509 24-09-2019 04:00:00 11.50833 C 9.77 g/m*3 11.51 C 0 km/h
510 24-09-2019 05:00:00 10.675 C 9.31 g/m*3 10.68 C 0 km/h
511 24-09-2019 06:00:00 10.25 C 9.1 g/m*3 10.25 C 0 km/h
512 24-09-2019 07:00:00 9.89167 C 8.94 g/m*3 9.89 C 0 km/h
513 24-09-2019 08:00:00 10.65 C 9.44 g/m*3 10.65 C 0 km/h
514 24-09-2019 09:00:00 11.35833 C 9.93 g/m*3 11.36 C 0.8 km/h
515 24-09-2019 10:00:00 12.49167 C 10.66 g/m*3 12.49 C 0 km/h
516 24-09-2019 11:00:00 14.48333 C 11.78 g/m*3 14.48 C 0.93333 km/h
517 24-09-2019 12:00:00 17.53333 C 12.03 g/m*3 17.53 C 3.88333 km/h
518 24-09-2019 13:00:00 18.59167 C 11.6 g/m*3 18.59 C 6.44167 km/h
519 24-09-2019 14:00:00 19.21667 C 11.33 g/m*3 19.22 C 1.60833 km/h
520 24-09-2019 15:00:00 18.63333 C 11.3 g/m*3 18.63 C 0.66667 km/h
521 24-09-2019 16:00:00 17.70833 C 12.37 g/m*3 17.71 C 0.93333 km/h
522 24-09-2019 17:00:00 16.95 C 12.96 g/m*3 16.95 C 0 km/h
523 24-09-2019 18:00:00 16.125 C 12.64 g/m*3 16.13 C 0 km/h
524 24-09-2019 19:00:00 15.1 C 12.01 g/m*3 15.1 C 0 km/h
525 24-09-2019 20:00:00 14.01667 C 11.37 g/m*3 14.02 C 0 km/h
Sensor: Nr:Datum:Temp:Abs-Feuchte:Windchill:Wind:
Aussen-T/F 526 24-09-2019 21:00:00 13.65 C 11.21 g/m*3 13.65 C 0 km/h
527 24-09-2019 22:00:00 13.64167 C 11.29 g/m*3 13.64 C 0 km/h
528 24-09-2019 23:00:00 13.775 C 11.42 g/m*3 13.78 C 0 km/h
529 25-09-2019 00:00:00 13.99167 C 11.57 g/m*3 13.99 C 0.13333 km/h
530 25-09-2019 01:00:00 14.13333 C 11.72 g/m*3 14.13 C 1.34167 km/h
531 25-09-2019 02:00:00 14.49167 C 11.93 g/m*3 14.49 C 3.35 km/h
532 25-09-2019 03:00:00 14.6 C 12.01 g/m*3 14.6 C 0.4 km/h
533 25-09-2019 04:00:00 14.55833 C 11.98 g/m*3 14.56 C 0.53333 km/h
534 25-09-2019 05:00:00 14.01667 C 11.59 g/m*3 14.02 C 1.33333 km/h
535 25-09-2019 06:00:00 13.64167 C 11.33 g/m*3 13.64 C 0.93333 km/h
536 25-09-2019 07:00:00 13.61667 C 11.33 g/m*3 13.62 C 0.8 km/h
537 25-09-2019 08:00:00 13.75 C 11.51 g/m*3 13.75 C 0 km/h
538 25-09-2019 09:00:00 14.33333 C 11.94 g/m*3 14.33 C 1.33333 km/h
539 25-09-2019 10:00:00 14.90833 C 12.03 g/m*3 14.91 C 8.475 km/h
540 25-09-2019 11:00:00 16.225 C 11.94 g/m*3 16.23 C 13.69167 km/h
541 25-09-2019 12:00:00 16.875 C 11.57 g/m*3 16.88 C 10.35833 km/h
542 25-09-2019 13:00:00 17.38333 C 11.46 g/m*3 17.38 C 11.81667 km/h
543 25-09-2019 14:00:00 17.38333 C 11.57 g/m*3 17.38 C 10.35833 km/h
544 25-09-2019 15:00:00 16.325 C 12.4 g/m*3 16.33 C 4.8 km/h
545 25-09-2019 16:00:00 17.08333 C 12.36 g/m*3 17.08 C 7.38333 km/h
546 25-09-2019 17:00:00 17.53333 C 12.19 g/m*3 17.53 C 7.24167 km/h
547 25-09-2019 18:00:00 16.775 C 11.91 g/m*3 16.77 C 2.54167 km/h
548 25-09-2019 19:00:00 15.625 C 11.72 g/m*3 15.63 C 0.53333 km/h
549 25-09-2019 20:00:00 15.10833 C 11.76 g/m*3 15.11 C 0 km/h
550 25-09-2019 21:00:00 14.71667 C 11.69 g/m*3 14.72 C 0.13333 km/h
Sensor: Nr:Datum:Temp:Abs-Feuchte:Windchill:Wind:
Aussen-T/F 551 25-09-2019 22:00:00 14.7 C 11.8 g/m*3 14.7 C 0 km/h
552 25-09-2019 23:00:00 14.65833 C 11.93 g/m*3 14.66 C 0 km/h
553 26-09-2019 00:00:00 14.55833 C 11.86 g/m*3 14.56 C 0.26667 km/h
554 26-09-2019 01:00:00 14.23333 C 11.65 g/m*3 14.23 C 0 km/h
555 26-09-2019 02:00:00 14.13333 C 11.67 g/m*3 14.13 C 0 km/h
556 26-09-2019 03:00:00 13.60833 C 11.29 g/m*3 13.61 C 0 km/h
557 26-09-2019 04:00:00 13.25833 C 11.08 g/m*3 13.26 C 0 km/h
558 26-09-2019 05:00:00 13.90833 C 11.6 g/m*3 13.91 C 2.01667 km/h
559 26-09-2019 06:00:00 14.125 C 11.78 g/m*3 14.13 C 0.53333 km/h
560 26-09-2019 07:00:00 14.35833 C 11.84 g/m*3 14.36 C 0.13333 km/h
561 26-09-2019 08:00:00 14.74167 C 12.12 g/m*3 14.74 C 0.26667 km/h
562 26-09-2019 09:00:00 15.10833 C 12.35 g/m*3 15.11 C 0.4 km/h
563 26-09-2019 10:00:00 15.86667 C 12.91 g/m*3 15.87 C 0.13333 km/h
564 26-09-2019 11:00:00 16.59167 C 13.37 g/m*3 16.59 C 0.93333 km/h
565 26-09-2019 12:00:00 17.61667 C 13.75 g/m*3 17.62 C 5.225 km/h
566 26-09-2019 13:00:00 17.775 C 13.9 g/m*3 17.77 C 1.06667 km/h
567 26-09-2019 14:00:00 17.51667 C 13.84 g/m*3 17.52 C 0.93333 km/h
568 26-09-2019 15:00:00 18.05833 C 14.13 g/m*3 18.06 C 1.2 km/h
569 26-09-2019 16:00:00 18.83333 C 14.32 g/m*3 18.83 C 4.15 km/h
570 26-09-2019 17:00:00 18.91667 C 14.2 g/m*3 18.92 C 4.675 km/h
571 26-09-2019 18:00:00 18.71667 C 14.24 g/m*3 18.72 C 2.68333 km/h
572 26-09-2019 19:00:00 18.04167 C 13.99 g/m*3 18.04 C 2.01667 km/h
573 26-09-2019 20:00:00 17.39167 C 13.29 g/m*3 17.39 C 6.03333 km/h
574 26-09-2019 21:00:00 17.36667 C 13.16 g/m*3 17.37 C 5.5 km/h
575 26-09-2019 22:00:00 17.725 C 13.08 g/m*3 17.73 C 10.23333 km/h
Sensor: Nr:Datum:Temp:Abs-Feuchte:Windchill:Wind:
Aussen-T/F 576 26-09-2019 23:00:00 17.81667 C 12.99 g/m*3 17.82 C 7.5 km/h
577 27-09-2019 00:00:00 17.98333 C 12.86 g/m*3 17.98 C 6.975 km/h
578 27-09-2019 01:00:00 18.05 C 12.68 g/m*3 18.05 C 10.20833 km/h
579 27-09-2019 02:00:00 17.96667 C 12.58 g/m*3 17.97 C 9.68333 km/h
580 27-09-2019 03:00:00 16.71667 C 12.82 g/m*3 16.72 C 6.18333 km/h
581 27-09-2019 04:00:00 16.29167 C 12.83 g/m*3 16.29 C 2.95 km/h
582 27-09-2019 05:00:00 16.16667 C 12.81 g/m*3 16.17 C 2.13333 km/h
583 27-09-2019 06:00:00 15.78333 C 12.67 g/m*3 15.78 C 2.15 km/h
584 27-09-2019 07:00:00 14.41667 C 11.71 g/m*3 14.42 C 2.28333 km/h
585 27-09-2019 08:00:00 14.1 C 11.62 g/m*3 14.1 C 0.66667 km/h
586 27-09-2019 09:00:00 13.99167 C 11.57 g/m*3 13.99 C 3.75 km/h
587 27-09-2019 10:00:00 14.69167 C 12.02 g/m*3 14.69 C 6.58333 km/h
588 27-09-2019 11:00:00 15.35 C 12.16 g/m*3 15.35 C 6.7 km/h
589 27-09-2019 12:00:00 15.96667 C 12.11 g/m*3 15.97 C 11.29167 km/h
590 27-09-2019 13:00:00 17.29167 C 11.95 g/m*3 17.29 C 12.9 km/h
591 27-09-2019 14:00:00 18.15833 C 11.77 g/m*3 18.16 C 14.9 km/h
592 27-09-2019 15:00:00 18.21667 C 11.79 g/m*3 18.22 C 13.83333 km/h
593 27-09-2019 16:00:00 17.96667 C 11.79 g/m*3 17.97 C 12.1 km/h
594 27-09-2019 17:00:00 18.98333 C 11.78 g/m*3 18.98 C 12.36667 km/h
595 27-09-2019 18:00:00 18.01667 C 11.54 g/m*3 18.02 C 10.75833 km/h
596 27-09-2019 19:00:00 16.05833 C 11.25 g/m*3 16.06 C 3.75833 km/h
597 27-09-2019 20:00:00 15.13333 C 11.37 g/m*3 15.13 C 0.26667 km/h
598 27-09-2019 21:00:00 14.275 C 11.06 g/m*3 14.28 C 0.26667 km/h
599 27-09-2019 22:00:00 13.83333 C 11.04 g/m*3 13.83 C 0 km/h
600 27-09-2019 23:00:00 13.5 C 10.98 g/m*3 13.5 C 0 km/h
Sensor: Nr:Datum:Temp:Abs-Feuchte:Windchill:Wind:
Aussen-T/F 601 28-09-2019 00:00:00 12.875 C 10.64 g/m*3 12.88 C 0.66667 km/h
602 28-09-2019 01:00:00 12.90833 C 10.72 g/m*3 12.91 C 3.21667 km/h
603 28-09-2019 02:00:00 14.21667 C 11.16 g/m*3 14.22 C 9.13333 km/h
604 28-09-2019 03:00:00 14.825 C 11.33 g/m*3 14.83 C 6.45 km/h
605 28-09-2019 04:00:00 14.04167 C 11.17 g/m*3 14.04 C 5.63333 km/h
606 28-09-2019 05:00:00 13.95 C 11.05 g/m*3 13.95 C 6.84167 km/h
607 28-09-2019 06:00:00 14.4 C 11.21 g/m*3 14.4 C 9.4 km/h
608 28-09-2019 07:00:00 14.1 C 11.28 g/m*3 14.1 C 1.875 km/h
609 28-09-2019 08:00:00 13.89167 C 11.18 g/m*3 13.89 C 7.94167 km/h
610 28-09-2019 09:00:00 14.35833 C 11.11 g/m*3 14.36 C 12.225 km/h
611 28-09-2019 10:00:00 15.4 C 11.21 g/m*3 15.4 C 12.75833 km/h
612 28-09-2019 11:00:00 16.30833 C 11.15 g/m*3 16.31 C 17.43333 km/h
613 28-09-2019 12:00:00 16.85 C 11.27 g/m*3 16.85 C 13.16667 km/h
614 28-09-2019 13:00:00 17.21667 C 11.3 g/m*3 17.22 C 17.3 km/h
615 28-09-2019 14:00:00 17.49167 C 11.4 g/m*3 17.49 C 17.3 km/h
616 28-09-2019 15:00:00 17.16667 C 11.3 g/m*3 17.17 C 15.43333 km/h
617 28-09-2019 16:00:00 17.35833 C 11.48 g/m*3 17.36 C 14.23333 km/h
618 28-09-2019 17:00:00 17.71667 C 11.43 g/m*3 17.72 C 15.96667 km/h
619 28-09-2019 18:00:00 17.14167 C 11.18 g/m*3 17.14 C 11.025 km/h
620 28-09-2019 19:00:00 15.7 C 10.78 g/m*3 15.7 C 8.99167 km/h
621 28-09-2019 20:00:00 15.24167 C 10.7 g/m*3 15.24 C 5.89167 km/h
622 28-09-2019 21:00:00 14.975 C 10.58 g/m*3 14.98 C 7.79167 km/h
623 28-09-2019 22:00:00 15.13333 C 10.51 g/m*3 15.13 C 9.53333 km/h
624 28-09-2019 23:00:00 14.15 C 10.33 g/m*3 14.15 C 4.55 km/h
625 29-09-2019 00:00:00 13.875 C 10.33 g/m*3 13.88 C 2.81667 km/h
Sensor: Nr:Datum:Temp:Abs-Feuchte:Windchill:Wind:
Aussen-T/F 626 29-09-2019 01:00:00 13.95 C 10.4 g/m*3 13.95 C 0.66667 km/h
627 29-09-2019 02:00:00 13.65 C 10.49 g/m*3 13.65 C 0 km/h
628 29-09-2019 03:00:00 13.48333 C 10.54 g/m*3 13.48 C 0 km/h
629 29-09-2019 04:00:00 13.525 C 10.66 g/m*3 13.53 C 0 km/h
630 29-09-2019 05:00:00 13.81667 C 10.66 g/m*3 13.82 C 0.26667 km/h
631 29-09-2019 06:00:00 13.94167 C 10.43 g/m*3 13.94 C 0.93333 km/h
632 29-09-2019 07:00:00 14.025 C 10.46 g/m*3 14.03 C 1.33333 km/h
633 29-09-2019 08:00:00 14.95833 C 10.59 g/m*3 14.96 C 5.75833 km/h
634 29-09-2019 09:00:00 16.53333 C 10.83 g/m*3 16.53 C 13.69167 km/h
635 29-09-2019 10:00:00 17.45833 C 10.94 g/m*3 17.46 C 19.175 km/h
636 29-09-2019 11:00:00 17.74167 C 11 g/m*3 17.74 C 17.84167 km/h
637 29-09-2019 12:00:00 18.25833 C 11.19 g/m*3 18.26 C 17.16667 km/h
638 29-09-2019 13:00:00 18.1 C 11.15 g/m*3 18.1 C 13.03333 km/h
639 29-09-2019 14:00:00 18.61667 C 10.9 g/m*3 18.62 C 21.325 km/h
640 29-09-2019 15:00:00 18.21667 C 11.38 g/m*3 18.22 C 17.44167 km/h
641 29-09-2019 16:00:00 17.10833 C 11.91 g/m*3 17.11 C 13.025 km/h
642 29-09-2019 17:00:00 17 C 11.93 g/m*3 17 C 12.35833 km/h
643 29-09-2019 18:00:00 17.5 C 12.36 g/m*3 17.5 C 12.1 km/h
644 29-09-2019 19:00:00 17.70833 C 12.54 g/m*3 17.71 C 15.56667 km/h
645 29-09-2019 20:00:00 17.275 C 12.96 g/m*3 17.27 C 5.9 km/h
646 29-09-2019 21:00:00 16.79167 C 13.17 g/m*3 16.79 C 5.63333 km/h
647 29-09-2019 22:00:00 16.91667 C 13.29 g/m*3 16.92 C 12.08333 km/h
648 29-09-2019 23:00:00 16.61667 C 13 g/m*3 16.62 C 14.49167 km/h
649 30-09-2019 00:00:00 15.65 C 11.66 g/m*3 15.65 C 18.11667 km/h
650 30-09-2019 01:00:00 15.34167 C 11.27 g/m*3 15.34 C 18.225 km/h
Sensor: Nr:Datum:Temp:Abs-Feuchte:Windchill:Wind:
Aussen-T/F 651 30-09-2019 02:00:00 15.15833 C 11.2 g/m*3 15.16 C 17.03333 km/h
652 30-09-2019 03:00:00 15.25833 C 11.31 g/m*3 15.26 C 15.3 km/h
653 30-09-2019 04:00:00 15.04167 C 11.38 g/m*3 15.04 C 11.95 km/h
654 30-09-2019 05:00:00 13.75833 C 10.95 g/m*3 13.76 C 9.925 km/h
655 30-09-2019 06:00:00 13.19167 C 10.65 g/m*3 13.19 C 9.93333 km/h
656 30-09-2019 07:00:00 13.08333 C 10.34 g/m*3 13.08 C 10.08333 km/h
657 30-09-2019 08:00:00 13.29167 C 10.07 g/m*3 13.29 C 12.1 km/h
658 30-09-2019 09:00:00 13.94167 C 10 g/m*3 13.94 C 13.3 km/h
659 30-09-2019 10:00:00 14.45 C 10.08 g/m*3 14.45 C 14.5 km/h
660 30-09-2019 11:00:00 15.13333 C 10.09 g/m*3 15.13 C 15.16667 km/h
661 30-09-2019 12:00:00 15.71667 C 9.81 g/m*3 15.72 C 16.76667 km/h
662 30-09-2019 13:00:00 16.40833 C 9.68 g/m*3 16.41 C 15.56667 km/h
663 30-09-2019 14:00:00 17.10833 C 9.71 g/m*3 17.11 C 14.23333 km/h
664 30-09-2019 15:00:00 17.75833 C 9.83 g/m*3 17.76 C 14.63333 km/h
665 30-09-2019 16:00:00 18.45833 C 9.85 g/m*3 18.46 C 14.36667 km/h
666 30-09-2019 17:00:00 18.45 C 9.54 g/m*3 18.45 C 12.1 km/h
667 30-09-2019 18:00:00 17.69167 C 10.24 g/m*3 17.69 C 3.34167 km/h
668 30-09-2019 19:00:00 14.83333 C 10.22 g/m*3 14.83 C 0.4 km/h
669 30-09-2019 20:00:00 14.20833 C 10.42 g/m*3 14.21 C 3.34167 km/h
670 30-09-2019 21:00:00 14.69167 C 10.71 g/m*3 14.69 C 3.74167 km/h
671 30-09-2019 22:00:00 14.68333 C 10.7 g/m*3 14.68 C 3.6 km/h
672 30-09-2019 23:00:00 14.23333 C 10.44 g/m*3 14.23 C 1.06667 km/h
673 01-10-2019 00:00:00 14.33333 C 10.41 g/m*3 14.33 C 0.4 km/h
674 01-10-2019 01:00:00 14.025 C 10.47 g/m*3 14.03 C 1.2 km/h
675 01-10-2019 02:00:00 13.60833 C 10.24 g/m*3 13.61 C 0 km/h
Sensor: Nr:Datum:Temp:Abs-Feuchte:Windchill:Wind:
Aussen-T/F 676 01-10-2019 03:00:00 12.65 C 9.88 g/m*3 12.65 C 0 km/h
677 01-10-2019 04:00:00 13.275 C 10.3 g/m*3 13.28 C 3.48333 km/h
678 01-10-2019 05:00:00 14.40833 C 10.55 g/m*3 14.41 C 7.8 km/h
679 01-10-2019 06:00:00 15.00833 C 10.98 g/m*3 15.01 C 11.55833 km/h
680 01-10-2019 07:00:00 15.375 C 11.38 g/m*3 15.38 C 15.56667 km/h
681 01-10-2019 08:00:00 15.5 C 11.54 g/m*3 15.5 C 14.1 km/h
682 01-10-2019 09:00:00 16.125 C 11.82 g/m*3 16.13 C 13.7 km/h
683 01-10-2019 10:00:00 17.09167 C 12.35 g/m*3 17.09 C 14.9 km/h
684 01-10-2019 11:00:00 17.53333 C 12.69 g/m*3 17.53 C 14.63333 km/h
685 01-10-2019 12:00:00 17.36667 C 13.11 g/m*3 17.37 C 12.225 km/h
686 01-10-2019 13:00:00 18.575 C 12.46 g/m*3 18.58 C 9.41667 km/h
687 01-10-2019 14:00:00 18.35833 C 13.01 g/m*3 18.36 C 8.34167 km/h
688 01-10-2019 15:00:00 19.08333 C 13.57 g/m*3 19.08 C 11.425 km/h
689 01-10-2019 16:00:00 18.26667 C 13.78 g/m*3 18.27 C 5.775 km/h
690 01-10-2019 17:00:00 17.6 C 13.95 g/m*3 17.6 C 0.66667 km/h
691 01-10-2019 18:00:00 16.725 C 13.21 g/m*3 16.73 C 1.2 km/h
692 01-10-2019 19:00:00 16.19167 C 12.98 g/m*3 16.19 C 0 km/h
693 01-10-2019 20:00:00 15.875 C 12.82 g/m*3 15.88 C 0.66667 km/h
694 01-10-2019 21:00:00 15.85 C 12.85 g/m*3 15.85 C 1.46667 km/h
695 01-10-2019 22:00:00 15.5 C 12.56 g/m*3 15.5 C 1.60833 km/h
696 01-10-2019 23:00:00 15.225 C 12.35 g/m*3 15.23 C 3.06667 km/h
697 02-10-2019 00:00:00 15.15833 C 12.3 g/m*3 15.16 C 3.35833 km/h
698 02-10-2019 01:00:00 15.20833 C 12.24 g/m*3 15.21 C 4.14167 km/h
699 02-10-2019 02:00:00 14.975 C 12 g/m*3 14.98 C 1.2 km/h
700 02-10-2019 03:00:00 14.95833 C 11.96 g/m*3 14.96 C 7.26667 km/h
Sensor: Nr:Datum:Temp:Abs-Feuchte:Windchill:Wind:
Aussen-T/F 701 02-10-2019 04:00:00 15.08333 C 11.86 g/m*3 15.08 C 4.55 km/h
702 02-10-2019 05:00:00 14.69167 C 11.66 g/m*3 14.69 C 3.48333 km/h
703 02-10-2019 06:00:00 13.59167 C 10.82 g/m*3 13.59 C 10.2 km/h
704 02-10-2019 07:00:00 11.80833 C 9.71 g/m*3 11.81 C 11.3 km/h
705 02-10-2019 08:00:00 10.74167 C 9.16 g/m*3 9.02 C 13.43333 km/h
706 02-10-2019 09:00:00 10.46667 C 8.8 g/m*3 9.65 C 7.51667 km/h
707 02-10-2019 10:00:00 10.86667 C 8.73 g/m*3 10.04 C 7.91667 km/h
708 02-10-2019 11:00:00 11.33333 C 8.56 g/m*3 11.33 C 11.01667 km/h
709 02-10-2019 12:00:00 11.86667 C 8.52 g/m*3 11.87 C 9.125 km/h
710 02-10-2019 13:00:00 12.65833 C 8.48 g/m*3 12.66 C 9.54167 km/h
711 02-10-2019 14:00:00 13.49167 C 8.19 g/m*3 13.49 C 9.55833 km/h
712 02-10-2019 15:00:00 13.66667 C 7.87 g/m*3 13.67 C 11.825 km/h
713 02-10-2019 16:00:00 13.8 C 7.37 g/m*3 13.8 C 14.1 km/h
714 02-10-2019 17:00:00 14.26667 C 7.55 g/m*3 14.27 C 12.21667 km/h
715 02-10-2019 18:00:00 12.9 C 7.68 g/m*3 12.9 C 10.89167 km/h
716 02-10-2019 19:00:00 11.325 C 7.61 g/m*3 11.33 C 5.76667 km/h
717 02-10-2019 20:00:00 10.04167 C 7.5 g/m*3 10.04 C 4.825 km/h
718 02-10-2019 21:00:00 9.875 C 7.51 g/m*3 9.88 C 3.20833 km/h
719 02-10-2019 22:00:00 8.61667 C 7.37 g/m*3 8.62 C 0.66667 km/h
720 02-10-2019 23:00:00 8.48333 C 7.43 g/m*3 8.48 C 3.875 km/h
721 03-10-2019 00:00:00 9.33333 C 7.66 g/m*3 9.33 C 4.41667 km/h
722 03-10-2019 01:00:00 9.25833 C 7.75 g/m*3 9.26 C 4.68333 km/h
723 03-10-2019 02:00:00 9.21667 C 7.73 g/m*3 9.22 C 3.73333 km/h
724 03-10-2019 03:00:00 8.525 C 7.52 g/m*3 8.53 C 1.86667 km/h
725 03-10-2019 04:00:00 7.63333 C 7.29 g/m*3 7.63 C 1.33333 km/h
Sensor: Nr:Datum:Temp:Abs-Feuchte:Windchill:Wind:
Aussen-T/F 726 03-10-2019 05:00:00 7.94167 C 7.49 g/m*3 7.94 C 4.41667 km/h
727 03-10-2019 06:00:00 7.45 C 7.26 g/m*3 7.45 C 1.2 km/h
728 03-10-2019 07:00:00 7.2 C 7.29 g/m*3 7.2 C 1.6 km/h
729 03-10-2019 08:00:00 7.74167 C 7.49 g/m*3 7.74 C 4.96667 km/h
730 03-10-2019 09:00:00 9.34167 C 7.9 g/m*3 8.53 C 6.70833 km/h
731 03-10-2019 10:00:00 10.36667 C 8.23 g/m*3 9.45 C 7.925 km/h
732 03-10-2019 11:00:00 12.23333 C 8.75 g/m*3 12.23 C 8.725 km/h
733 03-10-2019 12:00:00 12.55833 C 9.02 g/m*3 12.56 C 6.16667 km/h
734 03-10-2019 13:00:00 12.225 C 9.57 g/m*3 12.23 C 0.13333 km/h
735 03-10-2019 14:00:00 11.68333 C 9.65 g/m*3 11.68 C 0.8 km/h
736 03-10-2019 15:00:00 11.88333 C 10.01 g/m*3 11.88 C 0.8 km/h
737 03-10-2019 16:00:00 12.15833 C 10.02 g/m*3 12.16 C 2.41667 km/h
738 03-10-2019 17:00:00 11.75833 C 9.81 g/m*3 11.76 C 0 km/h
739 03-10-2019 18:00:00 10.81667 C 9.3 g/m*3 10.82 C 1.06667 km/h
740 03-10-2019 19:00:00 9.90833 C 8.84 g/m*3 9.91 C 0.8 km/h
741 03-10-2019 20:00:00 9.36667 C 8.58 g/m*3 9.37 C 0 km/h
742 03-10-2019 21:00:00 9.00833 C 8.45 g/m*3 9.01 C 0 km/h
743 03-10-2019 22:00:00 8.625 C 8.26 g/m*3 8.63 C 0 km/h
744 03-10-2019 23:00:00 8.375 C 8.13 g/m*3 8.38 C 0 km/h
745 04-10-2019 00:00:00 8.38333 C 8.14 g/m*3 8.38 C 0 km/h
746 04-10-2019 01:00:00 8.21667 C 8.07 g/m*3 8.22 C 0.13333 km/h
747 04-10-2019 02:00:00 8.19167 C 8.08 g/m*3 8.19 C 0 km/h
748 04-10-2019 03:00:00 8.05833 C 8.04 g/m*3 8.06 C 0 km/h
749 04-10-2019 04:00:00 7.71667 C 7.86 g/m*3 7.72 C 0 km/h
750 04-10-2019 05:00:00 7.90833 C 7.97 g/m*3 7.91 C 0 km/h
Sensor: Nr:Datum:Temp:Abs-Feuchte:Windchill:Wind:
Aussen-T/F 751 04-10-2019 06:00:00 7.96667 C 8 g/m*3 7.97 C 0.93333 km/h
752 04-10-2019 07:00:00 8.13333 C 8.09 g/m*3 8.13 C 2.68333 km/h
753 04-10-2019 08:00:00 8.45833 C 8.26 g/m*3 8.46 C 1.06667 km/h
754 04-10-2019 09:00:00 8.70833 C 8.39 g/m*3 8.71 C 0.8 km/h
755 04-10-2019 10:00:00 9.125 C 8.61 g/m*3 9.13 C 3.875 km/h
756 04-10-2019 11:00:00 9.75833 C 8.88 g/m*3 9.26 C 5.75833 km/h
757 04-10-2019 12:00:00 10.65 C 9.33 g/m*3 10.65 C 3.06667 km/h
758 04-10-2019 13:00:00 11.25833 C 9.61 g/m*3 11.26 C 2 km/h
759 04-10-2019 14:00:00 13.03333 C 10.33 g/m*3 13.03 C 7.53333 km/h
760 04-10-2019 15:00:00 13.81667 C 10.48 g/m*3 13.82 C 6.98333 km/h
761 04-10-2019 16:00:00 14.05833 C 10.83 g/m*3 14.06 C 1.875 km/h
762 04-10-2019 17:00:00 13.36667 C 10.78 g/m*3 13.37 C 2.13333 km/h
763 04-10-2019 18:00:00 12.35833 C 10.26 g/m*3 12.36 C 1.46667 km/h
764 04-10-2019 19:00:00 11.70833 C 9.98 g/m*3 11.71 C 1.06667 km/h
765 04-10-2019 20:00:00 11.63333 C 10 g/m*3 11.63 C 2.53333 km/h
766 04-10-2019 21:00:00 11.65833 C 10.01 g/m*3 11.66 C 5.775 km/h
767 04-10-2019 22:00:00 11.69167 C 9.97 g/m*3 11.69 C 4.29167 km/h
768 04-10-2019 23:00:00 11.71667 C 9.99 g/m*3 11.72 C 5.9 km/h
769 05-10-2019 00:00:00 11.96667 C 9.86 g/m*3 11.97 C 7.10833 km/h
770 05-10-2019 01:00:00 12.09167 C 9.86 g/m*3 12.09 C 6.85833 km/h
771 05-10-2019 02:00:00 12.225 C 9.8 g/m*3 12.23 C 7.64167 km/h
772 05-10-2019 03:00:00 12.3 C 9.94 g/m*3 12.3 C 3.20833 km/h
773 05-10-2019 04:00:00 11.55 C 9.64 g/m*3 11.55 C 5.90833 km/h
774 05-10-2019 05:00:00 10.75833 C 9.21 g/m*3 10.24 C 6.44167 km/h
775 05-10-2019 06:00:00 10.20833 C 8.93 g/m*3 10.21 C 2.275 km/h
Sensor: Nr:Datum:Temp:Abs-Feuchte:Windchill:Wind:
Aussen-T/F 776 05-10-2019 07:00:00 9.98333 C 8.77 g/m*3 9.98 C 3.6 km/h
777 05-10-2019 08:00:00 9.81667 C 8.54 g/m*3 9.82 C 2.26667 km/h
778 05-10-2019 09:00:00 10.18333 C 8.62 g/m*3 10.18 C 4.94167 km/h
779 05-10-2019 10:00:00 10.55833 C 8.61 g/m*3 9.6 C 8.325 km/h
780 05-10-2019 11:00:00 10.70833 C 8.11 g/m*3 9.72 C 8.60833 km/h
781 05-10-2019 12:00:00 11.2 C 8.17 g/m*3 11.2 C 6.575 km/h
782 05-10-2019 13:00:00 11.9 C 8.22 g/m*3 11.9 C 4.26667 km/h
783 05-10-2019 14:00:00 11.89167 C 8.27 g/m*3 11.89 C 2.40833 km/h
784 05-10-2019 15:00:00 12.23333 C 8.36 g/m*3 12.23 C 0.93333 km/h
785 05-10-2019 16:00:00 12.3 C 8.75 g/m*3 12.3 C 0.66667 km/h
786 05-10-2019 17:00:00 12.06667 C 9 g/m*3 12.07 C 0.13333 km/h
787 05-10-2019 18:00:00 11.125 C 8.64 g/m*3 11.13 C 0 km/h
788 05-10-2019 19:00:00 9.50833 C 7.87 g/m*3 9.51 C 0.4 km/h
789 05-10-2019 20:00:00 8.35833 C 7.46 g/m*3 8.36 C 1.33333 km/h
790 05-10-2019 21:00:00 7.875 C 7.44 g/m*3 7.88 C 0 km/h
791 05-10-2019 22:00:00 7.43333 C 7.44 g/m*3 7.43 C 0 km/h
792 05-10-2019 23:00:00 7.35 C 7.45 g/m*3 7.35 C 0 km/h
793 06-10-2019 00:00:00 7.13333 C 7.36 g/m*3 7.13 C 0 km/h
794 06-10-2019 01:00:00 6.55 C 7.11 g/m*3 6.55 C 0 km/h
795 06-10-2019 02:00:00 6.7 C 7.26 g/m*3 6.7 C 0 km/h
796 06-10-2019 03:00:00 7.05833 C 7.47 g/m*3 7.06 C 0 km/h
797 06-10-2019 04:00:00 7.2 C 7.54 g/m*3 7.2 C 0 km/h
798 06-10-2019 05:00:00 7.18333 C 7.53 g/m*3 7.18 C 0 km/h
799 06-10-2019 06:00:00 7.38333 C 7.63 g/m*3 7.38 C 0 km/h
800 06-10-2019 07:00:00 7.65833 C 7.76 g/m*3 7.66 C 0 km/h
Sensor: Nr:Datum:Temp:Abs-Feuchte:Windchill:Wind:
Aussen-T/F 801 06-10-2019 08:00:00 7.84167 C 7.86 g/m*3 7.84 C 0 km/h
802 06-10-2019 09:00:00 8.31667 C 8.1 g/m*3 8.32 C 0 km/h
803 06-10-2019 10:00:00 8.63333 C 8.22 g/m*3 8.63 C 0.8 km/h
804 06-10-2019 11:00:00 8.55833 C 8.21 g/m*3 8.56 C 3.6 km/h
805 06-10-2019 12:00:00 8.78333 C 8.35 g/m*3 8.78 C 0.26667 km/h
806 06-10-2019 13:00:00 9.06667 C 8.5 g/m*3 9.07 C 0.66667 km/h
807 06-10-2019 14:00:00 9.25 C 8.6 g/m*3 9.25 C 1.06667 km/h
808 06-10-2019 15:00:00 9.45833 C 8.72 g/m*3 9.46 C 0.53333 km/h
809 06-10-2019 16:00:00 9.61667 C 8.8 g/m*3 9.62 C 1.86667 km/h
810 06-10-2019 17:00:00 9.51667 C 8.75 g/m*3 9.52 C 0.53333 km/h
811 06-10-2019 18:00:00 9.325 C 8.64 g/m*3 9.32 C 3.225 km/h
812 06-10-2019 19:00:00 9.15 C 8.57 g/m*3 9.15 C 3.60833 km/h
813 06-10-2019 20:00:00 9.1 C 8.61 g/m*3 9.1 C 0.4 km/h
814 06-10-2019 21:00:00 9.04167 C 8.57 g/m*3 9.04 C 1.74167 km/h
815 06-10-2019 22:00:00 8.81667 C 8.45 g/m*3 8.82 C 1.875 km/h
816 06-10-2019 23:00:00 8.83333 C 8.46 g/m*3 8.83 C 0 km/h
817 07-10-2019 00:00:00 8.9 C 8.5 g/m*3 8.9 C 0.26667 km/h
818 07-10-2019 01:00:00 8.725 C 8.4 g/m*3 8.73 C 2.95 km/h
819 07-10-2019 02:00:00 8.69167 C 8.38 g/m*3 8.69 C 0.13333 km/h
820 07-10-2019 03:00:00 8.60833 C 8.34 g/m*3 8.61 C 1.33333 km/h
821 07-10-2019 04:00:00 8.7 C 8.39 g/m*3 8.7 C 0 km/h
822 07-10-2019 05:00:00 8.64167 C 8.36 g/m*3 8.64 C 1.86667 km/h
823 07-10-2019 06:00:00 8.6 C 8.34 g/m*3 8.6 C 0.13333 km/h
824 07-10-2019 07:00:00 8.6 C 8.34 g/m*3 8.6 C 0 km/h
825 07-10-2019 08:00:00 8.66667 C 8.37 g/m*3 8.67 C 0 km/h
Sensor: Nr:Datum:Temp:Abs-Feuchte:Windchill:Wind:
Aussen-T/F 826 07-10-2019 09:00:00 8.83333 C 8.46 g/m*3 8.83 C 0.26667 km/h
827 07-10-2019 10:00:00 9.08333 C 8.6 g/m*3 9.08 C 1.06667 km/h
828 07-10-2019 11:00:00 9.65 C 8.88 g/m*3 9.65 C 3.34167 km/h
829 07-10-2019 12:00:00 10.51667 C 9.05 g/m*3 10.52 C 2.4 km/h
830 07-10-2019 13:00:00 10.84167 C 9 g/m*3 10.84 C 2.675 km/h
831 07-10-2019 14:00:00 11.46667 C 9.1 g/m*3 11.47 C 5.89167 km/h
832 07-10-2019 15:00:00 12.225 C 9.43 g/m*3 12.23 C 1.86667 km/h
833 07-10-2019 16:00:00 12.29167 C 9.53 g/m*3 12.29 C 1.33333 km/h
834 07-10-2019 17:00:00 12.3 C 9.56 g/m*3 12.3 C 2.4 km/h
835 07-10-2019 18:00:00 11.86667 C 9.56 g/m*3 11.87 C 0.53333 km/h
836 07-10-2019 19:00:00 11.09167 C 9.35 g/m*3 11.09 C 0 km/h
837 07-10-2019 20:00:00 10.725 C 9.32 g/m*3 10.73 C 0 km/h
838 07-10-2019 21:00:00 10.975 C 9.58 g/m*3 10.98 C 0 km/h
839 07-10-2019 22:00:00 11.1 C 9.67 g/m*3 11.1 C 0.26667 km/h
840 07-10-2019 23:00:00 11.1 C 9.67 g/m*3 11.1 C 0.26667 km/h
841 08-10-2019 00:00:00 11.11667 C 9.75 g/m*3 11.12 C 0.53333 km/h
842 08-10-2019 01:00:00 11.25 C 9.79 g/m*3 11.25 C 1.33333 km/h
843 08-10-2019 02:00:00 11.44167 C 9.88 g/m*3 11.44 C 0.93333 km/h
844 08-10-2019 03:00:00 11.75833 C 10.05 g/m*3 11.76 C 3.75833 km/h
845 08-10-2019 04:00:00 11.9 C 10.03 g/m*3 11.9 C 3.61667 km/h
846 08-10-2019 05:00:00 12.31667 C 10 g/m*3 12.32 C 8.46667 km/h
847 08-10-2019 06:00:00 12.18333 C 9.96 g/m*3 12.18 C 4.3 km/h
848 08-10-2019 07:00:00 11.79167 C 9.97 g/m*3 11.79 C 2.53333 km/h
849 08-10-2019 08:00:00 11.825 C 10.1 g/m*3 11.83 C 5.775 km/h
850 08-10-2019 09:00:00 12.03333 C 10.25 g/m*3 12.03 C 10.05833 km/h
Sensor: Nr:Datum:Temp:Abs-Feuchte:Windchill:Wind:
Aussen-T/F 851 08-10-2019 10:00:00 12.49167 C 10.45 g/m*3 12.49 C 12.76667 km/h
852 08-10-2019 11:00:00 13.5 C 10.89 g/m*3 13.5 C 13.7 km/h
853 08-10-2019 12:00:00 13.85833 C 10.95 g/m*3 13.86 C 14.36667 km/h
854 08-10-2019 13:00:00 14.225 C 11.19 g/m*3 14.23 C 9.93333 km/h
855 08-10-2019 14:00:00 14.6 C 11.43 g/m*3 14.6 C 10.075 km/h
856 08-10-2019 15:00:00 14.48333 C 11.47 g/m*3 14.48 C 9.55 km/h
857 08-10-2019 16:00:00 14.225 C 11.56 g/m*3 14.23 C 6.70833 km/h
858 08-10-2019 17:00:00 14.05833 C 11.55 g/m*3 14.06 C 3.61667 km/h
859 08-10-2019 18:00:00 13.86667 C 11.49 g/m*3 13.87 C 3.09167 km/h
860 08-10-2019 19:00:00 13.79167 C 11.43 g/m*3 13.79 C 1.875 km/h
861 08-10-2019 20:00:00 13.55 C 11.3 g/m*3 13.55 C 0.53333 km/h
862 08-10-2019 21:00:00 13.225 C 11.14 g/m*3 13.23 C 0.13333 km/h
863 08-10-2019 22:00:00 12.825 C 10.88 g/m*3 12.83 C 0 km/h
864 08-10-2019 23:00:00 11.68333 C 10.05 g/m*3 11.68 C 0.53333 km/h
865 09-10-2019 00:00:00 10.78333 C 9.56 g/m*3 10.78 C 0.13333 km/h
866 09-10-2019 01:00:00 10.34167 C 9.31 g/m*3 10.34 C 0.13333 km/h
867 09-10-2019 02:00:00 10.35 C 9.33 g/m*3 10.35 C 1.2 km/h
868 09-10-2019 03:00:00 10.625 C 9.52 g/m*3 10.63 C 3.35833 km/h
869 09-10-2019 04:00:00 10.98333 C 9.72 g/m*3 10.77 C 5.36667 km/h
870 09-10-2019 05:00:00 10.79167 C 9.58 g/m*3 10.59 C 5.225 km/h
871 09-10-2019 06:00:00 10.925 C 9.66 g/m*3 10.37 C 6.69167 km/h
872 09-10-2019 07:00:00 10.64167 C 9.4 g/m*3 10.64 C 4.54167 km/h
873 09-10-2019 08:00:00 10.73333 C 9.48 g/m*3 10.73 C 4.95833 km/h
874 09-10-2019 09:00:00 11.2 C 9.76 g/m*3 11.2 C 5.36667 km/h
875 09-10-2019 10:00:00 12.55 C 10.19 g/m*3 12.55 C 7.38333 km/h
Sensor: Nr:Datum:Temp:Abs-Feuchte:Windchill:Wind:
Aussen-T/F 876 09-10-2019 11:00:00 13.55833 C 10.43 g/m*3 13.56 C 3.46667 km/h
877 09-10-2019 12:00:00 13.90833 C 10.64 g/m*3 13.91 C 5.225 km/h
878 09-10-2019 13:00:00 13.59167 C 10.87 g/m*3 13.59 C 1.34167 km/h
879 09-10-2019 14:00:00 12.925 C 10.43 g/m*3 12.93 C 3.74167 km/h
880 09-10-2019 15:00:00 12.28333 C 10.09 g/m*3 12.28 C 9.01667 km/h
881 09-10-2019 16:00:00 12.775 C 10.02 g/m*3 12.78 C 8.86667 km/h
882 09-10-2019 17:00:00 12.975 C 9.81 g/m*3 12.98 C 10.20833 km/h
883 09-10-2019 18:00:00 12.525 C 9.54 g/m*3 12.53 C 11.28333 km/h
884 09-10-2019 19:00:00 11.84167 C 9.37 g/m*3 11.84 C 9.675 km/h
885 09-10-2019 20:00:00 11.20833 C 9.09 g/m*3 11.21 C 6.3 km/h
886 09-10-2019 21:00:00 11.06667 C 9.07 g/m*3 11.07 C 8.2 km/h
887 09-10-2019 22:00:00 11.10833 C 8.69 g/m*3 11.11 C 14.23333 km/h
888 09-10-2019 23:00:00 10.8 C 8.53 g/m*3 9.33 C 11.7 km/h
889 10-10-2019 00:00:00 10.375 C 8.45 g/m*3 8.64 C 12.89167 km/h
890 10-10-2019 01:00:00 10.15833 C 8.49 g/m*3 9.61 C 6.15833 km/h
891 10-10-2019 02:00:00 10.39167 C 8.71 g/m*3 10.39 C 4.825 km/h
892 10-10-2019 03:00:00 10.68333 C 8.93 g/m*3 10.68 C 4.81667 km/h
893 10-10-2019 04:00:00 10.56667 C 8.95 g/m*3 9.64 C 8.18333 km/h
894 10-10-2019 05:00:00 10.40833 C 9.02 g/m*3 10.41 C 3.2 km/h
895 10-10-2019 06:00:00 10.44167 C 9.05 g/m*3 10.11 C 5.49167 km/h
896 10-10-2019 07:00:00 10.09167 C 8.79 g/m*3 9.37 C 6.84167 km/h
897 10-10-2019 08:00:00 9.81667 C 8.56 g/m*3 8.93 C 7.375 km/h
898 10-10-2019 09:00:00 10.675 C 8.79 g/m*3 9.59 C 9.13333 km/h
899 10-10-2019 10:00:00 11.29167 C 8.88 g/m*3 11.29 C 11.825 km/h
900 10-10-2019 11:00:00 12.33333 C 9.13 g/m*3 12.33 C 12.89167 km/h
Sensor: Nr:Datum:Temp:Abs-Feuchte:Windchill:Wind:
Aussen-T/F 901 10-10-2019 12:00:00 13.35 C 9.1 g/m*3 13.35 C 14.1 km/h
902 10-10-2019 13:00:00 14.28333 C 8.73 g/m*3 14.28 C 16.5 km/h
903 10-10-2019 14:00:00 14.53333 C 9.12 g/m*3 14.53 C 12.20833 km/h
904 10-10-2019 15:00:00 15.09167 C 9.33 g/m*3 15.09 C 12.76667 km/h
905 10-10-2019 16:00:00 15.37778 C 9.32 g/m*3 15.38 C 12.01111 km/h
906 10-10-2019 17:00:00 13.83333 C 9.62 g/m*3 13.83 C 9.675 km/h
907 10-10-2019 18:00:00 13.18333 C 9.53 g/m*3 13.18 C 4.15 km/h
908 10-10-2019 19:00:00 11.68333 C 9.19 g/m*3 11.68 C 3.475 km/h
909 10-10-2019 20:00:00 11.69167 C 9.23 g/m*3 11.69 C 4.95 km/h
910 10-10-2019 21:00:00 10.88333 C 9 g/m*3 10.88 C 0.26667 km/h
911 10-10-2019 22:00:00 10.18333 C 8.9 g/m*3 10.18 C 0.13333 km/h
912 10-10-2019 23:00:00 9.8 C 8.77 g/m*3 9.8 C 0.93333 km/h
913 11-10-2019 00:00:00 9.575 C 8.73 g/m*3 9.57 C 1.06667 km/h
914 11-10-2019 01:00:00 9.19167 C 8.52 g/m*3 9.19 C 0.8 km/h
915 11-10-2019 02:00:00 8.83333 C 8.36 g/m*3 8.83 C 0 km/h
916 11-10-2019 03:00:00 8.98333 C 8.48 g/m*3 8.98 C 1.74167 km/h
917 11-10-2019 04:00:00 9.49167 C 8.72 g/m*3 9.49 C 3.86667 km/h
918 11-10-2019 05:00:00 9.45833 C 8.62 g/m*3 9.46 C 2.40833 km/h
919 11-10-2019 06:00:00 9.43333 C 8.6 g/m*3 9.43 C 0.4 km/h
920 11-10-2019 07:00:00 9.91667 C 8.89 g/m*3 9.92 C 1.60833 km/h
921 11-10-2019 08:00:00 10.98333 C 9.5 g/m*3 10.98 C 2.80833 km/h
922 11-10-2019 09:00:00 12.425 C 10.21 g/m*3 12.43 C 3.21667 km/h
923 11-10-2019 10:00:00 13.35833 C 10.58 g/m*3 13.36 C 3.34167 km/h
924 11-10-2019 11:00:00 14.85833 C 10.83 g/m*3 14.86 C 11.68333 km/h
925 11-10-2019 12:00:00 15.85 C 10.72 g/m*3 15.85 C 16.1 km/h
Sensor: Nr:Datum:Temp:Abs-Feuchte:Windchill:Wind:
Aussen-T/F 926 11-10-2019 13:00:00 16.39167 C 10.82 g/m*3 16.39 C 11.15 km/h
927 11-10-2019 14:00:00 16.29167 C 10.86 g/m*3 16.29 C 11.275 km/h
928 11-10-2019 15:00:00 16.56667 C 10.9 g/m*3 16.57 C 11.03333 km/h
929 11-10-2019 16:00:00 16.6 C 11.02 g/m*3 16.6 C 10.61667 km/h
930 11-10-2019 17:00:00 16.66667 C 11.09 g/m*3 16.67 C 9 km/h
931 11-10-2019 18:00:00 16.04167 C 11.1 g/m*3 16.04 C 4.03333 km/h
932 11-10-2019 19:00:00 14.19167 C 10.81 g/m*3 14.19 C 0.4 km/h
933 11-10-2019 20:00:00 13.55833 C 10.81 g/m*3 13.56 C 0 km/h
934 11-10-2019 21:00:00 12.80833 C 10.44 g/m*3 12.81 C 0 km/h
935 11-10-2019 22:00:00 12.075 C 10.11 g/m*3 12.08 C 0 km/h
936 11-10-2019 23:00:00 11.81667 C 10.03 g/m*3 11.82 C 0 km/h
937 12-10-2019 00:00:00 11.11667 C 9.59 g/m*3 11.12 C 0 km/h
938 12-10-2019 01:00:00 10.63333 C 9.39 g/m*3 10.63 C 0 km/h
939 12-10-2019 02:00:00 10.30833 C 9.2 g/m*3 10.31 C 0.13333 km/h
940 12-10-2019 03:00:00 9.95833 C 9 g/m*3 9.96 C 0 km/h
941 12-10-2019 04:00:00 10.01667 C 9.12 g/m*3 10.02 C 0 km/h
942 12-10-2019 05:00:00 9.58333 C 8.84 g/m*3 9.58 C 0 km/h
943 12-10-2019 06:00:00 8.89167 C 8.49 g/m*3 8.89 C 0 km/h
944 12-10-2019 07:00:00 8.74167 C 8.41 g/m*3 8.74 C 0 km/h
945 12-10-2019 08:00:00 8.86667 C 8.48 g/m*3 8.87 C 0 km/h
946 12-10-2019 09:00:00 9.28333 C 8.73 g/m*3 9.28 C 0.93333 km/h
947 12-10-2019 10:00:00 11.75 C 10.28 g/m*3 11.75 C 5.225 km/h
948 12-10-2019 11:00:00 14.25 C 11.36 g/m*3 14.25 C 9.80833 km/h
949 12-10-2019 12:00:00 16.45 C 11.47 g/m*3 16.45 C 7.79167 km/h
950 12-10-2019 13:00:00 17.975 C 11.63 g/m*3 17.98 C 11.825 km/h
Sensor: Nr:Datum:Temp:Abs-Feuchte:Windchill:Wind:
Aussen-T/F 951 12-10-2019 14:00:00 19.40833 C 11.8 g/m*3 19.41 C 13.56667 km/h
952 12-10-2019 15:00:00 19.93333 C 11.86 g/m*3 19.93 C 14.76667 km/h
953 12-10-2019 16:00:00 19.6 C 12.11 g/m*3 19.6 C 13.7 km/h
954 12-10-2019 17:00:00 18.85 C 12.1 g/m*3 18.85 C 9.26667 km/h
955 12-10-2019 18:00:00 17.225 C 12.21 g/m*3 17.23 C 0.26667 km/h
956 12-10-2019 19:00:00 15.61667 C 11.8 g/m*3 15.62 C 0 km/h
957 12-10-2019 20:00:00 14.93333 C 11.5 g/m*3 14.93 C 0 km/h
958 12-10-2019 21:00:00 14.51667 C 11.56 g/m*3 14.52 C 1.6 km/h
959 12-10-2019 22:00:00 14.925 C 11.72 g/m*3 14.93 C 0.26667 km/h
960 12-10-2019 23:00:00 14.375 C 11.54 g/m*3 14.38 C 0 km/h
961 13-10-2019 00:00:00 13.65 C 11.13 g/m*3 13.65 C 0.13333 km/h
962 13-10-2019 01:00:00 13.11667 C 10.87 g/m*3 13.12 C 0 km/h
963 13-10-2019 02:00:00 13.30833 C 11.14 g/m*3 13.31 C 0 km/h
964 13-10-2019 03:00:00 13.40833 C 11.18 g/m*3 13.41 C 0 km/h
965 13-10-2019 04:00:00 13 C 10.94 g/m*3 13 C 0.26667 km/h
966 13-10-2019 05:00:00 13.54167 C 11.37 g/m*3 13.54 C 0 km/h
967 13-10-2019 06:00:00 13.79167 C 11.55 g/m*3 13.79 C 0 km/h
968 13-10-2019 07:00:00 13.76667 C 11.53 g/m*3 13.77 C 0 km/h
969 13-10-2019 08:00:00 13.11667 C 11.08 g/m*3 13.12 C 0.4 km/h
970 13-10-2019 09:00:00 13.46667 C 11.38 g/m*3 13.47 C 0 km/h
971 13-10-2019 10:00:00 14.23333 C 11.98 g/m*3 14.23 C 0 km/h
972 13-10-2019 11:00:00 15.63333 C 13.06 g/m*3 15.63 C 1.2 km/h
973 13-10-2019 12:00:00 17.325 C 14.43 g/m*3 17.33 C 2.14167 km/h
974 13-10-2019 13:00:00 19.45833 C 15.3 g/m*3 19.46 C 2.00833 km/h
975 13-10-2019 14:00:00 21.65833 C 14.76 g/m*3 21.66 C 4.54167 km/h
Sensor: Nr:Datum:Temp:Abs-Feuchte:Windchill:Wind:
Aussen-T/F 976 13-10-2019 15:00:00 22.03333 C 14.76 g/m*3 22.03 C 4.025 km/h
977 13-10-2019 16:00:00 21.96667 C 14.92 g/m*3 21.97 C 2.54167 km/h
978 13-10-2019 17:00:00 21.125 C 14.87 g/m*3 21.13 C 0.93333 km/h
979 13-10-2019 18:00:00 19.51667 C 14.41 g/m*3 19.52 C 0.8 km/h
980 13-10-2019 19:00:00 18.45 C 13.93 g/m*3 18.45 C 0.4 km/h
981 13-10-2019 20:00:00 18.11667 C 13.66 g/m*3 18.12 C 0.26667 km/h
982 13-10-2019 21:00:00 17.41667 C 13.24 g/m*3 17.42 C 0.26667 km/h
983 13-10-2019 22:00:00 17.06667 C 12.86 g/m*3 17.07 C 0.13333 km/h
984 13-10-2019 23:00:00 16.56667 C 12.52 g/m*3 16.57 C 0.26667 km/h
985 14-10-2019 00:00:00 15.825 C 12.14 g/m*3 15.83 C 0 km/h
986 14-10-2019 01:00:00 15.41667 C 11.97 g/m*3 15.42 C 0 km/h
987 14-10-2019 02:00:00 14.91667 C 11.73 g/m*3 14.92 C 0 km/h
988 14-10-2019 03:00:00 14.14167 C 11.33 g/m*3 14.14 C 0.26667 km/h
989 14-10-2019 04:00:00 13.45833 C 11 g/m*3 13.46 C 0 km/h
990 14-10-2019 05:00:00 13.36667 C 11.08 g/m*3 13.37 C 0.26667 km/h
991 14-10-2019 06:00:00 12.9 C 10.73 g/m*3 12.9 C 0 km/h
992 14-10-2019 07:00:00 12.75 C 10.7 g/m*3 12.75 C 1.2 km/h
993 14-10-2019 08:00:00 12.88333 C 10.81 g/m*3 12.88 C 0 km/h
994 14-10-2019 09:00:00 13.24167 C 11.07 g/m*3 13.24 C 0 km/h
995 14-10-2019 10:00:00 13.64167 C 11.39 g/m*3 13.64 C 0 km/h
996 14-10-2019 11:00:00 14.90833 C 12.37 g/m*3 14.91 C 0 km/h
997 14-10-2019 12:00:00 16.49167 C 13.51 g/m*3 16.49 C 0 km/h
998 14-10-2019 13:00:00 18.55833 C 14.17 g/m*3 18.56 C 1.73333 km/h
999 14-10-2019 14:00:00 21.1 C 14.13 g/m*3 21.1 C 3.75 km/h
1000 14-10-2019 15:00:00 21.11667 C 13.92 g/m*3 21.12 C 2.675 km/h
Sensor: Nr:Datum:Temp:Abs-Feuchte:Windchill:Wind:
Aussen-T/F 1001 14-10-2019 16:00:00 20.775 C 13.38 g/m*3 20.78 C 2.81667 km/h
1002 14-10-2019 17:00:00 19.81667 C 13.44 g/m*3 19.82 C 0 km/h
1003 14-10-2019 18:00:00 18.93333 C 13.13 g/m*3 18.93 C 0.26667 km/h
1004 14-10-2019 19:00:00 17.43333 C 12.92 g/m*3 17.43 C 0.26667 km/h
1005 14-10-2019 20:00:00 16.71667 C 12.54 g/m*3 16.72 C 0.13333 km/h
1006 14-10-2019 21:00:00 15.88333 C 12.05 g/m*3 15.88 C 0 km/h
1007 14-10-2019 22:00:00 14.875 C 11.7 g/m*3 14.88 C 0.26667 km/h
1008 14-10-2019 23:00:00 15.075 C 11.86 g/m*3 15.08 C 0.26667 km/h
1009 15-10-2019 00:00:00 15.08333 C 11.86 g/m*3 15.08 C 0.13333 km/h
1010 15-10-2019 01:00:00 14.4 C 11.41 g/m*3 14.4 C 0.13333 km/h
1011 15-10-2019 02:00:00 13.43333 C 10.9 g/m*3 13.43 C 0 km/h
1012 15-10-2019 03:00:00 12.725 C 10.54 g/m*3 12.73 C 0 km/h
1013 15-10-2019 04:00:00 12.38333 C 10.41 g/m*3 12.38 C 0.8 km/h
1014 15-10-2019 05:00:00 11.95833 C 10.18 g/m*3 11.96 C 0 km/h
1015 15-10-2019 06:00:00 12.09167 C 10.35 g/m*3 12.09 C 0.26667 km/h
1016 15-10-2019 07:00:00 11.96667 C 10.24 g/m*3 11.97 C 0 km/h
1017 15-10-2019 08:00:00 11.79167 C 10.19 g/m*3 11.79 C 0 km/h
1018 15-10-2019 09:00:00 12.36667 C 10.58 g/m*3 12.37 C 0 km/h
1019 15-10-2019 10:00:00 13.25833 C 11.18 g/m*3 13.26 C 0.8 km/h
1020 15-10-2019 11:00:00 15.375 C 12.54 g/m*3 15.38 C 2.54167 km/h
1021 15-10-2019 12:00:00 17.68333 C 12.87 g/m*3 17.68 C 6.58333 km/h
1022 15-10-2019 13:00:00 18.10833 C 12.43 g/m*3 18.11 C 9 km/h
1023 15-10-2019 14:00:00 17.73333 C 12.25 g/m*3 17.73 C 7.11667 km/h
1024 15-10-2019 15:00:00 17.21667 C 12.02 g/m*3 17.22 C 5.625 km/h
1025 15-10-2019 16:00:00 16.65833 C 12.09 g/m*3 16.66 C 1.86667 km/h
Sensor: Nr:Datum:Temp:Abs-Feuchte:Windchill:Wind:
Aussen-T/F 1026 15-10-2019 17:00:00 16.28333 C 12.2 g/m*3 16.28 C 0.13333 km/h
1027 15-10-2019 18:00:00 15.11667 C 11.88 g/m*3 15.12 C 0.66667 km/h
1028 15-10-2019 19:00:00 14.29167 C 11.58 g/m*3 14.29 C 0 km/h
1029 15-10-2019 20:00:00 13.925 C 11.41 g/m*3 13.93 C 0 km/h
1030 15-10-2019 21:00:00 13.65 C 11.27 g/m*3 13.65 C 0 km/h
1031 15-10-2019 22:00:00 13.41667 C 11.17 g/m*3 13.42 C 2.275 km/h
1032 15-10-2019 23:00:00 12.925 C 10.73 g/m*3 12.93 C 7.39167 km/h
1033 16-10-2019 00:00:00 12.10833 C 10.18 g/m*3 12.11 C 3.48333 km/h
1034 16-10-2019 01:00:00 11.85833 C 10.11 g/m*3 11.86 C 0.13333 km/h
1035 16-10-2019 02:00:00 11.8 C 10.1 g/m*3 11.8 C 0.26667 km/h
1036 16-10-2019 03:00:00 11.775 C 10.09 g/m*3 11.78 C 4.425 km/h
1037 16-10-2019 04:00:00 11.625 C 9.99 g/m*3 11.63 C 2.675 km/h
1038 16-10-2019 05:00:00 11.425 C 9.87 g/m*3 11.43 C 1.33333 km/h
1039 16-10-2019 06:00:00 11.18333 C 9.63 g/m*3 11.18 C 6.975 km/h
1040 16-10-2019 07:00:00 10.95833 C 9.38 g/m*3 10.96 C 2.26667 km/h
1041 16-10-2019 08:00:00 10.65 C 9.2 g/m*3 10.65 C 2.81667 km/h
1042 16-10-2019 09:00:00 10.925 C 9.44 g/m*3 10.93 C 1.6 km/h
1043 16-10-2019 10:00:00 12.44167 C 9.99 g/m*3 12.44 C 3.2 km/h
1044 16-10-2019 11:00:00 13.79167 C 10.29 g/m*3 13.79 C 5.9 km/h
1045 16-10-2019 12:00:00 14.55 C 10.54 g/m*3 14.55 C 5.64167 km/h
1046 16-10-2019 13:00:00 14.08333 C 11.05 g/m*3 14.08 C 0.53333 km/h
1047 16-10-2019 14:00:00 13.51667 C 11.02 g/m*3 13.52 C 2.275 km/h
1048 16-10-2019 15:00:00 13.91667 C 11.37 g/m*3 13.92 C 1.73333 km/h
1049 16-10-2019 16:00:00 14.34167 C 11.6 g/m*3 14.34 C 2.4 km/h
1050 16-10-2019 17:00:00 14.36667 C 11.66 g/m*3 14.37 C 0.26667 km/h
Sensor: Nr:Datum:Temp:Abs-Feuchte:Windchill:Wind:
Aussen-T/F 1051 16-10-2019 18:00:00 13.90833 C 11.39 g/m*3 13.91 C 0.13333 km/h
1052 16-10-2019 19:00:00 13.53333 C 11.25 g/m*3 13.53 C 0 km/h
1053 16-10-2019 20:00:00 13.25 C 11.06 g/m*3 13.25 C 0.26667 km/h
1054 16-10-2019 21:00:00 12.71667 C 10.7 g/m*3 12.72 C 0.26667 km/h
1055 16-10-2019 22:00:00 12.55833 C 10.59 g/m*3 12.56 C 0.26667 km/h
1056 16-10-2019 23:00:00 12.4 C 10.53 g/m*3 12.4 C 0.66667 km/h
1057 17-10-2019 00:00:00 12.64167 C 10.65 g/m*3 12.64 C 0.26667 km/h
1058 17-10-2019 01:00:00 12.61667 C 10.63 g/m*3 12.62 C 0.26667 km/h
1059 17-10-2019 02:00:00 12.375 C 10.47 g/m*3 12.38 C 0.26667 km/h
1060 17-10-2019 03:00:00 12.76667 C 10.67 g/m*3 12.77 C 1.2 km/h
1061 17-10-2019 04:00:00 13.575 C 10.86 g/m*3 13.58 C 1.6 km/h
1062 17-10-2019 05:00:00 14.19167 C 10.9 g/m*3 14.19 C 3.20833 km/h
1063 17-10-2019 06:00:00 14.23333 C 10.88 g/m*3 14.23 C 4.00833 km/h
1064 17-10-2019 07:00:00 14.24167 C 10.97 g/m*3 14.24 C 2.68333 km/h
1065 17-10-2019 08:00:00 14.58333 C 10.96 g/m*3 14.58 C 6.85 km/h
1066 17-10-2019 09:00:00 15.36667 C 11.12 g/m*3 15.37 C 7.39167 km/h
1067 17-10-2019 10:00:00 15.86667 C 11.24 g/m*3 15.87 C 9.39167 km/h
1068 17-10-2019 11:00:00 16.65833 C 11.61 g/m*3 16.66 C 3.88333 km/h
1069 17-10-2019 12:00:00 16.65833 C 11.92 g/m*3 16.66 C 2.26667 km/h
1070 17-10-2019 13:00:00 16.81667 C 11.88 g/m*3 16.82 C 5.50833 km/h
1071 17-10-2019 14:00:00 16.84167 C 12.29 g/m*3 16.84 C 0.93333 km/h
1072 17-10-2019 15:00:00 16.63333 C 12.31 g/m*3 16.63 C 0.8 km/h
1073 17-10-2019 16:00:00 15.85 C 12.31 g/m*3 15.85 C 0.26667 km/h
1074 17-10-2019 17:00:00 15.14167 C 12.15 g/m*3 15.14 C 0.13333 km/h
1075 17-10-2019 18:00:00 14.61667 C 11.9 g/m*3 14.62 C 0.26667 km/h
Sensor: Nr:Datum:Temp:Abs-Feuchte:Windchill:Wind:
Aussen-T/F 1076 17-10-2019 19:00:00 14.15833 C 11.65 g/m*3 14.16 C 0 km/h
1077 17-10-2019 20:00:00 14.08333 C 11.64 g/m*3 14.08 C 0.4 km/h
1078 17-10-2019 21:00:00 13.9 C 11.6 g/m*3 13.9 C 0.53333 km/h
1079 17-10-2019 22:00:00 13.85 C 11.59 g/m*3 13.85 C 0.13333 km/h
1080 17-10-2019 23:00:00 13.89167 C 11.62 g/m*3 13.89 C 0.66667 km/h
1081 18-10-2019 00:00:00 13.825 C 11.58 g/m*3 13.83 C 0.93333 km/h
1082 18-10-2019 01:00:00 12.83333 C 10.88 g/m*3 12.83 C 0.4 km/h
1083 18-10-2019 02:00:00 12.125 C 10.42 g/m*3 12.13 C 0 km/h
1084 18-10-2019 03:00:00 11.58333 C 10.07 g/m*3 11.58 C 0.4 km/h
1085 18-10-2019 04:00:00 11.49167 C 10.01 g/m*3 11.49 C 0.26667 km/h
1086 18-10-2019 05:00:00 11.80833 C 10.25 g/m*3 11.81 C 0.66667 km/h
1087 18-10-2019 06:00:00 12.7 C 10.91 g/m*3 12.7 C 1.6 km/h
1088 18-10-2019 07:00:00 12.60833 C 10.81 g/m*3 12.61 C 0.13333 km/h
1089 18-10-2019 08:00:00 12.8 C 10.98 g/m*3 12.8 C 0.26667 km/h
1090 18-10-2019 09:00:00 13.4 C 11.39 g/m*3 13.4 C 0 km/h
1091 18-10-2019 10:00:00 14.38333 C 12.1 g/m*3 14.38 C 1.33333 km/h
1092 18-10-2019 11:00:00 14.66667 C 12.23 g/m*3 14.67 C 3.88333 km/h
1093 18-10-2019 12:00:00 15.46667 C 11.78 g/m*3 15.47 C 7.25 km/h
1094 18-10-2019 13:00:00 14.95833 C 10.73 g/m*3 14.96 C 15.175 km/h
1095 18-10-2019 14:00:00 12.91667 C 9.64 g/m*3 12.92 C 16.50833 km/h
1096 18-10-2019 15:00:00 13.8 C 9.6 g/m*3 13.8 C 12.89167 km/h
1097 18-10-2019 16:00:00 14.23333 C 9.29 g/m*3 14.23 C 15.425 km/h
1098 18-10-2019 17:00:00 14.40833 C 9.06 g/m*3 14.41 C 9.8 km/h
1099 18-10-2019 18:00:00 12.64167 C 8.93 g/m*3 12.64 C 2.41667 km/h
1100 18-10-2019 19:00:00 10.63333 C 8.68 g/m*3 10.63 C 0.26667 km/h
Sensor: Nr:Datum:Temp:Abs-Feuchte:Windchill:Wind:
Aussen-T/F 1101 18-10-2019 20:00:00 9.75833 C 8.5 g/m*3 9.76 C 0 km/h
1102 18-10-2019 21:00:00 9.20833 C 8.34 g/m*3 9.21 C 0 km/h
1103 18-10-2019 22:00:00 9.23333 C 8.49 g/m*3 9.23 C 0 km/h
1104 18-10-2019 23:00:00 9.14167 C 8.45 g/m*3 9.14 C 0 km/h
1105 19-10-2019 00:00:00 9.14167 C 8.47 g/m*3 9.14 C 0.66667 km/h
1106 19-10-2019 01:00:00 9.64167 C 8.68 g/m*3 9.64 C 0.4 km/h
1107 19-10-2019 02:00:00 9.65833 C 8.67 g/m*3 9.66 C 0 km/h
1108 19-10-2019 03:00:00 9.875 C 8.76 g/m*3 9.88 C 0 km/h
1109 19-10-2019 04:00:00 10.10833 C 8.89 g/m*3 10.11 C 0.53333 km/h
1110 19-10-2019 05:00:00 10.68333 C 9.21 g/m*3 10.68 C 0.93333 km/h
1111 19-10-2019 06:00:00 10.70833 C 9.19 g/m*3 10.71 C 0 km/h
1112 19-10-2019 07:00:00 10.64167 C 9.23 g/m*3 10.64 C 0 km/h
1113 19-10-2019 08:00:00 11.05 C 9.54 g/m*3 11.05 C 0.26667 km/h
1114 19-10-2019 09:00:00 11.875 C 9.97 g/m*3 11.88 C 0.4 km/h
1115 19-10-2019 10:00:00 13.025 C 10.3 g/m*3 13.03 C 1.2 km/h
1116 19-10-2019 11:00:00 13.825 C 10.9 g/m*3 13.83 C 3.35 km/h
1117 19-10-2019 12:00:00 15.40833 C 11.24 g/m*3 15.41 C 3.34167 km/h
1118 19-10-2019 13:00:00 16.2 C 11.32 g/m*3 16.2 C 4.95833 km/h
1119 19-10-2019 14:00:00 16.9 C 11.41 g/m*3 16.9 C 7.5 km/h
1120 19-10-2019 15:00:00 17.24167 C 11.33 g/m*3 17.24 C 6.30833 km/h
1121 19-10-2019 16:00:00 17.15 C 11.4 g/m*3 17.15 C 1.475 km/h
1122 19-10-2019 17:00:00 16.84167 C 11.6 g/m*3 16.84 C 2.00833 km/h
1123 19-10-2019 18:00:00 15.16364 C 11.61 g/m*3 15.16 C 0.87273 km/h
1124 19-10-2019 19:00:00 14.03333 C 11.32 g/m*3 14.03 C 0 km/h
1125 19-10-2019 20:00:00 13.625 C 11.19 g/m*3 13.63 C 0 km/h
Sensor: Nr:Datum:Temp:Abs-Feuchte:Windchill:Wind:
Aussen-T/F 1126 19-10-2019 21:00:00 13.43333 C 11.14 g/m*3 13.43 C 0.53333 km/h
1127 19-10-2019 22:00:00 13.21667 C 11.03 g/m*3 13.22 C 0 km/h
1128 19-10-2019 23:00:00 13.00833 C 10.89 g/m*3 13.01 C 0 km/h
1129 20-10-2019 00:00:00 13 C 10.96 g/m*3 13 C 0 km/h
1130 20-10-2019 01:00:00 13.13333 C 11.09 g/m*3 13.13 C 0 km/h
1131 20-10-2019 02:00:00 13.11667 C 11.08 g/m*3 13.12 C 0 km/h
1132 20-10-2019 03:00:00 13.1 C 11.07 g/m*3 13.1 C 0 km/h
1133 20-10-2019 04:00:00 13.16667 C 11.11 g/m*3 13.17 C 0 km/h
1134 20-10-2019 05:00:00 12.96667 C 10.98 g/m*3 12.97 C 0.26667 km/h
1135 20-10-2019 06:00:00 12.74167 C 10.83 g/m*3 12.74 C 0 km/h
1136 20-10-2019 07:00:00 12.65 C 10.76 g/m*3 12.65 C 0 km/h
1137 20-10-2019 08:00:00 12.70833 C 10.8 g/m*3 12.71 C 0 km/h
1138 20-10-2019 09:00:00 12.84167 C 10.96 g/m*3 12.84 C 0.13333 km/h
1139 20-10-2019 10:00:00 13.04167 C 11.1 g/m*3 13.04 C 0.13333 km/h
1140 20-10-2019 11:00:00 13.25833 C 11.26 g/m*3 13.26 C 0.53333 km/h
1141 20-10-2019 12:00:00 13.69167 C 11.6 g/m*3 13.69 C 0 km/h
1142 20-10-2019 13:00:00 13.96667 C 11.8 g/m*3 13.97 C 0.13333 km/h
1143 20-10-2019 14:00:00 14.275 C 12.02 g/m*3 14.28 C 0.53333 km/h
1144 20-10-2019 15:00:00 14.525 C 12.21 g/m*3 14.53 C 0 km/h
1145 20-10-2019 16:00:00 14.83333 C 12.44 g/m*3 14.83 C 0.26667 km/h
1146 20-10-2019 17:00:00 14.85 C 12.45 g/m*3 14.85 C 0 km/h
1147 20-10-2019 18:00:00 14.45833 C 12.16 g/m*3 14.46 C 0 km/h
1148 20-10-2019 19:00:00 14.20833 C 11.97 g/m*3 14.21 C 0 km/h
1149 20-10-2019 20:00:00 14.03333 C 11.85 g/m*3 14.03 C 0 km/h
1150 20-10-2019 21:00:00 14.05833 C 11.86 g/m*3 14.06 C 0.26667 km/h
Sensor: Nr:Datum:Temp:Abs-Feuchte:Windchill:Wind:
Aussen-T/F 1151 20-10-2019 22:00:00 13.90909 C 11.76 g/m*3 13.91 C 0 km/h
1152 20-10-2019 23:00:00 13.925 C 11.77 g/m*3 13.93 C 0.26667 km/h
1153 21-10-2019 00:00:00 14.24167 C 12 g/m*3 14.24 C 4.95833 km/h
1154 21-10-2019 01:00:00 14.14167 C 11.92 g/m*3 14.14 C 0 km/h
1155 21-10-2019 02:00:00 13.74167 C 11.63 g/m*3 13.74 C 0 km/h
1156 21-10-2019 03:00:00 13.66667 C 11.58 g/m*3 13.67 C 0 km/h
1157 21-10-2019 04:00:00 13.11667 C 11.19 g/m*3 13.12 C 0 km/h
1158 21-10-2019 05:00:00 13.21667 C 11.26 g/m*3 13.22 C 0.13333 km/h
1159 21-10-2019 06:00:00 13.60833 C 11.54 g/m*3 13.61 C 0 km/h
1160 21-10-2019 07:00:00 13.31667 C 11.33 g/m*3 13.32 C 0 km/h
1161 21-10-2019 08:00:00 12.70833 C 10.91 g/m*3 12.71 C 0 km/h
1162 21-10-2019 09:00:00 12.9 C 11.05 g/m*3 12.9 C 0 km/h
1163 21-10-2019 10:00:00 13.49167 C 11.49 g/m*3 13.49 C 0.4 km/h
1164 21-10-2019 11:00:00 14.00833 C 11.83 g/m*3 14.01 C 2 km/h
1165 21-10-2019 12:00:00 14.60833 C 12.29 g/m*3 14.61 C 3.35 km/h
1166 21-10-2019 13:00:00 15.91667 C 12.04 g/m*3 15.92 C 11.025 km/h
1167 21-10-2019 14:00:00 16.70833 C 11.69 g/m*3 16.71 C 6.31667 km/h
1168 21-10-2019 15:00:00 16.375 C 11.27 g/m*3 16.38 C 6.96667 km/h
1169 21-10-2019 16:00:00 15.86667 C 10.94 g/m*3 15.87 C 4.95 km/h
1170 21-10-2019 17:00:00 14.73333 C 10.79 g/m*3 14.73 C 1.60833 km/h
1171 21-10-2019 18:00:00 13.72727 C 10.33 g/m*3 13.73 C 0.87273 km/h
1172 21-10-2019 19:00:00 12.49167 C 9.92 g/m*3 12.49 C 0 km/h
1173 21-10-2019 20:00:00 11.75 C 9.69 g/m*3 11.75 C 0 km/h
1174 21-10-2019 21:00:00 11.38333 C 9.6 g/m*3 11.38 C 0 km/h
1175 21-10-2019 22:00:00 11.325 C 9.6 g/m*3 11.33 C 0 km/h
Sensor: Nr:Datum:Temp:Abs-Feuchte:Windchill:Wind:
Aussen-T/F 1176 21-10-2019 23:00:00 11.21667 C 9.52 g/m*3 11.22 C 0 km/h
1177 22-10-2019 00:00:00 10.825 C 9.36 g/m*3 10.83 C 0 km/h
1178 22-10-2019 01:00:00 11.01667 C 9.52 g/m*3 11.02 C 0.26667 km/h
1179 22-10-2019 02:00:00 10.94167 C 9.47 g/m*3 10.94 C 0 km/h
1180 22-10-2019 03:00:00 10.875 C 9.42 g/m*3 10.88 C 0 km/h
1181 22-10-2019 04:00:00 10.66667 C 9.29 g/m*3 10.67 C 0 km/h
1182 22-10-2019 05:00:00 10 C 8.92 g/m*3 10 C 0 km/h
1183 22-10-2019 06:00:00 10.1 C 9.08 g/m*3 10.1 C 0 km/h
1184 22-10-2019 07:00:00 9.975 C 8.95 g/m*3 9.98 C 0 km/h
1185 22-10-2019 08:00:00 9.875 C 8.95 g/m*3 9.88 C 0 km/h
1186 22-10-2019 09:00:00 10.44167 C 9.25 g/m*3 10.44 C 1.2 km/h
1187 22-10-2019 10:00:00 11.36667 C 9.62 g/m*3 11.37 C 3.6 km/h
1188 22-10-2019 11:00:00 12.78333 C 9.88 g/m*3 12.78 C 4.675 km/h
1189 22-10-2019 12:00:00 13.61667 C 10 g/m*3 13.62 C 1.06667 km/h
1190 22-10-2019 13:00:00 14.35714 C 10.15 g/m*3 14.36 C 1.82857 km/h
1191 22-10-2019 14:00:00 15.08333 C 9.99 g/m*3 15.08 C 3.2 km/h
1192 22-10-2019 15:00:00 14.68333 C 10.31 g/m*3 14.68 C 0.26667 km/h
1193 22-10-2019 16:00:00 13.78333 C 10.36 g/m*3 13.78 C 0 km/h
1194 22-10-2019 17:00:00 13.31667 C 10.17 g/m*3 13.32 C 0.13333 km/h
1195 22-10-2019 18:00:00 12.55 C 9.64 g/m*3 12.55 C 1.33333 km/h
1196 22-10-2019 19:00:00 11.74167 C 9.48 g/m*3 11.74 C 0 km/h
1197 22-10-2019 20:00:00 10.70833 C 9.16 g/m*3 10.71 C 0 km/h
1198 22-10-2019 21:00:00 10.125 C 8.96 g/m*3 10.13 C 0 km/h
1199 22-10-2019 22:00:00 10.20833 C 9.13 g/m*3 10.21 C 0 km/h
1200 22-10-2019 23:00:00 9.9 C 8.94 g/m*3 9.9 C 0 km/h
Sensor: Nr:Datum:Temp:Abs-Feuchte:Windchill:Wind:
Aussen-T/F 1201 23-10-2019 00:00:00 8.98333 C 8.43 g/m*3 8.98 C 0 km/h
1202 23-10-2019 01:00:00 8.61667 C 8.26 g/m*3 8.62 C 0 km/h
1203 23-10-2019 02:00:00 8.20833 C 8.04 g/m*3 8.21 C 0 km/h
1204 23-10-2019 03:00:00 8.00833 C 8 g/m*3 8.01 C 0 km/h
1205 23-10-2019 04:00:00 7.83333 C 7.93 g/m*3 7.83 C 0 km/h
1206 23-10-2019 05:00:00 8.16667 C 8.11 g/m*3 8.17 C 0 km/h
1207 23-10-2019 06:00:00 8.13333 C 8.09 g/m*3 8.13 C 0 km/h
1208 23-10-2019 07:00:00 7.95 C 7.99 g/m*3 7.95 C 0 km/h
1209 23-10-2019 08:00:00 7.86667 C 7.97 g/m*3 7.87 C 0.13333 km/h
1210 23-10-2019 09:00:00 8.70833 C 8.47 g/m*3 8.71 C 1.06667 km/h
1211 23-10-2019 10:00:00 9.60833 C 8.98 g/m*3 9.61 C 0.13333 km/h
1212 23-10-2019 11:00:00 10.98333 C 9.8 g/m*3 10.98 C 3.20833 km/h
1213 23-10-2019 12:00:00 11.825 C 10.16 g/m*3 11.83 C 7.11667 km/h
1214 23-10-2019 13:00:00 12.95833 C 10.43 g/m*3 12.96 C 5.50833 km/h
1215 23-10-2019 14:00:00 13.84167 C 10.72 g/m*3 13.84 C 6.975 km/h
1216 23-10-2019 15:00:00 14.3 C 10.94 g/m*3 14.3 C 3.34167 km/h
1217 23-10-2019 16:00:00 14.79167 C 11.3 g/m*3 14.79 C 0.93333 km/h
1218 23-10-2019 17:00:00 14.94167 C 11.51 g/m*3 14.94 C 0.13333 km/h
1219 23-10-2019 18:00:00 14.175 C 11.18 g/m*3 14.18 C 0 km/h
1220 23-10-2019 19:00:00 13.39167 C 10.86 g/m*3 13.39 C 0.13333 km/h
1221 23-10-2019 20:00:00 13.24167 C 10.86 g/m*3 13.24 C 0 km/h
1222 23-10-2019 21:00:00 13.19167 C 10.9 g/m*3 13.19 C 0 km/h
1223 23-10-2019 22:00:00 12.94167 C 10.73 g/m*3 12.94 C 0 km/h
1224 23-10-2019 23:00:00 12.76667 C 10.62 g/m*3 12.77 C 0 km/h
1225 24-10-2019 00:00:00 12.39167 C 10.44 g/m*3 12.39 C 0 km/h
Sensor: Nr:Datum:Temp:Abs-Feuchte:Windchill:Wind:
Aussen-T/F 1226 24-10-2019 01:00:00 12.15833 C 10.33 g/m*3 12.16 C 0.66667 km/h
1227 24-10-2019 02:00:00 12.25833 C 10.43 g/m*3 12.26 C 0 km/h
1228 24-10-2019 03:00:00 11.81667 C 10.11 g/m*3 11.82 C 0 km/h
1229 24-10-2019 04:00:00 11.59167 C 10.06 g/m*3 11.59 C 0 km/h
1230 24-10-2019 05:00:00 11.85 C 10.24 g/m*3 11.85 C 0.13333 km/h
1231 24-10-2019 06:00:00 11.89167 C 10.28 g/m*3 11.89 C 0.53333 km/h
1232 24-10-2019 07:00:00 12.33333 C 10.56 g/m*3 12.33 C 0.66667 km/h
1233 24-10-2019 08:00:00 12.49167 C 10.66 g/m*3 12.49 C 0.66667 km/h
1234 24-10-2019 09:00:00 13.01667 C 11.01 g/m*3 13.02 C 0 km/h
1235 24-10-2019 10:00:00 13.58333 C 11.38 g/m*3 13.58 C 0.93333 km/h
1236 24-10-2019 11:00:00 14.51667 C 11.65 g/m*3 14.52 C 0.53333 km/h
1237 24-10-2019 12:00:00 15.175 C 12 g/m*3 15.18 C 0 km/h
1238 24-10-2019 13:00:00 16.45833 C 12.57 g/m*3 16.46 C 1.74167 km/h
1239 24-10-2019 14:00:00 17.46667 C 12.93 g/m*3 17.47 C 0.66667 km/h
1240 24-10-2019 15:00:00 18.525 C 13.34 g/m*3 18.52 C 1.2 km/h
1241 24-10-2019 16:00:00 18.44167 C 12.48 g/m*3 18.44 C 4.01667 km/h
1242 24-10-2019 17:00:00 17.525 C 12.19 g/m*3 17.52 C 2.28333 km/h
1243 24-10-2019 18:00:00 15.70833 C 11.42 g/m*3 15.71 C 1.86667 km/h
1244 24-10-2019 19:00:00 14.69167 C 11.11 g/m*3 14.69 C 1.06667 km/h
1245 24-10-2019 20:00:00 13.85833 C 10.81 g/m*3 13.86 C 0.66667 km/h
1246 24-10-2019 21:00:00 13.54167 C 10.67 g/m*3 13.54 C 0.26667 km/h
1247 24-10-2019 22:00:00 13.075 C 10.53 g/m*3 13.08 C 0 km/h
1248 24-10-2019 23:00:00 13.18333 C 10.74 g/m*3 13.18 C 0 km/h
1249 25-10-2019 00:00:00 12.40833 C 10.23 g/m*3 12.41 C 0 km/h
1250 25-10-2019 01:00:00 11.95 C 10.09 g/m*3 11.95 C 0 km/h
Sensor: Nr:Datum:Temp:Abs-Feuchte:Windchill:Wind:
Aussen-T/F 1251 25-10-2019 02:00:00 11.49167 C 9.82 g/m*3 11.49 C 1.075 km/h
1252 25-10-2019 03:00:00 12.34167 C 10.22 g/m*3 12.34 C 1.875 km/h
1253 25-10-2019 04:00:00 12.88333 C 10.32 g/m*3 12.88 C 1.73333 km/h
1254 25-10-2019 05:00:00 12.65833 C 10.09 g/m*3 12.66 C 2.95 km/h
1255 25-10-2019 06:00:00 12.63333 C 10.2 g/m*3 12.63 C 1.86667 km/h
1256 25-10-2019 07:00:00 13.175 C 10.39 g/m*3 13.18 C 2.40833 km/h
1257 25-10-2019 08:00:00 12.68333 C 10.19 g/m*3 12.68 C 1.46667 km/h
1258 25-10-2019 09:00:00 12.93333 C 10.5 g/m*3 12.93 C 1.86667 km/h
1259 25-10-2019 10:00:00 13.775 C 10.6 g/m*3 13.78 C 6.30833 km/h
1260 25-10-2019 11:00:00 14.90833 C 10.52 g/m*3 14.91 C 9.40833 km/h
1261 25-10-2019 12:00:00 15.275 C 10.34 g/m*3 15.28 C 9.95833 km/h
1262 25-10-2019 13:00:00 16.19167 C 10.17 g/m*3 16.19 C 9.275 km/h
1263 25-10-2019 14:00:00 16.29167 C 10.24 g/m*3 16.29 C 7.525 km/h
1264 25-10-2019 15:00:00 16.43333 C 9.86 g/m*3 16.43 C 9.68333 km/h
1265 25-10-2019 16:00:00 16.05833 C 10 g/m*3 16.06 C 6.575 km/h
1266 25-10-2019 17:00:00 14.56667 C 10.21 g/m*3 14.57 C 0.66667 km/h
1267 25-10-2019 18:00:00 13.01667 C 9.81 g/m*3 13.02 C 0.8 km/h
1268 25-10-2019 19:00:00 11.99167 C 9.58 g/m*3 11.99 C 0.13333 km/h
1269 25-10-2019 20:00:00 11.45 C 9.4 g/m*3 11.45 C 0 km/h
1270 25-10-2019 21:00:00 11.025 C 9.26 g/m*3 11.03 C 0 km/h
1271 25-10-2019 22:00:00 11.3 C 9.56 g/m*3 11.3 C 0.53333 km/h
1272 25-10-2019 23:00:00 12.46667 C 10.12 g/m*3 12.47 C 1.6 km/h
1273 26-10-2019 00:00:00 13.48333 C 10.42 g/m*3 13.48 C 1.46667 km/h
1274 26-10-2019 01:00:00 13.675 C 10.41 g/m*3 13.68 C 1.2 km/h
1275 26-10-2019 02:00:00 13.53333 C 10.28 g/m*3 13.53 C 1.06667 km/h
Sensor: Nr:Datum:Temp:Abs-Feuchte:Windchill:Wind:
Aussen-T/F 1276 26-10-2019 03:00:00 12.26667 C 9.88 g/m*3 12.27 C 0.53333 km/h
1277 26-10-2019 04:00:00 11.59167 C 9.73 g/m*3 11.59 C 1.74167 km/h
1278 26-10-2019 05:00:00 12.29167 C 10.1 g/m*3 12.29 C 2.28333 km/h
1279 26-10-2019 06:00:00 11.86667 C 9.86 g/m*3 11.87 C 0.13333 km/h
1280 26-10-2019 07:00:00 11.1 C 9.47 g/m*3 11.1 C 0 km/h
1281 26-10-2019 08:00:00 10.15833 C 8.99 g/m*3 10.16 C 0 km/h
1282 26-10-2019 09:00:00 10.325 C 9.21 g/m*3 10.33 C 0 km/h
1283 26-10-2019 10:00:00 11.26667 C 9.84 g/m*3 11.27 C 0 km/h
1284 26-10-2019 11:00:00 12.475 C 10.63 g/m*3 12.48 C 0 km/h
1285 26-10-2019 12:00:00 13.81667 C 11.34 g/m*3 13.82 C 1.2 km/h
1286 26-10-2019 13:00:00 15.18333 C 11.66 g/m*3 15.18 C 0.93333 km/h
1287 26-10-2019 14:00:00 16.53333 C 11.97 g/m*3 16.53 C 2.26667 km/h
1288 26-10-2019 15:00:00 16.78333 C 12.09 g/m*3 16.78 C 0.66667 km/h
1289 26-10-2019 16:00:00 16.53333 C 12.06 g/m*3 16.53 C 1.06667 km/h
1290 26-10-2019 17:00:00 15.31667 C 11.43 g/m*3 15.32 C 1.6 km/h
1291 26-10-2019 18:00:00 13.925 C 10.7 g/m*3 13.93 C 0.53333 km/h
1292 26-10-2019 19:00:00 12.975 C 10.3 g/m*3 12.98 C 0.26667 km/h
1293 26-10-2019 20:00:00 12.86667 C 10.42 g/m*3 12.87 C 0.4 km/h
1294 26-10-2019 21:00:00 12.99167 C 10.44 g/m*3 12.99 C 0 km/h
1295 26-10-2019 22:00:00 12.64167 C 10.32 g/m*3 12.64 C 0 km/h
1296 26-10-2019 23:00:00 12.625 C 10.4 g/m*3 12.63 C 0.4 km/h
1297 27-10-2019 00:00:00 13.45833 C 10.54 g/m*3 13.46 C 3.35 km/h
1298 27-10-2019 01:00:00 13.74167 C 10.39 g/m*3 13.74 C 0.8 km/h
1299 27-10-2019 02:00:00 12.98333 C 10.14 g/m*3 12.98 C 2 km/h
1300 27-10-2019 04:00:00 12.17391 C 9.93 g/m*3 12.17 C 1.04348 km/h
Sensor: Nr:Datum:Temp:Abs-Feuchte:Windchill:Wind:
Aussen-T/F 1301 27-10-2019 05:00:00 12.87692 C 10.27 g/m*3 12.88 C 0.98462 km/h
1302 27-10-2019 06:00:00 14.125 C 10.45 g/m*3 14.13 C 7.10833 km/h
1303 27-10-2019 07:00:00 14.16667 C 10.64 g/m*3 14.17 C 9.66667 km/h
1304 27-10-2019 08:00:00 11.975 C 9.77 g/m*3 11.98 C 10.89167 km/h
1305 27-10-2019 09:00:00 10.425 C 8.96 g/m*3 9.15 C 9.93333 km/h
1306 27-10-2019 10:00:00 9.44167 C 8.49 g/m*3 9.44 C 1.6 km/h
1307 27-10-2019 11:00:00 9.75833 C 8.74 g/m*3 9.76 C 0.93333 km/h
1308 27-10-2019 12:00:00 10 C 8.87 g/m*3 10 C 0.4 km/h
1309 27-10-2019 13:00:00 9.9 C 8.84 g/m*3 9.9 C 0 km/h
1310 27-10-2019 14:00:00 9.53333 C 8.6 g/m*3 9.53 C 0.4 km/h
1311 27-10-2019 15:00:00 9.43333 C 8.61 g/m*3 9.43 C 0 km/h
1312 27-10-2019 16:00:00 9.16667 C 8.47 g/m*3 9.17 C 0 km/h
1313 27-10-2019 17:00:00 8.55 C 8.17 g/m*3 8.55 C 0 km/h
1314 27-10-2019 18:00:00 8.35 C 8.12 g/m*3 8.35 C 0 km/h
1315 27-10-2019 19:00:00 8.275 C 8.08 g/m*3 8.28 C 0 km/h
1316 27-10-2019 20:00:00 7.50833 C 7.69 g/m*3 7.51 C 0 km/h
1317 27-10-2019 21:00:00 6.91667 C 7.4 g/m*3 6.92 C 0.4 km/h
1318 27-10-2019 22:00:00 5.925 C 6.93 g/m*3 5.93 C 0 km/h
1319 27-10-2019 23:00:00 5.125 C 6.6 g/m*3 5.13 C 0.26667 km/h
1320 28-10-2019 00:00:00 5.325 C 6.73 g/m*3 5.33 C 0.13333 km/h
1321 28-10-2019 01:00:00 5.8 C 6.95 g/m*3 5.8 C 0.13333 km/h
1322 28-10-2019 02:00:00 5.59167 C 6.85 g/m*3 5.59 C 0 km/h
1323 28-10-2019 03:00:00 5.44167 C 6.79 g/m*3 5.44 C 0.26667 km/h
1324 28-10-2019 04:00:00 5.30833 C 6.73 g/m*3 5.31 C 0 km/h
1325 28-10-2019 05:00:00 5.2 C 6.68 g/m*3 5.2 C 0 km/h
Sensor: Nr:Datum:Temp:Abs-Feuchte:Windchill:Wind:
Aussen-T/F 1326 28-10-2019 06:00:00 5.13333 C 6.65 g/m*3 5.13 C 0 km/h
1327 28-10-2019 07:00:00 5.26667 C 6.71 g/m*3 5.27 C 0.8 km/h
1328 28-10-2019 08:00:00 5.51667 C 6.84 g/m*3 5.52 C 2 km/h
1329 28-10-2019 09:00:00 5.8 C 7.02 g/m*3 5.8 C 1.2 km/h
1330 28-10-2019 10:00:00 6.18333 C 7.2 g/m*3 6.18 C 2.26667 km/h
1331 28-10-2019 11:00:00 6.38333 C 7.29 g/m*3 6.38 C 1.6 km/h
1332 28-10-2019 12:00:00 6.5 C 7.33 g/m*3 5.48 C 5.88333 km/h
1333 28-10-2019 13:00:00 6.725 C 7.38 g/m*3 6.73 C 1.86667 km/h
1334 28-10-2019 14:00:00 7.39167 C 7.68 g/m*3 7.39 C 0.13333 km/h
1335 28-10-2019 15:00:00 8.01667 C 7.88 g/m*3 8.02 C 0.13333 km/h
1336 28-10-2019 16:00:00 7.79167 C 7.74 g/m*3 7.79 C 0 km/h
1337 28-10-2019 17:00:00 7 C 7.39 g/m*3 7 C 0 km/h
1338 28-10-2019 18:00:00 7.175 C 7.52 g/m*3 7.18 C 0 km/h
1339 28-10-2019 19:00:00 7.15833 C 7.52 g/m*3 7.16 C 0 km/h
1340 28-10-2019 20:00:00 6.99167 C 7.47 g/m*3 6.99 C 0 km/h
1341 28-10-2019 21:00:00 6.94167 C 7.46 g/m*3 6.94 C 0 km/h
1342 28-10-2019 22:00:00 6.78333 C 7.41 g/m*3 6.78 C 0.53333 km/h
1343 28-10-2019 23:00:00 6.7 C 7.33 g/m*3 6.7 C 1.73333 km/h
1344 29-10-2019 00:00:00 6.68333 C 7.29 g/m*3 6.68 C 2.4 km/h
1345 29-10-2019 01:00:00 6.41667 C 7.16 g/m*3 6.42 C 3.73333 km/h
1346 29-10-2019 02:00:00 6.3 C 7.11 g/m*3 6.3 C 0.26667 km/h
1347 29-10-2019 03:00:00 6.275 C 7.09 g/m*3 6.28 C 1.2 km/h
1348 29-10-2019 04:00:00 6.2 C 7.06 g/m*3 6.2 C 0.93333 km/h
1349 29-10-2019 05:00:00 6.2 C 7.06 g/m*3 6.2 C 1.46667 km/h
1350 29-10-2019 06:00:00 6.10833 C 7 g/m*3 6.11 C 1.06667 km/h
Sensor: Nr:Datum:Temp:Abs-Feuchte:Windchill:Wind:
Aussen-T/F 1351 29-10-2019 07:00:00 5.975 C 6.91 g/m*3 5.98 C 0.8 km/h
1352 29-10-2019 08:00:00 6.225 C 7.04 g/m*3 6.23 C 0.66667 km/h
1353 29-10-2019 09:00:00 6.69167 C 7.2 g/m*3 6.69 C 0 km/h
1354 29-10-2019 10:00:00 7.475 C 7.41 g/m*3 7.48 C 0.53333 km/h
1355 29-10-2019 11:00:00 8.23333 C 7.6 g/m*3 8.23 C 0 km/h
1356 29-10-2019 12:00:00 8.925 C 7.75 g/m*3 8.93 C 0.66667 km/h
1357 29-10-2019 13:00:00 9.74167 C 7.8 g/m*3 9.74 C 3.88333 km/h
1358 29-10-2019 14:00:00 10.59167 C 7.45 g/m*3 9.92 C 6.96667 km/h
1359 29-10-2019 15:00:00 9.575 C 7.35 g/m*3 9.57 C 1.74167 km/h
1360 29-10-2019 16:00:00 8.275 C 7.43 g/m*3 8.28 C 0.4 km/h
1361 29-10-2019 17:00:00 6.94167 C 6.9 g/m*3 6.94 C 1.86667 km/h
1362 29-10-2019 18:00:00 5.96667 C 6.58 g/m*3 5.97 C 0.66667 km/h
1363 29-10-2019 19:00:00 4.96667 C 6.27 g/m*3 4.97 C 0 km/h
1364 29-10-2019 20:00:00 4.425 C 6.15 g/m*3 4.43 C 0 km/h
1365 29-10-2019 21:00:00 3.63333 C 5.84 g/m*3 3.63 C 0 km/h
1366 29-10-2019 22:00:00 2.99167 C 5.65 g/m*3 2.99 C 0 km/h
1367 29-10-2019 23:00:00 2.775 C 5.61 g/m*3 2.78 C 0 km/h
1368 30-10-2019 00:00:00 2.20833 C 5.4 g/m*3 2.21 C 0 km/h
1369 30-10-2019 01:00:00 1.98333 C 5.33 g/m*3 1.98 C 0 km/h
1370 30-10-2019 02:00:00 1.98333 C 5.33 g/m*3 1.98 C 0 km/h
1371 30-10-2019 03:00:00 1.51667 C 5.16 g/m*3 1.52 C 0 km/h
1372 30-10-2019 04:00:00 1.14167 C 5.05 g/m*3 1.14 C 0 km/h
1373 30-10-2019 05:00:00 1.35 C 5.14 g/m*3 1.35 C 0.26667 km/h
1374 30-10-2019 06:00:00 1.4 C 5.17 g/m*3 1.4 C 0 km/h
1375 30-10-2019 07:00:00 1.45833 C 5.19 g/m*3 1.46 C 0.26667 km/h
Sensor: Nr:Datum:Temp:Abs-Feuchte:Windchill:Wind:
Aussen-T/F 1376 30-10-2019 08:00:00 1.85833 C 5.34 g/m*3 1.86 C 0.26667 km/h
1377 30-10-2019 09:00:00 2.4 C 5.54 g/m*3 2.4 C 0.13333 km/h
1378 30-10-2019 10:00:00 3.69167 C 6.09 g/m*3 3.69 C 0 km/h
1379 30-10-2019 11:00:00 4.94167 C 6.63 g/m*3 4.94 C 0.66667 km/h
1380 30-10-2019 12:00:00 5.71667 C 6.9 g/m*3 5.72 C 0.26667 km/h
1381 30-10-2019 13:00:00 6.63333 C 6.88 g/m*3 6.63 C 2.66667 km/h
1382 30-10-2019 14:00:00 7.58333 C 6.8 g/m*3 7.58 C 2.675 km/h
1383 30-10-2019 15:00:00 7.75 C 6.86 g/m*3 7.75 C 0.4 km/h
1384 30-10-2019 16:00:00 7.01667 C 6.83 g/m*3 7.02 C 0 km/h
1385 30-10-2019 17:00:00 5.76667 C 6.37 g/m*3 5.77 C 0 km/h
1386 30-10-2019 18:00:00 4.46667 C 5.94 g/m*3 4.47 C 0.26667 km/h
1387 30-10-2019 19:00:00 3.8 C 5.77 g/m*3 3.8 C 0 km/h
1388 30-10-2019 20:00:00 3.23333 C 5.64 g/m*3 3.23 C 0.66667 km/h
1389 30-10-2019 21:00:00 2.70833 C 5.5 g/m*3 2.71 C 0.53333 km/h
1390 30-10-2019 22:00:00 2.25 C 5.35 g/m*3 2.25 C 0.13333 km/h
1391 30-10-2019 23:00:00 1.80833 C 5.21 g/m*3 1.81 C 0 km/h
1392 31-10-2019 00:00:00 1.025 C 4.94 g/m*3 1.02 C 0 km/h
1393 31-10-2019 01:00:00 0.89167 C 4.94 g/m*3 0.89 C 0 km/h
1394 31-10-2019 02:00:00 0.53333 C 4.83 g/m*3 0.53 C 0 km/h
1395 31-10-2019 03:00:00 0.28333 C 4.74 g/m*3 0.28 C 0 km/h
1396 31-10-2019 04:00:00 0.06667 C 4.67 g/m*3 0.07 C 0 km/h
1397 31-10-2019 05:00:00 -0.325 C 4.55 g/m*3 -0.33 C 0 km/h
1398 31-10-2019 06:00:00 -0.50833 C 4.49 g/m*3 -0.51 C 0 km/h
1399 31-10-2019 07:00:00 -0.75 C 4.43 g/m*3 -0.75 C 0 km/h
1400 31-10-2019 08:00:00 -0.61667 C 4.48 g/m*3 -0.62 C 0 km/h
Sensor: Nr:Datum:Temp:Abs-Feuchte:Windchill:Wind:
Aussen-T/F 1401 31-10-2019 09:00:00 0.05 C 4.72 g/m*3 0.05 C 0 km/h
1402 31-10-2019 10:00:00 1.13333 C 5.09 g/m*3 1.13 C 0.93333 km/h
1403 31-10-2019 11:00:00 2.85833 C 5.76 g/m*3 2.86 C 0.53333 km/h
1404 31-10-2019 12:00:00 4.16667 C 6.28 g/m*3 4.17 C 1.2 km/h
1405 31-10-2019 13:00:00 5.60833 C 6.68 g/m*3 5.61 C 4.55833 km/h
1406 31-10-2019 14:00:00 7.29167 C 6.65 g/m*3 7.29 C 3.875 km/h
1407 31-10-2019 15:00:00 7.44167 C 6.65 g/m*3 7.44 C 2.54167 km/h
1408 31-10-2019 16:00:00 6.125 C 6.4 g/m*3 6.13 C 1.73333 km/h
1409 31-10-2019 17:00:00 4.63333 C 5.86 g/m*3 4.63 C 0.8 km/h
1410 31-10-2019 18:00:00 3.70833 C 5.55 g/m*3 3.71 C 0 km/h
1411 31-10-2019 19:00:00 3.175 C 5.44 g/m*3 3.18 C 0 km/h
1412 31-10-2019 20:00:00 2.325 C 5.23 g/m*3 2.33 C 0 km/h
1413 31-10-2019 21:00:00 1.71667 C 5.11 g/m*3 1.72 C 0 km/h
1414 31-10-2019 22:00:00 1.48333 C 5.06 g/m*3 1.48 C 0 km/h
1415 31-10-2019 23:00:00 1.30833 C 5.04 g/m*3 1.31 C 0 km/h
1416 01-11-2019 00:00:00 0.88333 C 4.89 g/m*3 0.88 C 0 km/h
1417 01-11-2019 01:00:00 0.6 C 4.81 g/m*3 0.6 C 0 km/h
1418 01-11-2019 02:00:00 0.55833 C 4.83 g/m*3 0.56 C 0 km/h
1419 01-11-2019 03:00:00 0.44167 C 4.8 g/m*3 0.44 C 0 km/h
1420 01-11-2019 04:00:00 1.03333 C 5.02 g/m*3 1.03 C 0 km/h
1421 01-11-2019 05:00:00 2.16667 C 5.45 g/m*3 2.17 C 0 km/h
1422 01-11-2019 06:00:00 2.85833 C 5.71 g/m*3 2.86 C 0 km/h
1423 01-11-2019 07:00:00 3.55 C 5.98 g/m*3 3.55 C 0 km/h
1424 01-11-2019 08:00:00 4.35833 C 6.32 g/m*3 4.36 C 0 km/h
1425 01-11-2019 09:00:00 5.40833 C 6.77 g/m*3 5.41 C 0 km/h
Sensor: Nr:Datum:Temp:Abs-Feuchte:Windchill:Wind:
Aussen-T/F 1426 01-11-2019 10:00:00 6.38333 C 7.22 g/m*3 6.38 C 0.8 km/h
1427 01-11-2019 11:00:00 7.29167 C 7.55 g/m*3 7.29 C 1.86667 km/h
1428 01-11-2019 12:00:00 8.09167 C 7.76 g/m*3 8.09 C 3.35 km/h
1429 01-11-2019 13:00:00 8.53333 C 7.96 g/m*3 8.53 C 1.06667 km/h
1430 01-11-2019 14:00:00 8.73333 C 8.2 g/m*3 8.73 C 1.33333 km/h
1431 01-11-2019 15:00:00 8.7 C 8.27 g/m*3 8.7 C 1.46667 km/h
1432 01-11-2019 16:00:00 8.8 C 8.36 g/m*3 8.8 C 0 km/h
1433 01-11-2019 17:00:00 8.85833 C 8.39 g/m*3 8.86 C 1.2 km/h
1434 01-11-2019 18:00:00 8.86667 C 8.41 g/m*3 8.87 C 0.4 km/h
1435 01-11-2019 19:00:00 8.93333 C 8.52 g/m*3 8.93 C 0 km/h
1436 01-11-2019 20:00:00 9.225 C 8.68 g/m*3 9.23 C 0 km/h
1437 01-11-2019 21:00:00 9.64167 C 8.92 g/m*3 9.64 C 0 km/h
1438 01-11-2019 22:00:00 10.15 C 9.3 g/m*3 10.15 C 0.26667 km/h
1439 01-11-2019 23:00:00 10.525 C 9.52 g/m*3 10.53 C 0 km/h
1440 02-11-2019 00:00:00 11.18333 C 9.92 g/m*3 11.18 C 0 km/h
1441 02-11-2019 01:00:00 11.96667 C 10.42 g/m*3 11.97 C 0.93333 km/h
1442 02-11-2019 02:00:00 12.21667 C 10.59 g/m*3 12.22 C 1.33333 km/h
1443 02-11-2019 03:00:00 12.28333 C 10.63 g/m*3 12.28 C 2.13333 km/h
1444 02-11-2019 04:00:00 12.25 C 10.61 g/m*3 12.25 C 2 km/h
1445 02-11-2019 05:00:00 12.65833 C 10.88 g/m*3 12.66 C 1.46667 km/h
1446 02-11-2019 06:00:00 13.1 C 11.18 g/m*3 13.1 C 2.94167 km/h
1447 02-11-2019 07:00:00 13.48333 C 11.45 g/m*3 13.48 C 0.93333 km/h
1448 02-11-2019 08:00:00 13.84167 C 11.71 g/m*3 13.84 C 2.275 km/h
1449 02-11-2019 09:00:00 14.30833 C 12.03 g/m*3 14.31 C 12.21667 km/h
1450 02-11-2019 10:00:00 14.925 C 11.87 g/m*3 14.93 C 14.625 km/h
Sensor: Nr:Datum:Temp:Abs-Feuchte:Windchill:Wind:
Aussen-T/F 1451 02-11-2019 11:00:00 15.74167 C 11.57 g/m*3 15.74 C 16.5 km/h
1452 02-11-2019 12:00:00 16.15833 C 11.05 g/m*3 16.16 C 20.23333 km/h
1453 02-11-2019 13:00:00 16.04167 C 10.29 g/m*3 16.04 C 15.03333 km/h
1454 02-11-2019 14:00:00 15.8 C 10.01 g/m*3 15.8 C 10.35833 km/h
1455 02-11-2019 15:00:00 15.10833 C 9.97 g/m*3 15.11 C 5.35833 km/h
1456 02-11-2019 16:00:00 14.55833 C 9.75 g/m*3 14.56 C 8.06667 km/h
1457 02-11-2019 17:00:00 13.78333 C 9.71 g/m*3 13.78 C 11.28333 km/h
1458 02-11-2019 18:00:00 11.90833 C 9.55 g/m*3 11.91 C 2.66667 km/h
1459 02-11-2019 19:00:00 11.425 C 9.44 g/m*3 11.43 C 2.13333 km/h
1460 02-11-2019 20:00:00 11.30833 C 9.3 g/m*3 11.31 C 4.01667 km/h
1461 02-11-2019 21:00:00 11.15 C 8.96 g/m*3 11.15 C 4.55 km/h
1462 02-11-2019 22:00:00 10.98333 C 8.84 g/m*3 10.98 C 1.06667 km/h
1463 02-11-2019 23:00:00 10.56667 C 8.68 g/m*3 10.57 C 3.625 km/h
1464 03-11-2019 00:00:00 10.475 C 8.55 g/m*3 10.48 C 0.53333 km/h
1465 03-11-2019 01:00:00 10.41667 C 8.7 g/m*3 10.42 C 0.4 km/h
1466 03-11-2019 02:00:00 10.03333 C 8.62 g/m*3 10.03 C 0.26667 km/h
1467 03-11-2019 03:00:00 10 C 8.75 g/m*3 10 C 0.8 km/h
1468 03-11-2019 04:00:00 10.26667 C 9.02 g/m*3 10.27 C 0.66667 km/h
1469 03-11-2019 05:00:00 10.25 C 9.07 g/m*3 10.25 C 0.8 km/h
1470 03-11-2019 06:00:00 10.3 C 9.19 g/m*3 10.3 C 0 km/h
1471 03-11-2019 07:00:00 10.325 C 9.21 g/m*3 10.33 C 0 km/h
1472 03-11-2019 08:00:00 10.48333 C 9.37 g/m*3 10.48 C 0 km/h
1473 03-11-2019 09:00:00 11.3 C 9.89 g/m*3 11.3 C 0 km/h
1474 03-11-2019 10:00:00 12.26667 C 10.36 g/m*3 12.27 C 0.93333 km/h
1475 03-11-2019 11:00:00 13.53333 C 10.65 g/m*3 13.53 C 2.675 km/h
Sensor: Nr:Datum:Temp:Abs-Feuchte:Windchill:Wind:
Aussen-T/F 1476 03-11-2019 12:00:00 14.85 C 10.6 g/m*3 14.85 C 4.55 km/h
1477 03-11-2019 13:00:00 15.39167 C 10.7 g/m*3 15.39 C 6.30833 km/h
1478 03-11-2019 14:00:00 15.46667 C 10.78 g/m*3 15.47 C 5.08333 km/h
1479 03-11-2019 15:00:00 14.81667 C 10.57 g/m*3 14.82 C 6.83333 km/h
1480 03-11-2019 16:00:00 14.00833 C 10.41 g/m*3 14.01 C 2 km/h
1481 03-11-2019 17:00:00 13.00833 C 10.25 g/m*3 13.01 C 0.4 km/h
1482 03-11-2019 18:00:00 12.35833 C 10.22 g/m*3 12.36 C 0.13333 km/h
1483 03-11-2019 19:00:00 11.71667 C 9.95 g/m*3 11.72 C 0.53333 km/h
1484 03-11-2019 20:00:00 11.075 C 9.63 g/m*3 11.08 C 0.53333 km/h
1485 03-11-2019 21:00:00 10.75833 C 9.46 g/m*3 10.76 C 1.46667 km/h
1486 03-11-2019 22:00:00 10.7 C 9.43 g/m*3 10.7 C 0.8 km/h
1487 03-11-2019 23:00:00 10.60833 C 9.37 g/m*3 10.61 C 4.96667 km/h
1488 04-11-2019 00:00:00 11.075 C 9.31 g/m*3 11.08 C 10.475 km/h
1489 04-11-2019 01:00:00 11.025 C 9.11 g/m*3 11.03 C 6.44167 km/h
1490 04-11-2019 02:00:00 10.15833 C 8.79 g/m*3 10.16 C 2.00833 km/h
1491 04-11-2019 03:00:00 9.9 C 8.78 g/m*3 9.9 C 1.61667 km/h
1492 04-11-2019 04:00:00 10.18333 C 9.03 g/m*3 10.18 C 2.13333 km/h
1493 04-11-2019 05:00:00 10.38333 C 9.12 g/m*3 9.94 C 5.9 km/h
1494 04-11-2019 06:00:00 9.79167 C 8.76 g/m*3 9.79 C 2.8 km/h
1495 04-11-2019 07:00:00 9.26667 C 8.51 g/m*3 9.27 C 2.66667 km/h
1496 04-11-2019 08:00:00 9.5 C 8.69 g/m*3 9.5 C 0.13333 km/h
1497 04-11-2019 09:00:00 10.00833 C 8.83 g/m*3 10.01 C 1.475 km/h
1498 04-11-2019 10:00:00 10.875 C 9.14 g/m*3 10.88 C 1.73333 km/h
1499 04-11-2019 11:00:00 10.91667 C 9.26 g/m*3 10.92 C 1.33333 km/h
1500 04-11-2019 12:00:00 11.25 C 9.46 g/m*3 11.25 C 1.86667 km/h
Sensor: Nr:Datum:Temp:Abs-Feuchte:Windchill:Wind:
Aussen-T/F 1501 04-11-2019 13:00:00 12.025 C 9.75 g/m*3 12.03 C 5.23333 km/h
1502 04-11-2019 14:00:00 12.58333 C 9.58 g/m*3 12.58 C 13.56667 km/h
1503 04-11-2019 15:00:00 12.625 C 9.37 g/m*3 12.63 C 6.31667 km/h
1504 04-11-2019 16:00:00 11.44167 C 9.06 g/m*3 11.44 C 0.93333 km/h
1505 04-11-2019 17:00:00 10.275 C 8.76 g/m*3 10.28 C 0.66667 km/h
1506 04-11-2019 18:00:00 9.60833 C 8.5 g/m*3 9.61 C 0 km/h
1507 04-11-2019 19:00:00 9.18333 C 8.43 g/m*3 9.18 C 0.94167 km/h
1508 04-11-2019 20:00:00 9.5 C 8.71 g/m*3 9.5 C 0 km/h
1509 04-11-2019 21:00:00 9.24167 C 8.58 g/m*3 9.24 C 0.13333 km/h
1510 04-11-2019 22:00:00 8.29167 C 8.07 g/m*3 8.29 C 0.4 km/h
1511 04-11-2019 23:00:00 8.89167 C 8.48 g/m*3 8.42 C 5.24167 km/h
1512 05-11-2019 00:00:00 9.275 C 8.49 g/m*3 9.28 C 4.275 km/h
1513 05-11-2019 01:00:00 9.14167 C 8.29 g/m*3 9.14 C 3.74167 km/h
1514 05-11-2019 02:00:00 9.225 C 8.34 g/m*3 9.23 C 1.875 km/h
1515 05-11-2019 03:00:00 9.40833 C 8.27 g/m*3 8.9 C 5.625 km/h
1516 05-11-2019 04:00:00 9.46667 C 8.14 g/m*3 9.47 C 4.40833 km/h
1517 05-11-2019 05:00:00 9.525 C 8.15 g/m*3 9.53 C 4.95833 km/h
1518 05-11-2019 06:00:00 9.25 C 8.13 g/m*3 9.25 C 4.14167 km/h
1519 05-11-2019 07:00:00 9.15833 C 8.1 g/m*3 9.16 C 1.86667 km/h
1520 05-11-2019 08:00:00 8.95833 C 8.07 g/m*3 8.96 C 2.675 km/h
1521 05-11-2019 09:00:00 9.45833 C 8.15 g/m*3 9.46 C 2.26667 km/h
1522 05-11-2019 10:00:00 10.48333 C 8.33 g/m*3 10.48 C 3.625 km/h
1523 05-11-2019 11:00:00 11.225 C 8.32 g/m*3 11.23 C 5.5 km/h
1524 05-11-2019 12:00:00 11.83333 C 8.23 g/m*3 11.83 C 9.275 km/h
1525 05-11-2019 13:00:00 11.89167 C 8.41 g/m*3 11.89 C 4.68333 km/h
Sensor: Nr:Datum:Temp:Abs-Feuchte:Windchill:Wind:
Aussen-T/F 1526 05-11-2019 14:00:00 12.06667 C 8.62 g/m*3 12.07 C 1.86667 km/h
1527 05-11-2019 15:00:00 11.875 C 8.69 g/m*3 11.88 C 2.14167 km/h
1528 05-11-2019 16:00:00 10.85833 C 8.62 g/m*3 10.86 C 0 km/h
1529 05-11-2019 17:00:00 9.85833 C 8.46 g/m*3 9.86 C 0.13333 km/h
1530 05-11-2019 18:00:00 9.025 C 8.18 g/m*3 9.03 C 0 km/h
1531 05-11-2019 19:00:00 8.54167 C 8.03 g/m*3 8.54 C 0.13333 km/h
1532 05-11-2019 20:00:00 8.425 C 8.02 g/m*3 8.43 C 0.13333 km/h
1533 05-11-2019 21:00:00 7.95833 C 7.83 g/m*3 7.96 C 0 km/h
1534 05-11-2019 22:00:00 8.00833 C 7.88 g/m*3 8.01 C 0 km/h
1535 05-11-2019 23:00:00 8.11667 C 8 g/m*3 8.12 C 0 km/h
1536 06-11-2019 00:00:00 8.2 C 8.04 g/m*3 8.2 C 0 km/h
1537 06-11-2019 01:00:00 8.2 C 8.04 g/m*3 8.2 C 1.06667 km/h
1538 06-11-2019 02:00:00 8.175 C 8.05 g/m*3 8.18 C 0.26667 km/h
1539 06-11-2019 03:00:00 7.79167 C 7.83 g/m*3 7.79 C 0.13333 km/h
1540 06-11-2019 04:00:00 7.45 C 7.7 g/m*3 7.45 C 0 km/h
1541 06-11-2019 05:00:00 7.49167 C 7.76 g/m*3 7.49 C 0.26667 km/h
1542 06-11-2019 06:00:00 7.65 C 7.84 g/m*3 7.65 C 0.4 km/h
1543 06-11-2019 07:00:00 7.65 C 7.84 g/m*3 7.65 C 0.13333 km/h
1544 06-11-2019 08:00:00 7.975 C 8.01 g/m*3 7.98 C 0.53333 km/h
1545 06-11-2019 09:00:00 8.81667 C 8.42 g/m*3 8.82 C 4.15 km/h
1546 06-11-2019 10:00:00 9.68333 C 8.51 g/m*3 8.83 C 7.13333 km/h
1547 06-11-2019 11:00:00 10.15 C 8.71 g/m*3 9.64 C 6.025 km/h
1548 06-11-2019 12:00:00 10.35 C 8.85 g/m*3 9.87 C 6.03333 km/h
1549 06-11-2019 13:00:00 10.6 C 8.84 g/m*3 9.76 C 7.78333 km/h
1550 06-11-2019 14:00:00 10.43333 C 8.83 g/m*3 10.43 C 4.40833 km/h
Sensor: Nr:Datum:Temp:Abs-Feuchte:Windchill:Wind:
Aussen-T/F 1551 06-11-2019 15:00:00 10.24167 C 8.91 g/m*3 10.24 C 0.66667 km/h
1552 06-11-2019 16:00:00 10 C 8.84 g/m*3 10 C 0.13333 km/h
1553 06-11-2019 17:00:00 9.68333 C 8.75 g/m*3 9.68 C 0 km/h
1554 06-11-2019 18:00:00 9.6 C 8.77 g/m*3 9.6 C 0 km/h
1555 06-11-2019 19:00:00 9.40833 C 8.69 g/m*3 9.41 C 0 km/h
1556 06-11-2019 20:00:00 9.13333 C 8.54 g/m*3 9.13 C 0 km/h
1557 06-11-2019 21:00:00 8.975 C 8.51 g/m*3 8.98 C 0 km/h
1558 06-11-2019 22:00:00 8.9 C 8.42 g/m*3 8.9 C 0 km/h
1559 06-11-2019 23:00:00 8.85833 C 8.47 g/m*3 8.86 C 0.53333 km/h
1560 07-11-2019 00:00:00 8.51667 C 8.29 g/m*3 8.52 C 0 km/h
1561 07-11-2019 01:00:00 8.06667 C 8.05 g/m*3 8.07 C 0 km/h
1562 07-11-2019 02:00:00 7.98333 C 8.01 g/m*3 7.98 C 0 km/h
1563 07-11-2019 03:00:00 7.91667 C 7.98 g/m*3 7.92 C 0 km/h
1564 07-11-2019 04:00:00 7.49167 C 7.76 g/m*3 7.49 C 0 km/h
1565 07-11-2019 05:00:00 7.55 C 7.79 g/m*3 7.55 C 0.4 km/h
1566 07-11-2019 06:00:00 7.375 C 7.7 g/m*3 7.38 C 0 km/h
1567 07-11-2019 07:00:00 7.59167 C 7.84 g/m*3 7.59 C 0.4 km/h
1568 07-11-2019 08:00:00 8.24167 C 8.23 g/m*3 8.24 C 0.26667 km/h
1569 07-11-2019 09:00:00 8.875 C 8.57 g/m*3 8.88 C 1.06667 km/h
1570 07-11-2019 10:00:00 9.29167 C 8.77 g/m*3 9.29 C 3.35 km/h
1571 07-11-2019 11:00:00 9.39167 C 8.69 g/m*3 9.39 C 2.8 km/h
1572 07-11-2019 12:00:00 9.31667 C 8.52 g/m*3 9.32 C 2.95 km/h
1573 07-11-2019 13:00:00 9.625 C 8.55 g/m*3 9.63 C 4.00833 km/h
1574 07-11-2019 14:00:00 9.375 C 8.35 g/m*3 9.38 C 4.41667 km/h
1575 07-11-2019 15:00:00 9.76667 C 8.64 g/m*3 9.77 C 4.41667 km/h
Sensor: Nr:Datum:Temp:Abs-Feuchte:Windchill:Wind:
Aussen-T/F 1576 07-11-2019 16:00:00 9.65 C 8.24 g/m*3 7.67 C 13.55833 km/h
1577 07-11-2019 17:00:00 8.55833 C 7.73 g/m*3 7.46 C 7.38333 km/h
1578 07-11-2019 18:00:00 7.24167 C 7.22 g/m*3 7.24 C 1.075 km/h
1579 07-11-2019 19:00:00 6.76667 C 7.21 g/m*3 6.77 C 0.8 km/h
1580 07-11-2019 20:00:00 6.18333 C 6.96 g/m*3 6.18 C 0.4 km/h
1581 07-11-2019 21:00:00 5.65833 C 6.77 g/m*3 5.66 C 0.13333 km/h
1582 07-11-2019 22:00:00 5.00833 C 6.51 g/m*3 5.01 C 0 km/h
1583 07-11-2019 23:00:00 5.025 C 6.56 g/m*3 5.03 C 0.26667 km/h
1584 08-11-2019 00:00:00 4.675 C 6.38 g/m*3 4.68 C 0.26667 km/h
1585 08-11-2019 01:00:00 4.24167 C 6.2 g/m*3 4.24 C 0.26667 km/h
1586 08-11-2019 02:00:00 3.28333 C 5.82 g/m*3 3.28 C 0 km/h
1587 08-11-2019 03:00:00 3.1 C 5.79 g/m*3 3.1 C 0 km/h
1588 08-11-2019 04:00:00 2.75833 C 5.66 g/m*3 2.76 C 0 km/h
1589 08-11-2019 05:00:00 2.34167 C 5.52 g/m*3 2.34 C 0 km/h
1590 08-11-2019 06:00:00 2.31667 C 5.51 g/m*3 2.32 C 0 km/h
1591 08-11-2019 07:00:00 2.35 C 5.52 g/m*3 2.35 C 0 km/h
1592 08-11-2019 08:00:00 3.05 C 5.81 g/m*3 3.05 C 0 km/h
1593 08-11-2019 09:00:00 3.78333 C 6.1 g/m*3 3.78 C 0.53333 km/h
1594 08-11-2019 10:00:00 4.43333 C 6.4 g/m*3 4.43 C 0.4 km/h
1595 08-11-2019 11:00:00 5.15833 C 6.73 g/m*3 5.16 C 0.8 km/h
1596 08-11-2019 12:00:00 6 C 7.11 g/m*3 6 C 0.8 km/h
1597 08-11-2019 13:00:00 6.8 C 7.44 g/m*3 6.8 C 0.13333 km/h
1598 08-11-2019 14:00:00 7.44167 C 7.63 g/m*3 7.44 C 1.86667 km/h
1599 08-11-2019 15:00:00 7.73333 C 7.71 g/m*3 7.73 C 0 km/h
1600 08-11-2019 16:00:00 7.61667 C 7.63 g/m*3 7.62 C 0 km/h
Sensor: Nr:Datum:Temp:Abs-Feuchte:Windchill:Wind:
Aussen-T/F 1601 08-11-2019 17:00:00 6.85833 C 7.29 g/m*3 6.86 C 0 km/h
1602 08-11-2019 18:00:00 6.65 C 7.26 g/m*3 6.65 C 0 km/h
1603 08-11-2019 19:00:00 6.475 C 7.19 g/m*3 6.48 C 0 km/h
1604 08-11-2019 20:00:00 6.21667 C 7.07 g/m*3 6.22 C 0 km/h
1605 08-11-2019 21:00:00 5.7 C 6.83 g/m*3 5.7 C 0 km/h
1606 08-11-2019 22:00:00 5.39167 C 6.76 g/m*3 5.39 C 0.26667 km/h
1607 08-11-2019 23:00:00 5.49167 C 6.81 g/m*3 5.49 C 2.53333 km/h
1608 09-11-2019 00:00:00 5.34167 C 6.74 g/m*3 4.34 C 5.35 km/h
1609 09-11-2019 01:00:00 5.15833 C 6.66 g/m*3 4.18 C 5.225 km/h
1610 09-11-2019 02:00:00 5.1 C 6.63 g/m*3 3.79 C 6.15833 km/h
1611 09-11-2019 03:00:00 5.125 C 6.65 g/m*3 5.13 C 3.33333 km/h
1612 09-11-2019 04:00:00 4.96667 C 6.58 g/m*3 4.97 C 1.46667 km/h
1613 09-11-2019 05:00:00 4.78333 C 6.51 g/m*3 4.78 C 3.075 km/h
1614 09-11-2019 06:00:00 4.45 C 6.32 g/m*3 3.13 C 5.9 km/h
1615 09-11-2019 07:00:00 3.44167 C 5.88 g/m*3 3.44 C 0.8 km/h
1616 09-11-2019 08:00:00 3.29167 C 5.86 g/m*3 3.29 C 0.13333 km/h
1617 09-11-2019 09:00:00 4.53333 C 6.37 g/m*3 3.46 C 5.25 km/h
1618 09-11-2019 10:00:00 5.65833 C 6.55 g/m*3 3.11 C 11.7 km/h
1619 09-11-2019 11:00:00 5.91667 C 6.56 g/m*3 3.82 C 9.68333 km/h
1620 09-11-2019 12:00:00 6.375 C 6.66 g/m*3 4.51 C 9.00833 km/h
1621 09-11-2019 13:00:00 7.04167 C 6.76 g/m*3 5.39 C 8.59167 km/h
1622 09-11-2019 14:00:00 6.93333 C 6.77 g/m*3 5.67 C 6.96667 km/h
1623 09-11-2019 15:00:00 6.68333 C 6.88 g/m*3 6.68 C 3.20833 km/h
1624 09-11-2019 16:00:00 6.56667 C 6.94 g/m*3 6.57 C 1.33333 km/h
1625 09-11-2019 17:00:00 6.175 C 6.83 g/m*3 6.18 C 0.26667 km/h
Sensor: Nr:Datum:Temp:Abs-Feuchte:Windchill:Wind:
Aussen-T/F 1626 09-11-2019 18:00:00 5.375 C 6.48 g/m*3 5.38 C 0.13333 km/h
1627 09-11-2019 19:00:00 4.875 C 6.35 g/m*3 4.88 C 2.00833 km/h
1628 09-11-2019 20:00:00 4.03333 C 5.94 g/m*3 4.03 C 0 km/h
1629 09-11-2019 21:00:00 3.25833 C 5.73 g/m*3 3.26 C 0 km/h
1630 09-11-2019 22:00:00 2.725 C 5.56 g/m*3 2.73 C 0 km/h
1631 09-11-2019 23:00:00 1.99167 C 5.28 g/m*3 1.99 C 0 km/h
1632 10-11-2019 00:00:00 1.25833 C 5.05 g/m*3 1.26 C 0 km/h
1633 10-11-2019 01:00:00 1.31667 C 5.11 g/m*3 1.32 C 0 km/h
1634 10-11-2019 02:00:00 1.65833 C 5.24 g/m*3 1.66 C 0 km/h
1635 10-11-2019 03:00:00 1.59167 C 5.24 g/m*3 1.59 C 0.53333 km/h
1636 10-11-2019 04:00:00 1.28333 C 5.13 g/m*3 1.28 C 0.8 km/h
1637 10-11-2019 05:00:00 1.38333 C 5.17 g/m*3 1.38 C 0 km/h
1638 10-11-2019 06:00:00 1.70833 C 5.28 g/m*3 1.71 C 2.93333 km/h
1639 10-11-2019 07:00:00 1.61667 C 5.25 g/m*3 1.62 C 1.86667 km/h
1640 10-11-2019 08:00:00 1.81667 C 5.35 g/m*3 1.82 C 0.53333 km/h
1641 10-11-2019 09:00:00 2.25 C 5.52 g/m*3 2.25 C 0.66667 km/h
1642 10-11-2019 10:00:00 2.66667 C 5.7 g/m*3 2.67 C 0.93333 km/h
1643 10-11-2019 11:00:00 3.2 C 5.91 g/m*3 3.2 C 2.26667 km/h
1644 10-11-2019 12:00:00 3.4 C 5.91 g/m*3 2.24 C 5.075 km/h
1645 10-11-2019 13:00:00 3.86667 C 5.99 g/m*3 3.87 C 4.26667 km/h
1646 10-11-2019 14:00:00 4.29167 C 6.06 g/m*3 4.29 C 3.2 km/h
1647 10-11-2019 15:00:00 4.65833 C 6.17 g/m*3 4.66 C 1.86667 km/h
1648 10-11-2019 16:00:00 4.58333 C 6.08 g/m*3 4.58 C 1.46667 km/h
1649 10-11-2019 17:00:00 4.35833 C 6.06 g/m*3 4.36 C 1.2 km/h
1650 10-11-2019 18:00:00 4.275 C 6.07 g/m*3 4.28 C 1.2 km/h
Sensor: Nr:Datum:Temp:Abs-Feuchte:Windchill:Wind:
Aussen-T/F 1651 10-11-2019 19:00:00 4.15 C 6.04 g/m*3 4.15 C 1.6 km/h
1652 10-11-2019 20:00:00 4.25 C 6.14 g/m*3 4.25 C 0.26667 km/h
1653 10-11-2019 21:00:00 4.3 C 6.16 g/m*3 4.3 C 0.26667 km/h
1654 10-11-2019 22:00:00 4.275 C 6.15 g/m*3 4.28 C 0 km/h
1655 10-11-2019 23:00:00 4.36667 C 6.14 g/m*3 4.37 C 0.53333 km/h
1656 11-11-2019 00:00:00 4.25833 C 6.03 g/m*3 4.26 C 0.93333 km/h
1657 11-11-2019 01:00:00 3.85 C 5.84 g/m*3 3.85 C 2.53333 km/h
1658 11-11-2019 02:00:00 3.58333 C 5.75 g/m*3 3.58 C 0.4 km/h
1659 11-11-2019 03:00:00 3.30833 C 5.65 g/m*3 3.31 C 2.4 km/h
1660 11-11-2019 04:00:00 3.14167 C 5.58 g/m*3 3.14 C 1.06667 km/h
1661 11-11-2019 05:00:00 3.23333 C 5.64 g/m*3 3.23 C 0.4 km/h
1662 11-11-2019 06:00:00 3.3 C 5.66 g/m*3 3.3 C 0 km/h
1663 11-11-2019 07:00:00 3.39167 C 5.74 g/m*3 3.39 C 0.53333 km/h
1664 11-11-2019 08:00:00 4.16667 C 5.97 g/m*3 2.66 C 6.3 km/h
1665 11-11-2019 09:00:00 4.98333 C 6.13 g/m*3 3.17 C 7.79167 km/h
1666 11-11-2019 10:00:00 5.24167 C 6.15 g/m*3 3.62 C 7.24167 km/h
1667 11-11-2019 11:00:00 5.54167 C 6.22 g/m*3 3.97 C 7.25 km/h
1668 11-11-2019 12:00:00 6.025 C 6.32 g/m*3 4.57 C 7.11667 km/h
1669 11-11-2019 13:00:00 6.425 C 6.42 g/m*3 5.48 C 5.625 km/h
1670 11-11-2019 14:00:00 6.11667 C 6.33 g/m*3 4.76 C 6.83333 km/h
1671 11-11-2019 15:00:00 5.61667 C 6.28 g/m*3 4.75 C 5.08333 km/h
1672 11-11-2019 16:00:00 5.25833 C 6.22 g/m*3 4.1 C 5.75833 km/h
1673 11-11-2019 17:00:00 5.09167 C 6.15 g/m*3 3.6 C 6.71667 km/h
1674 11-11-2019 18:00:00 4.85833 C 6.1 g/m*3 4.86 C 4.14167 km/h
1675 11-11-2019 19:00:00 4.83333 C 6.22 g/m*3 4.83 C 0.8 km/h
Sensor: Nr:Datum:Temp:Abs-Feuchte:Windchill:Wind:
Aussen-T/F 1676 11-11-2019 20:00:00 4.8 C 6.3 g/m*3 4.8 C 0.13333 km/h
1677 11-11-2019 21:00:00 4.975 C 6.44 g/m*3 4.97 C 1.06667 km/h
1678 11-11-2019 22:00:00 5.13333 C 6.51 g/m*3 5.13 C 1.06667 km/h
1679 11-11-2019 23:00:00 5.18333 C 6.6 g/m*3 5.18 C 0.13333 km/h
1680 12-11-2019 00:00:00 5.05 C 6.53 g/m*3 5.05 C 0.13333 km/h
1681 12-11-2019 01:00:00 5.05 C 6.54 g/m*3 4.05 C 5.23333 km/h
1682 12-11-2019 02:00:00 5.375 C 6.55 g/m*3 5.38 C 3.21667 km/h
1683 12-11-2019 03:00:00 5.475 C 6.47 g/m*3 5.48 C 3.48333 km/h
1684 12-11-2019 04:00:00 5.6 C 6.45 g/m*3 5.6 C 2.275 km/h
1685 12-11-2019 05:00:00 5.45833 C 6.41 g/m*3 5.46 C 1.06667 km/h
1686 12-11-2019 06:00:00 5.375 C 6.4 g/m*3 5.38 C 2.26667 km/h
1687 12-11-2019 07:00:00 5.7 C 6.39 g/m*3 5.7 C 2.4 km/h
1688 12-11-2019 08:00:00 5.88333 C 6.42 g/m*3 5.88 C 2 km/h
1689 12-11-2019 09:00:00 6.58333 C 6.53 g/m*3 6.58 C 2.94167 km/h
1690 12-11-2019 10:00:00 7.66667 C 6.68 g/m*3 6.7 C 6.3 km/h
1691 12-11-2019 11:00:00 8.03333 C 6.79 g/m*3 6.34 C 9.7 km/h
1692 12-11-2019 12:00:00 7.91667 C 6.89 g/m*3 5.25 C 15.7 km/h
1693 12-11-2019 13:00:00 7.73333 C 6.67 g/m*3 4.97 C 16.1 km/h
1694 12-11-2019 14:00:00 7.76667 C 6.55 g/m*3 5.68 C 11.55833 km/h
1695 12-11-2019 15:00:00 7.75833 C 6.52 g/m*3 5.99 C 9.81667 km/h
1696 12-11-2019 16:00:00 7.31667 C 6.41 g/m*3 5.6 C 9.14167 km/h
1697 12-11-2019 17:00:00 6.60833 C 6.23 g/m*3 5.78 C 5.35833 km/h
1698 12-11-2019 18:00:00 5.85 C 6.26 g/m*3 5.85 C 0.53333 km/h
1699 12-11-2019 19:00:00 4.65833 C 5.93 g/m*3 4.66 C 0 km/h
1700 12-11-2019 20:00:00 3.29167 C 5.55 g/m*3 3.29 C 0.13333 km/h
Sensor: Nr:Datum:Temp:Abs-Feuchte:Windchill:Wind:
Aussen-T/F 1701 12-11-2019 21:00:00 3.23333 C 5.65 g/m*3 3.23 C 0.4 km/h
1702 12-11-2019 22:00:00 3.85 C 5.94 g/m*3 3.85 C 2.4 km/h
1703 12-11-2019 23:00:00 4.66667 C 6.06 g/m*3 4.67 C 3.21667 km/h
1704 13-11-2019 00:00:00 4.89167 C 5.98 g/m*3 4.89 C 1.6 km/h
1705 13-11-2019 01:00:00 4.65833 C 5.91 g/m*3 4.66 C 0.26667 km/h
1706 13-11-2019 02:00:00 3.33333 C 5.52 g/m*3 3.33 C 0.8 km/h
1707 13-11-2019 03:00:00 4.14167 C 5.76 g/m*3 4.14 C 2.81667 km/h
1708 13-11-2019 04:00:00 4.48333 C 5.82 g/m*3 4.48 C 0.93333 km/h
1709 13-11-2019 05:00:00 4.53333 C 5.87 g/m*3 4.53 C 0.66667 km/h
1710 13-11-2019 06:00:00 4.50833 C 5.89 g/m*3 4.51 C 0.53333 km/h
1711 13-11-2019 07:00:00 4.16667 C 5.82 g/m*3 4.17 C 0 km/h
1712 13-11-2019 08:00:00 4.58333 C 5.99 g/m*3 4.58 C 0.4 km/h
1713 13-11-2019 09:00:00 5.43333 C 6.19 g/m*3 4 C 6.725 km/h
1714 13-11-2019 10:00:00 6.01667 C 6.27 g/m*3 4.97 C 5.75833 km/h
1715 13-11-2019 11:00:00 6.30833 C 6.36 g/m*3 4.37 C 9.28333 km/h
1716 13-11-2019 12:00:00 6.81667 C 6.46 g/m*3 4.73 C 10.48333 km/h
1717 13-11-2019 13:00:00 6.775 C 6.44 g/m*3 5.17 C 8.20833 km/h
1718 13-11-2019 14:00:00 6.65 C 6.48 g/m*3 4.69 C 9.68333 km/h
1719 13-11-2019 15:00:00 6.69167 C 6.52 g/m*3 5.11 C 8.04167 km/h
1720 13-11-2019 16:00:00 6.6 C 6.52 g/m*3 5.68 C 5.625 km/h
1721 13-11-2019 17:00:00 6.41667 C 6.49 g/m*3 6.42 C 1.33333 km/h
1722 13-11-2019 18:00:00 6.35 C 6.51 g/m*3 6.35 C 0.26667 km/h
1723 13-11-2019 19:00:00 6.225 C 6.53 g/m*3 6.23 C 2.53333 km/h
1724 13-11-2019 20:00:00 6.26667 C 6.51 g/m*3 6.27 C 4.15 km/h
1725 13-11-2019 21:00:00 5.9 C 6.44 g/m*3 5.9 C 0 km/h
Sensor: Nr:Datum:Temp:Abs-Feuchte:Windchill:Wind:
Aussen-T/F 1726 13-11-2019 22:00:00 5.025 C 6.18 g/m*3 5.03 C 0.53333 km/h
1727 13-11-2019 23:00:00 4.60833 C 6.09 g/m*3 4.61 C 0.26667 km/h
1728 14-11-2019 00:00:00 4.95 C 6.32 g/m*3 4.95 C 0.26667 km/h
1729 14-11-2019 01:00:00 4.81667 C 6.23 g/m*3 4.82 C 1.06667 km/h
1730 14-11-2019 02:00:00 4.8 C 6.32 g/m*3 4.8 C 0.26667 km/h
1731 14-11-2019 03:00:00 5.425 C 6.56 g/m*3 5.43 C 1.73333 km/h
1732 14-11-2019 04:00:00 5.69167 C 6.56 g/m*3 5.69 C 1.46667 km/h
1733 14-11-2019 05:00:00 4.84167 C 6.26 g/m*3 4.84 C 0 km/h
1734 14-11-2019 06:00:00 4.70833 C 6.28 g/m*3 4.71 C 0.8 km/h
1735 14-11-2019 07:00:00 5.25833 C 6.3 g/m*3 4.34 C 5.09167 km/h
1736 14-11-2019 08:00:00 5.28333 C 6.17 g/m*3 5.28 C 3.46667 km/h
1737 14-11-2019 09:00:00 5.64167 C 6.2 g/m*3 5.64 C 4 km/h
1738 14-11-2019 10:00:00 6.68333 C 6.33 g/m*3 6.68 C 4.55 km/h
1739 14-11-2019 11:00:00 7.86667 C 6.26 g/m*3 7.17 C 5.49167 km/h
1740 14-11-2019 12:00:00 8.725 C 6.09 g/m*3 7.78 C 6.84167 km/h
1741 14-11-2019 13:00:00 8.68333 C 6.07 g/m*3 8.68 C 4.53333 km/h
1742 14-11-2019 14:00:00 9.01667 C 5.98 g/m*3 9.02 C 4.825 km/h
1743 14-11-2019 15:00:00 8.2 C 6.17 g/m*3 8.2 C 1.2 km/h
1744 14-11-2019 16:00:00 6.66667 C 6.05 g/m*3 6.67 C 0 km/h
1745 14-11-2019 17:00:00 4.96667 C 5.66 g/m*3 4.97 C 0.53333 km/h
1746 14-11-2019 18:00:00 4.48333 C 5.6 g/m*3 4.48 C 0.66667 km/h
1747 14-11-2019 19:00:00 3.86667 C 5.46 g/m*3 3.87 C 0 km/h
1748 14-11-2019 20:00:00 3.45 C 5.44 g/m*3 3.45 C 0.13333 km/h
1749 14-11-2019 21:00:00 2.86667 C 5.32 g/m*3 2.87 C 0 km/h
1750 14-11-2019 22:00:00 2.55833 C 5.32 g/m*3 2.56 C 0 km/h
Sensor: Nr:Datum:Temp:Abs-Feuchte:Windchill:Wind:
Aussen-T/F 1751 14-11-2019 23:00:00 2.725 C 5.44 g/m*3 2.73 C 0 km/h
1752 15-11-2019 00:00:00 2.975 C 5.57 g/m*3 2.98 C 0 km/h
1753 15-11-2019 01:00:00 3.43333 C 5.73 g/m*3 3.43 C 0 km/h
1754 15-11-2019 02:00:00 3.43333 C 5.69 g/m*3 3.43 C 0.13333 km/h
1755 15-11-2019 03:00:00 3.4 C 5.63 g/m*3 3.4 C 0.4 km/h
1756 15-11-2019 04:00:00 3.36667 C 5.59 g/m*3 3.37 C 2.4 km/h
1757 15-11-2019 05:00:00 3.53333 C 5.56 g/m*3 3.53 C 0.8 km/h
1758 15-11-2019 06:00:00 3.89167 C 5.55 g/m*3 3.89 C 4.29167 km/h
1759 15-11-2019 07:00:00 3.88333 C 5.52 g/m*3 3.88 C 2.66667 km/h
1760 15-11-2019 08:00:00 4.05833 C 5.58 g/m*3 4.06 C 1.88333 km/h
1761 15-11-2019 09:00:00 4.275 C 5.67 g/m*3 4.28 C 1.74167 km/h
1762 15-11-2019 10:00:00 5.38333 C 5.82 g/m*3 5.38 C 3.2 km/h
1763 15-11-2019 11:00:00 5.86667 C 5.88 g/m*3 5.03 C 5.1 km/h
1764 15-11-2019 12:00:00 6.55 C 6.08 g/m*3 6.55 C 3.35 km/h
1765 15-11-2019 13:00:00 7.05 C 6.26 g/m*3 7.05 C 1.06667 km/h
1766 15-11-2019 14:00:00 7.68333 C 6.42 g/m*3 7.68 C 2.13333 km/h
1767 15-11-2019 15:00:00 7.875 C 6.45 g/m*3 7.88 C 2.26667 km/h
1768 15-11-2019 16:00:00 6.54167 C 6.22 g/m*3 6.54 C 0.13333 km/h
1769 15-11-2019 17:00:00 4.75833 C 5.93 g/m*3 4.76 C 0 km/h
1770 15-11-2019 18:00:00 4.63333 C 6.01 g/m*3 4.63 C 0.26667 km/h
1771 15-11-2019 19:00:00 4.50833 C 6.02 g/m*3 4.51 C 0 km/h
1772 15-11-2019 20:00:00 4.2 C 5.93 g/m*3 4.2 C 0 km/h
1773 15-11-2019 21:00:00 4.05 C 5.93 g/m*3 4.05 C 0 km/h
1774 15-11-2019 22:00:00 3.70833 C 5.81 g/m*3 3.71 C 0 km/h
1775 15-11-2019 23:00:00 3.49167 C 5.77 g/m*3 3.49 C 0 km/h
Sensor: Nr:Datum:Temp:Abs-Feuchte:Windchill:Wind:
Aussen-T/F 1776 16-11-2019 00:00:00 3.30833 C 5.71 g/m*3 3.31 C 0 km/h
1777 16-11-2019 01:00:00 3.225 C 5.73 g/m*3 3.23 C 0.13333 km/h
1778 16-11-2019 02:00:00 3.11667 C 5.69 g/m*3 3.12 C 0.13333 km/h
1779 16-11-2019 03:00:00 2.63333 C 5.5 g/m*3 2.63 C 0 km/h
1780 16-11-2019 04:00:00 1.85 C 5.2 g/m*3 1.85 C 0 km/h
1781 16-11-2019 05:00:00 0.85 C 4.88 g/m*3 0.85 C 0 km/h
1782 16-11-2019 06:00:00 0.08333 C 4.63 g/m*3 0.08 C 0 km/h
1783 16-11-2019 07:00:00 -0.30833 C 4.52 g/m*3 -0.31 C 0.26667 km/h
1784 16-11-2019 08:00:00 0.24167 C 4.73 g/m*3 0.24 C 2.13333 km/h
1785 16-11-2019 09:00:00 0.31667 C 4.77 g/m*3 0.32 C 4.53333 km/h
1786 16-11-2019 10:00:00 0.74167 C 4.95 g/m*3 0.74 C 2.8 km/h
1787 16-11-2019 11:00:00 1.425 C 5.18 g/m*3 1.43 C 2.53333 km/h
1788 16-11-2019 12:00:00 2.25833 C 5.49 g/m*3 2.26 C 0 km/h
1789 16-11-2019 13:00:00 3.375 C 5.91 g/m*3 3.38 C 0 km/h
1790 16-11-2019 14:00:00 4.20833 C 6.25 g/m*3 4.21 C 0.13333 km/h
1791 16-11-2019 15:00:00 4.66667 C 6.39 g/m*3 4.67 C 0.4 km/h
1792 16-11-2019 16:00:00 4.58333 C 6.18 g/m*3 4.58 C 0.26667 km/h
1793 16-11-2019 17:00:00 3.94167 C 5.92 g/m*3 3.94 C 0.26667 km/h
1794 16-11-2019 18:00:00 3.20833 C 5.7 g/m*3 3.21 C 0.4 km/h
1795 16-11-2019 19:00:00 2.55833 C 5.48 g/m*3 2.56 C 0.13333 km/h
1796 16-11-2019 20:00:00 1.94167 C 5.29 g/m*3 1.94 C 0 km/h
1797 16-11-2019 21:00:00 1.55833 C 5.17 g/m*3 1.56 C 0 km/h
1798 16-11-2019 22:00:00 0.79167 C 4.91 g/m*3 0.79 C 0.13333 km/h
1799 16-11-2019 23:00:00 0.15833 C 4.7 g/m*3 0.16 C 0 km/h
1800 17-11-2019 00:00:00 -0.3 C 4.56 g/m*3 -0.3 C 0 km/h
Sensor: Nr:Datum:Temp:Abs-Feuchte:Windchill:Wind:
Aussen-T/F 1801 17-11-2019 01:00:00 -0.69167 C 4.44 g/m*3 -0.69 C 0 km/h
1802 17-11-2019 02:00:00 -0.11667 C 4.65 g/m*3 -0.12 C 0 km/h
1803 17-11-2019 03:00:00 0.8 C 4.97 g/m*3 0.8 C 0 km/h
1804 17-11-2019 04:00:00 1.475 C 5.2 g/m*3 1.48 C 0 km/h
1805 17-11-2019 05:00:00 1.65833 C 5.27 g/m*3 1.66 C 0 km/h
1806 17-11-2019 06:00:00 1.7 C 5.28 g/m*3 1.7 C 0 km/h
1807 17-11-2019 07:00:00 1.825 C 5.33 g/m*3 1.83 C 0 km/h
1808 17-11-2019 08:00:00 1.96667 C 5.38 g/m*3 1.97 C 0 km/h
1809 17-11-2019 09:00:00 2.475 C 5.58 g/m*3 2.48 C 0 km/h
1810 17-11-2019 10:00:00 3.15 C 5.89 g/m*3 3.15 C 0.26667 km/h
1811 17-11-2019 11:00:00 3.91667 C 6.2 g/m*3 3.92 C 0.13333 km/h
1812 17-11-2019 12:00:00 4.31667 C 6.36 g/m*3 4.32 C 0 km/h
1813 17-11-2019 13:00:00 4.90833 C 6.62 g/m*3 4.91 C 0 km/h
1814 17-11-2019 14:00:00 5.1 C 6.69 g/m*3 5.1 C 0.93333 km/h
1815 17-11-2019 15:00:00 4.88333 C 6.54 g/m*3 4.88 C 1.33333 km/h
1816 17-11-2019 16:00:00 4.65 C 6.44 g/m*3 4.65 C 2.66667 km/h
1817 17-11-2019 17:00:00 4.43333 C 6.35 g/m*3 4.43 C 2.13333 km/h
1818 17-11-2019 18:00:00 4.63333 C 6.43 g/m*3 4.63 C 1.6 km/h
1819 17-11-2019 19:00:00 4.7 C 6.46 g/m*3 3.15 C 6.70833 km/h
1820 17-11-2019 20:00:00 4.71667 C 6.47 g/m*3 4.72 C 3.74167 km/h
1821 17-11-2019 21:00:00 4.7 C 6.46 g/m*3 3.51 C 5.625 km/h
1822 17-11-2019 22:00:00 4.7 C 6.46 g/m*3 4.7 C 1.2 km/h
1823 17-11-2019 23:00:00 4.625 C 6.43 g/m*3 4.63 C 2.95 km/h
1824 18-11-2019 00:00:00 4.375 C 6.32 g/m*3 3.18 C 5.5 km/h
1825 18-11-2019 01:00:00 4.2 C 6.25 g/m*3 2.71 C 6.29167 km/h
Sensor: Nr:Datum:Temp:Abs-Feuchte:Windchill:Wind:
Aussen-T/F 1826 18-11-2019 02:00:00 4.2 C 6.25 g/m*3 4.2 C 4.41667 km/h
1827 18-11-2019 03:00:00 4.2 C 6.25 g/m*3 4.2 C 2.93333 km/h
1828 18-11-2019 04:00:00 4.2 C 6.25 g/m*3 4.2 C 4.00833 km/h
1829 18-11-2019 05:00:00 4.175 C 6.24 g/m*3 4.18 C 1.73333 km/h
1830 18-11-2019 06:00:00 4.1 C 6.21 g/m*3 4.1 C 0.53333 km/h
1831 18-11-2019 07:00:00 4.08333 C 6.2 g/m*3 4.08 C 0.4 km/h
1832 18-11-2019 08:00:00 4.14167 C 6.23 g/m*3 4.14 C 0 km/h
1833 18-11-2019 09:00:00 4.40833 C 6.34 g/m*3 4.41 C 0.13333 km/h
1834 18-11-2019 10:00:00 4.86667 C 6.58 g/m*3 4.87 C 0.26667 km/h
1835 18-11-2019 11:00:00 5.025 C 6.6 g/m*3 5.03 C 0.93333 km/h
1836 18-11-2019 12:00:00 5.30833 C 6.7 g/m*3 5.31 C 3.46667 km/h
1837 18-11-2019 13:00:00 5.33333 C 6.67 g/m*3 5.33 C 3.46667 km/h
1838 18-11-2019 14:00:00 5.35833 C 6.63 g/m*3 5.36 C 4 km/h
1839 18-11-2019 15:00:00 5.19167 C 6.54 g/m*3 5.19 C 3.6 km/h
1840 18-11-2019 16:00:00 4.86667 C 6.4 g/m*3 4.87 C 4.29167 km/h
1841 18-11-2019 17:00:00 4.78333 C 6.36 g/m*3 4.78 C 4.55 km/h
1842 18-11-2019 18:00:00 4.65833 C 6.31 g/m*3 4.66 C 4.01667 km/h
1843 18-11-2019 19:00:00 4.08333 C 6.07 g/m*3 2.01 C 8.19167 km/h
1844 18-11-2019 20:00:00 3.23333 C 5.74 g/m*3 0.59 C 9.81667 km/h
1845 18-11-2019 21:00:00 2.55833 C 5.51 g/m*3 -0.5 C 11.03333 km/h
1846 18-11-2019 22:00:00 2.88333 C 5.66 g/m*3 0.08 C 10.23333 km/h
1847 18-11-2019 23:00:00 3.25 C 5.8 g/m*3 0.22 C 11.56667 km/h
1848 19-11-2019 00:00:00 3.7 C 5.98 g/m*3 1.02 C 10.35833 km/h
1849 19-11-2019 01:00:00 4.01667 C 6.11 g/m*3 2.19 C 7.25833 km/h
1850 19-11-2019 02:00:00 4.2 C 6.19 g/m*3 2.84 C 5.89167 km/h
Sensor: Nr:Datum:Temp:Abs-Feuchte:Windchill:Wind:
Aussen-T/F 1851 19-11-2019 03:00:00 4.25833 C 6.21 g/m*3 4.26 C 3.2 km/h
1852 19-11-2019 04:00:00 4.325 C 6.24 g/m*3 2.67 C 6.85833 km/h
1853 19-11-2019 05:00:00 3.475 C 5.88 g/m*3 3.48 C 0.8 km/h
1854 19-11-2019 06:00:00 2.85 C 5.66 g/m*3 2.85 C 2.66667 km/h
1855 19-11-2019 07:00:00 2.93333 C 5.72 g/m*3 2.93 C 0.53333 km/h
1856 19-11-2019 08:00:00 3.18333 C 5.84 g/m*3 3.18 C 2.13333 km/h
1857 19-11-2019 09:00:00 4.025 C 6.17 g/m*3 2.79 C 5.48333 km/h
1858 19-11-2019 10:00:00 4.00833 C 6.14 g/m*3 4.01 C 2 km/h
1859 19-11-2019 11:00:00 4.65833 C 6.44 g/m*3 4.66 C 3.89167 km/h
1860 19-11-2019 12:00:00 6.175 C 6.72 g/m*3 4.71 C 7.24167 km/h
1861 19-11-2019 13:00:00 6.35 C 6.55 g/m*3 5.18 C 6.30833 km/h
1862 19-11-2019 14:00:00 6.63333 C 6.58 g/m*3 5.72 C 5.61667 km/h
1863 19-11-2019 15:00:00 6.55 C 6.77 g/m*3 6.55 C 0.93333 km/h
1864 19-11-2019 16:00:00 5.54167 C 6.53 g/m*3 5.54 C 2.53333 km/h
1865 19-11-2019 17:00:00 4.175 C 6.03 g/m*3 4.18 C 1.33333 km/h
1866 19-11-2019 18:00:00 3.325 C 5.77 g/m*3 3.33 C 0.26667 km/h
1867 19-11-2019 19:00:00 2.74167 C 5.56 g/m*3 2.74 C 0.13333 km/h
1868 19-11-2019 20:00:00 2.3 C 5.45 g/m*3 2.3 C 0.4 km/h
1869 19-11-2019 21:00:00 2.80833 C 5.67 g/m*3 2.81 C 2.14167 km/h
1870 19-11-2019 22:00:00 2.45 C 5.51 g/m*3 2.45 C 0.4 km/h
1871 19-11-2019 23:00:00 1.10833 C 5.02 g/m*3 1.11 C 0 km/h
1872 20-11-2019 00:00:00 0.60833 C 4.85 g/m*3 0.61 C 0.13333 km/h
1873 20-11-2019 01:00:00 0.23333 C 4.73 g/m*3 0.23 C 0 km/h
1874 20-11-2019 02:00:00 0.35833 C 4.82 g/m*3 0.36 C 0 km/h
1875 20-11-2019 03:00:00 0.55833 C 4.88 g/m*3 0.56 C 2.14167 km/h
Sensor: Nr:Datum:Temp:Abs-Feuchte:Windchill:Wind:
Aussen-T/F 1876 20-11-2019 04:00:00 0.39167 C 4.83 g/m*3 0.39 C 2.80833 km/h
1877 20-11-2019 05:00:00 0.675 C 4.92 g/m*3 0.68 C 2.66667 km/h
1878 20-11-2019 06:00:00 0.75833 C 4.95 g/m*3 0.76 C 0.13333 km/h
1879 20-11-2019 07:00:00 1.01667 C 5.04 g/m*3 1.02 C 0.26667 km/h
1880 20-11-2019 08:00:00 1.275 C 5.15 g/m*3 1.27 C 0 km/h
1881 20-11-2019 09:00:00 1.85 C 5.39 g/m*3 1.85 C 0.26667 km/h
1882 20-11-2019 10:00:00 2.61667 C 5.68 g/m*3 2.62 C 0.26667 km/h
1883 20-11-2019 11:00:00 3.025 C 5.82 g/m*3 3.03 C 1.46667 km/h
1884 20-11-2019 12:00:00 4.16667 C 6.22 g/m*3 4.17 C 4.54167 km/h
1885 20-11-2019 13:00:00 4.9 C 6.09 g/m*3 2.97 C 8.19167 km/h
1886 20-11-2019 14:00:00 5.275 C 5.97 g/m*3 5.28 C 4.15 km/h
1887 20-11-2019 15:00:00 5.225 C 5.87 g/m*3 5.23 C 1.33333 km/h
1888 20-11-2019 16:00:00 3.54167 C 5.45 g/m*3 3.54 C 0.26667 km/h
1889 20-11-2019 17:00:00 2.34167 C 5.25 g/m*3 2.34 C 0 km/h
1890 20-11-2019 18:00:00 1.31667 C 4.96 g/m*3 1.32 C 0.13333 km/h
1891 20-11-2019 19:00:00 0.4 C 4.7 g/m*3 0.4 C 0 km/h
1892 20-11-2019 20:00:00 -0.19167 C 4.54 g/m*3 -0.19 C 0 km/h
1893 20-11-2019 21:00:00 -0.59167 C 4.45 g/m*3 -0.59 C 0 km/h
1894 20-11-2019 22:00:00 -0.85 C 4.39 g/m*3 -0.85 C 0.26667 km/h
1895 20-11-2019 23:00:00 -0.6 C 4.47 g/m*3 -0.6 C 0 km/h
1896 21-11-2019 00:00:00 -0.6 C 4.48 g/m*3 -0.6 C 0 km/h
1897 21-11-2019 01:00:00 -1.19167 C 4.28 g/m*3 -1.19 C 0 km/h
1898 21-11-2019 02:00:00 -1.4 C 4.22 g/m*3 -1.4 C 0 km/h
1899 21-11-2019 03:00:00 -1.23333 C 4.31 g/m*3 -1.23 C 0 km/h
1900 21-11-2019 04:00:00 -0.40833 C 4.57 g/m*3 -0.41 C 0 km/h
Sensor: Nr:Datum:Temp:Abs-Feuchte:Windchill:Wind:
Aussen-T/F 1901 21-11-2019 05:00:00 0.16667 C 4.75 g/m*3 0.17 C 0 km/h
1902 21-11-2019 06:00:00 0.65 C 4.92 g/m*3 0.65 C 0.13333 km/h
1903 21-11-2019 07:00:00 0.775 C 4.96 g/m*3 0.78 C 0 km/h
1904 21-11-2019 08:00:00 0.85 C 4.98 g/m*3 0.85 C 0.4 km/h
1905 21-11-2019 09:00:00 1.225 C 5.11 g/m*3 1.23 C 0.26667 km/h
1906 21-11-2019 10:00:00 1.775 C 5.31 g/m*3 1.78 C 0 km/h
1907 21-11-2019 11:00:00 2.53333 C 5.59 g/m*3 2.53 C 0.53333 km/h
1908 21-11-2019 12:00:00 2.925 C 5.68 g/m*3 2.93 C 1.6 km/h
1909 21-11-2019 13:00:00 3.6 C 5.92 g/m*3 3.6 C 1.6 km/h
1910 21-11-2019 14:00:00 4.33333 C 6.13 g/m*3 4.33 C 0.53333 km/h
1911 21-11-2019 15:00:00 4.78333 C 6.29 g/m*3 4.78 C 0 km/h
1912 21-11-2019 16:00:00 4.975 C 6.38 g/m*3 4.97 C 0 km/h
1913 21-11-2019 17:00:00 4.48333 C 6.23 g/m*3 4.48 C 0 km/h
1914 21-11-2019 18:00:00 4.18333 C 6.12 g/m*3 4.18 C 0 km/h
1915 21-11-2019 19:00:00 3.975 C 6.06 g/m*3 3.98 C 0 km/h
1916 21-11-2019 20:00:00 3.10833 C 5.7 g/m*3 3.11 C 0.4 km/h
1917 21-11-2019 21:00:00 2.35 C 5.46 g/m*3 2.35 C 0.4 km/h
1918 21-11-2019 22:00:00 1.89167 C 5.3 g/m*3 1.89 C 0.13333 km/h
1919 21-11-2019 23:00:00 2.05 C 5.41 g/m*3 2.05 C 0.13333 km/h
1920 22-11-2019 00:00:00 2.24167 C 5.48 g/m*3 2.24 C 0.13333 km/h
1921 22-11-2019 01:00:00 2 C 5.39 g/m*3 2 C 0.13333 km/h
1922 22-11-2019 02:00:00 1.6 C 5.24 g/m*3 1.6 C 0.26667 km/h
1923 22-11-2019 03:00:00 1.725 C 5.29 g/m*3 1.73 C 0.13333 km/h
1924 22-11-2019 04:00:00 2.11667 C 5.43 g/m*3 2.12 C 0 km/h
1925 22-11-2019 05:00:00 2.69167 C 5.68 g/m*3 2.69 C 0.13333 km/h
Sensor: Nr:Datum:Temp:Abs-Feuchte:Windchill:Wind:
Aussen-T/F 1926 22-11-2019 06:00:00 3.55833 C 6.05 g/m*3 3.56 C 0 km/h
1927 22-11-2019 07:00:00 3.99167 C 6.23 g/m*3 3.99 C 0.13333 km/h
1928 22-11-2019 08:00:00 4.55833 C 6.47 g/m*3 4.56 C 3.06667 km/h
1929 22-11-2019 09:00:00 4.65833 C 6.48 g/m*3 4.66 C 3.88333 km/h
1930 22-11-2019 10:00:00 4.50833 C 6.39 g/m*3 4.51 C 2.26667 km/h
1931 22-11-2019 11:00:00 5.18333 C 6.68 g/m*3 5.18 C 4.93333 km/h
1932 22-11-2019 12:00:00 5.7 C 6.86 g/m*3 4.39 C 6.45 km/h
1933 22-11-2019 13:00:00 5.88333 C 6.79 g/m*3 4.82 C 5.75 km/h
1934 22-11-2019 14:00:00 6.06667 C 6.78 g/m*3 4.41 C 7.91667 km/h
1935 22-11-2019 15:00:00 6.16667 C 6.75 g/m*3 6.17 C 4.00833 km/h
1936 22-11-2019 16:00:00 5.90833 C 6.66 g/m*3 5.91 C 1.73333 km/h
1937 22-11-2019 17:00:00 5.73333 C 6.66 g/m*3 5.73 C 1.46667 km/h
1938 22-11-2019 18:00:00 5.63333 C 6.64 g/m*3 5.63 C 1.46667 km/h
1939 22-11-2019 19:00:00 5.49167 C 6.55 g/m*3 5.49 C 2.26667 km/h
1940 22-11-2019 20:00:00 5.275 C 6.43 g/m*3 5.28 C 3.48333 km/h
1941 22-11-2019 21:00:00 5.08333 C 6.35 g/m*3 5.08 C 1.33333 km/h
1942 22-11-2019 22:00:00 4.88333 C 6.25 g/m*3 4.88 C 2.26667 km/h
1943 22-11-2019 23:00:00 4.725 C 6.16 g/m*3 4.72 C 2.13333 km/h
1944 23-11-2019 00:00:00 4.725 C 6.16 g/m*3 4.72 C 2.53333 km/h
1945 23-11-2019 01:00:00 4.83333 C 6.15 g/m*3 4.83 C 3.88333 km/h
1946 23-11-2019 02:00:00 4.775 C 6.13 g/m*3 4.78 C 1.06667 km/h
1947 23-11-2019 03:00:00 4.425 C 6.08 g/m*3 4.43 C 1.86667 km/h
1948 23-11-2019 04:00:00 4 C 5.96 g/m*3 4 C 0.26667 km/h
1949 23-11-2019 05:00:00 3.69167 C 5.9 g/m*3 3.69 C 0.8 km/h
1950 23-11-2019 06:00:00 3.68333 C 5.94 g/m*3 3.68 C 0.4 km/h
Sensor: Nr:Datum:Temp:Abs-Feuchte:Windchill:Wind:
Aussen-T/F 1951 23-11-2019 07:00:00 3.94167 C 6.08 g/m*3 3.94 C 0.53333 km/h
1952 23-11-2019 08:00:00 4.15 C 6.17 g/m*3 4.15 C 1.60833 km/h
1953 23-11-2019 09:00:00 5.00833 C 6.52 g/m*3 5.01 C 1.86667 km/h
1954 23-11-2019 10:00:00 6.15833 C 6.75 g/m*3 6.16 C 3.74167 km/h
1955 23-11-2019 11:00:00 7.225 C 6.91 g/m*3 7.23 C 4.14167 km/h
1956 23-11-2019 12:00:00 7.35833 C 7.14 g/m*3 7.36 C 1.33333 km/h
1957 23-11-2019 13:00:00 7.65 C 7.27 g/m*3 7.65 C 2 km/h
1958 23-11-2019 14:00:00 7.53333 C 7.39 g/m*3 7.53 C 2.53333 km/h
1959 23-11-2019 15:00:00 8.36667 C 7.53 g/m*3 7.83 C 5.225 km/h
1960 23-11-2019 16:00:00 7.625 C 7.15 g/m*3 7.63 C 2.275 km/h
1961 23-11-2019 17:00:00 6.25833 C 6.81 g/m*3 6.26 C 2.53333 km/h
1962 23-11-2019 18:00:00 5.76667 C 6.7 g/m*3 5.77 C 0.8 km/h
1963 23-11-2019 19:00:00 5.56667 C 6.69 g/m*3 5.57 C 1.46667 km/h
1964 23-11-2019 20:00:00 5.00833 C 6.46 g/m*3 5.01 C 0.26667 km/h
1965 23-11-2019 21:00:00 4.41667 C 6.22 g/m*3 4.42 C 0.13333 km/h
1966 23-11-2019 22:00:00 3.85833 C 6.04 g/m*3 3.86 C 0.4 km/h
1967 23-11-2019 23:00:00 3.28333 C 5.82 g/m*3 3.28 C 0.13333 km/h
1968 24-11-2019 00:00:00 2.8 C 5.63 g/m*3 2.8 C 0.13333 km/h
1969 24-11-2019 01:00:00 2.38333 C 5.49 g/m*3 2.38 C 0 km/h
1970 24-11-2019 02:00:00 2.16667 C 5.45 g/m*3 2.17 C 0 km/h
1971 24-11-2019 03:00:00 2.1 C 5.43 g/m*3 2.1 C 0 km/h
1972 24-11-2019 04:00:00 1.7 C 5.28 g/m*3 1.7 C 0 km/h
1973 24-11-2019 05:00:00 1.825 C 5.33 g/m*3 1.83 C 0.26667 km/h
1974 24-11-2019 06:00:00 1.48333 C 5.2 g/m*3 1.48 C 0 km/h
1975 24-11-2019 07:00:00 1.14167 C 5.08 g/m*3 1.14 C 0.13333 km/h
Sensor: Nr:Datum:Temp:Abs-Feuchte:Windchill:Wind:
Aussen-T/F 1976 24-11-2019 08:00:00 1.15 C 5.09 g/m*3 1.15 C 0 km/h
1977 24-11-2019 09:00:00 1.525 C 5.23 g/m*3 1.53 C 0.26667 km/h
1978 24-11-2019 10:00:00 2.25833 C 5.54 g/m*3 2.26 C 0.53333 km/h
1979 24-11-2019 11:00:00 3.01667 C 5.83 g/m*3 3.02 C 0.13333 km/h
1980 24-11-2019 12:00:00 3.81667 C 6.15 g/m*3 3.82 C 0 km/h
1981 24-11-2019 13:00:00 4.81667 C 6.58 g/m*3 4.82 C 0 km/h
1982 24-11-2019 14:00:00 5.39167 C 6.83 g/m*3 5.39 C 0 km/h
1983 24-11-2019 15:00:00 5.39167 C 6.83 g/m*3 5.39 C 0 km/h
1984 24-11-2019 16:00:00 4.71667 C 6.47 g/m*3 4.72 C 0 km/h
1985 24-11-2019 17:00:00 3.95 C 6.15 g/m*3 3.95 C 0 km/h
1986 24-11-2019 18:00:00 3.625 C 6.01 g/m*3 3.63 C 0 km/h
1987 24-11-2019 19:00:00 3.55 C 5.98 g/m*3 3.55 C 0 km/h
1988 24-11-2019 20:00:00 3.21667 C 5.85 g/m*3 3.22 C 0 km/h
1989 24-11-2019 21:00:00 3 C 5.77 g/m*3 3 C 0 km/h
1990 24-11-2019 22:00:00 2.48333 C 5.57 g/m*3 2.48 C 0 km/h
1991 24-11-2019 23:00:00 2.11667 C 5.44 g/m*3 2.12 C 0 km/h
1992 25-11-2019 00:00:00 2.06667 C 5.43 g/m*3 2.07 C 0 km/h
1993 25-11-2019 01:00:00 2.41667 C 5.6 g/m*3 2.42 C 0 km/h
1994 25-11-2019 02:00:00 2.26667 C 5.54 g/m*3 2.27 C 0 km/h
1995 25-11-2019 03:00:00 2.40833 C 5.6 g/m*3 2.41 C 0 km/h
1996 25-11-2019 04:00:00 2.7 C 5.71 g/m*3 2.7 C 0 km/h
1997 25-11-2019 05:00:00 3.06667 C 5.85 g/m*3 3.07 C 0 km/h
1998 25-11-2019 06:00:00 3.31667 C 5.95 g/m*3 3.32 C 0 km/h
1999 25-11-2019 07:00:00 3.575 C 6.06 g/m*3 3.58 C 0 km/h
2000 25-11-2019 08:00:00 3.80833 C 6.15 g/m*3 3.81 C 0 km/h
Sensor: Nr:Datum:Temp:Abs-Feuchte:Windchill:Wind:
Aussen-T/F 2001 25-11-2019 09:00:00 4.26667 C 6.34 g/m*3 4.27 C 0 km/h
2002 25-11-2019 10:00:00 4.73333 C 6.54 g/m*3 4.73 C 0 km/h
2003 25-11-2019 11:00:00 5.41667 C 6.85 g/m*3 5.42 C 0.13333 km/h
2004 25-11-2019 12:00:00 6.05 C 7.13 g/m*3 6.05 C 0.13333 km/h
2005 25-11-2019 13:00:00 6.675 C 7.35 g/m*3 6.68 C 0 km/h
2006 25-11-2019 14:00:00 7.08333 C 7.48 g/m*3 7.08 C 0.26667 km/h
2007 25-11-2019 15:00:00 7.225 C 7.48 g/m*3 7.23 C 0 km/h
2008 25-11-2019 16:00:00 7.15833 C 7.49 g/m*3 7.16 C 0 km/h
2009 25-11-2019 17:00:00 6.8 C 7.34 g/m*3 6.8 C 0 km/h
2010 25-11-2019 18:00:00 6.68333 C 7.29 g/m*3 6.68 C 0 km/h
2011 25-11-2019 19:00:00 6.19167 C 7.06 g/m*3 6.19 C 0 km/h
2012 25-11-2019 20:00:00 6.125 C 7.1 g/m*3 6.13 C 0.13333 km/h
2013 25-11-2019 21:00:00 5.86667 C 6.94 g/m*3 5.87 C 0 km/h
2014 25-11-2019 22:00:00 5.21667 C 6.63 g/m*3 5.22 C 0 km/h
2015 25-11-2019 23:00:00 4.28333 C 6.22 g/m*3 4.28 C 0 km/h
2016 26-11-2019 00:00:00 3.66667 C 6.02 g/m*3 3.67 C 0 km/h
2017 26-11-2019 01:00:00 4.225 C 6.26 g/m*3 4.22 C 0 km/h
2018 26-11-2019 02:00:00 4.71667 C 6.5 g/m*3 4.72 C 0.13333 km/h
2019 26-11-2019 03:00:00 5.25833 C 6.76 g/m*3 5.26 C 0.13333 km/h
2020 26-11-2019 04:00:00 5.88333 C 7.06 g/m*3 5.88 C 0 km/h
2021 26-11-2019 05:00:00 6.50833 C 7.35 g/m*3 6.51 C 0 km/h
2022 26-11-2019 06:00:00 6.75833 C 7.47 g/m*3 6.76 C 0.4 km/h
2023 26-11-2019 07:00:00 7.25 C 7.72 g/m*3 7.25 C 0.26667 km/h
2024 26-11-2019 08:00:00 7.45833 C 7.82 g/m*3 7.46 C 1.2 km/h
2025 26-11-2019 09:00:00 8.05833 C 8.13 g/m*3 8.06 C 2.66667 km/h
Sensor: Nr:Datum:Temp:Abs-Feuchte:Windchill:Wind:
Aussen-T/F 2026 26-11-2019 10:00:00 9.175 C 8.62 g/m*3 9.18 C 1.73333 km/h
2027 26-11-2019 11:00:00 10.38333 C 8.91 g/m*3 10.38 C 3.61667 km/h
2028 26-11-2019 12:00:00 10.98333 C 9.07 g/m*3 10.98 C 1.2 km/h
2029 26-11-2019 13:00:00 11.175 C 9.13 g/m*3 11.18 C 1.875 km/h
2030 26-11-2019 14:00:00 11.10833 C 9.19 g/m*3 11.11 C 0.66667 km/h
2031 26-11-2019 15:00:00 11.24167 C 9.17 g/m*3 11.24 C 1.2 km/h
2032 26-11-2019 16:00:00 10.69167 C 8.97 g/m*3 10.69 C 0.53333 km/h
2033 26-11-2019 17:00:00 10.01667 C 8.69 g/m*3 10.02 C 0.13333 km/h
2034 26-11-2019 18:00:00 9.73333 C 8.67 g/m*3 9.73 C 2 km/h
2035 26-11-2019 19:00:00 10.16667 C 8.78 g/m*3 10.17 C 2.93333 km/h
2036 26-11-2019 20:00:00 9.75 C 8.48 g/m*3 9.75 C 0.53333 km/h
2037 26-11-2019 21:00:00 9.15 C 8.43 g/m*3 9.15 C 0 km/h
2038 26-11-2019 22:00:00 9.225 C 8.43 g/m*3 9.23 C 0.4 km/h
2039 26-11-2019 23:00:00 8.66667 C 8.19 g/m*3 8.67 C 0.13333 km/h
2040 27-11-2019 00:00:00 8.46667 C 8.14 g/m*3 8.47 C 0.53333 km/h
2041 27-11-2019 01:00:00 8.38333 C 8.12 g/m*3 8.38 C 0.4 km/h
2042 27-11-2019 02:00:00 8.73333 C 8.36 g/m*3 8.73 C 0 km/h
2043 27-11-2019 03:00:00 8.21667 C 8.06 g/m*3 8.22 C 0 km/h
2044 27-11-2019 04:00:00 8.25833 C 8.15 g/m*3 8.26 C 3.06667 km/h
2045 27-11-2019 05:00:00 8.39167 C 8.15 g/m*3 7.82 C 5.34167 km/h
2046 27-11-2019 06:00:00 8.64167 C 8.21 g/m*3 8.64 C 1.46667 km/h
2047 27-11-2019 07:00:00 8.725 C 8.28 g/m*3 8.73 C 3.74167 km/h
2048 27-11-2019 08:00:00 9.13333 C 8.45 g/m*3 9.13 C 2.66667 km/h
2049 27-11-2019 09:00:00 9.60833 C 8.71 g/m*3 9.61 C 1.33333 km/h
2050 27-11-2019 10:00:00 10.00833 C 8.91 g/m*3 10.01 C 2.40833 km/h
Sensor: Nr:Datum:Temp:Abs-Feuchte:Windchill:Wind:
Aussen-T/F 2051 27-11-2019 11:00:00 11.66667 C 8.92 g/m*3 11.67 C 6.15833 km/h
2052 27-11-2019 12:00:00 12.65 C 8.78 g/m*3 12.65 C 12.625 km/h
2053 27-11-2019 13:00:00 12.775 C 8.66 g/m*3 12.78 C 10.61667 km/h
2054 27-11-2019 14:00:00 12.96667 C 8.63 g/m*3 12.97 C 7.375 km/h
2055 27-11-2019 15:00:00 12.8 C 8.56 g/m*3 12.8 C 12.21667 km/h
2056 27-11-2019 16:00:00 11.73333 C 8.77 g/m*3 11.73 C 4.95 km/h
2057 27-11-2019 17:00:00 10.73333 C 8.89 g/m*3 10.73 C 4.275 km/h
2058 27-11-2019 18:00:00 10.70833 C 8.97 g/m*3 10.49 C 5.225 km/h
2059 27-11-2019 19:00:00 10.75 C 9.05 g/m*3 9.96 C 7.65 km/h
2060 27-11-2019 20:00:00 11.26667 C 8.94 g/m*3 11.27 C 8.99167 km/h
2061 27-11-2019 21:00:00 10.76667 C 9.02 g/m*3 9.7 C 9.125 km/h
2062 27-11-2019 22:00:00 11.29167 C 8.86 g/m*3 11.29 C 16.375 km/h
2063 27-11-2019 23:00:00 11.6 C 8.61 g/m*3 11.6 C 17.175 km/h
2064 28-11-2019 00:00:00 11.575 C 8.47 g/m*3 11.58 C 19.7 km/h
2065 28-11-2019 01:00:00 11.61667 C 8.43 g/m*3 11.62 C 23.46667 km/h
2066 28-11-2019 02:00:00 11.20833 C 8.36 g/m*3 11.21 C 21.19167 km/h
2067 28-11-2019 03:00:00 11.05 C 8.04 g/m*3 11.05 C 19.70833 km/h
2068 28-11-2019 04:00:00 10.96667 C 7.93 g/m*3 8.7 C 18.9 km/h
2069 28-11-2019 05:00:00 10.66667 C 7.96 g/m*3 8.31 C 19.04167 km/h
2070 28-11-2019 06:00:00 10.66667 C 8.14 g/m*3 8.57 C 16.5 km/h
2071 28-11-2019 07:00:00 10.60833 C 7.98 g/m*3 8.38 C 17.56667 km/h
2072 28-11-2019 08:00:00 10.58333 C 7.94 g/m*3 8.28 C 18.24167 km/h
2073 28-11-2019 09:00:00 11.025 C 8.03 g/m*3 11.03 C 16.23333 km/h
2074 28-11-2019 10:00:00 11.58333 C 8.06 g/m*3 11.58 C 17.7 km/h
2075 28-11-2019 11:00:00 11.95833 C 8.23 g/m*3 11.96 C 20.76667 km/h
Sensor: Nr:Datum:Temp:Abs-Feuchte:Windchill:Wind:
Aussen-T/F 2076 28-11-2019 12:00:00 11.49167 C 8.53 g/m*3 11.49 C 19.16667 km/h
2077 28-11-2019 13:00:00 11.7 C 8.66 g/m*3 11.7 C 17.7 km/h
2078 28-11-2019 14:00:00 11.45 C 8.57 g/m*3 11.45 C 15.03333 km/h
2079 28-11-2019 15:00:00 11.16667 C 8.46 g/m*3 11.17 C 15.03333 km/h
2080 28-11-2019 16:00:00 10.83333 C 8.42 g/m*3 8.89 C 15.44167 km/h
2081 28-11-2019 17:00:00 10.41667 C 8.55 g/m*3 8.64 C 13.3 km/h
2082 28-11-2019 18:00:00 10.43333 C 8.46 g/m*3 8.56 C 14.1 km/h
2083 28-11-2019 19:00:00 10.41667 C 8.44 g/m*3 8.92 C 11.29167 km/h
2084 28-11-2019 20:00:00 10.31667 C 8.51 g/m*3 8.84 C 11.03333 km/h
2085 28-11-2019 21:00:00 10.33333 C 8.49 g/m*3 8.69 C 12.23333 km/h
2086 28-11-2019 22:00:00 10.19167 C 8.54 g/m*3 8.63 C 11.425 km/h
2087 28-11-2019 23:00:00 10.00833 C 8.53 g/m*3 9.12 C 7.50833 km/h
2088 29-11-2019 00:00:00 9.44167 C 8.49 g/m*3 8.86 C 5.89167 km/h
2089 29-11-2019 01:00:00 9.05 C 8.36 g/m*3 9.05 C 2.93333 km/h
2090 29-11-2019 02:00:00 8.825 C 8.3 g/m*3 8.82 C 0 km/h
2091 29-11-2019 03:00:00 8.58333 C 8.23 g/m*3 8.58 C 0.26667 km/h
2092 29-11-2019 04:00:00 8.21667 C 8.04 g/m*3 8.22 C 2.15 km/h
2093 29-11-2019 05:00:00 7.15 C 7.34 g/m*3 7.15 C 4.55 km/h
2094 29-11-2019 06:00:00 6.79167 C 7.26 g/m*3 6.79 C 2.80833 km/h
2095 29-11-2019 07:00:00 6.38333 C 7.01 g/m*3 6.38 C 2.00833 km/h
2096 29-11-2019 08:00:00 5.95833 C 6.88 g/m*3 5.96 C 0.4 km/h
2097 29-11-2019 09:00:00 5.525 C 6.68 g/m*3 5.53 C 1.73333 km/h
2098 29-11-2019 10:00:00 5.73333 C 6.69 g/m*3 5.73 C 3.06667 km/h
2099 29-11-2019 11:00:00 6.45833 C 6.76 g/m*3 6.46 C 4.00833 km/h
2100 29-11-2019 12:00:00 7.34167 C 6.65 g/m*3 5.26 C 11.01667 km/h
Sensor: Nr:Datum:Temp:Abs-Feuchte:Windchill:Wind:
Aussen-T/F 2101 29-11-2019 13:00:00 6.99167 C 6.45 g/m*3 6 C 6.04167 km/h
2102 29-11-2019 14:00:00 7.49167 C 6.11 g/m*3 6.08 C 7.925 km/h
2103 29-11-2019 15:00:00 7.675 C 5.92 g/m*3 5.94 C 9.55 km/h
2104 29-11-2019 16:00:00 6.63333 C 5.89 g/m*3 6.63 C 4.00833 km/h
2105 29-11-2019 17:00:00 4.95833 C 5.73 g/m*3 4.96 C 3.33333 km/h
2106 29-11-2019 18:00:00 4.88333 C 5.86 g/m*3 4.88 C 1.46667 km/h
2107 29-11-2019 19:00:00 5.13333 C 5.83 g/m*3 5.13 C 2.53333 km/h
2108 29-11-2019 20:00:00 4.80833 C 5.8 g/m*3 4.81 C 3.46667 km/h
2109 29-11-2019 21:00:00 4.55833 C 5.8 g/m*3 4.56 C 2.8 km/h
2110 29-11-2019 22:00:00 3.55 C 5.55 g/m*3 3.55 C 0.93333 km/h
2111 29-11-2019 23:00:00 2.56667 C 5.34 g/m*3 2.57 C 1.2 km/h
2112 30-11-2019 00:00:00 2.60833 C 5.44 g/m*3 2.61 C 1.33333 km/h
2113 30-11-2019 01:00:00 1.975 C 5.21 g/m*3 1.98 C 0.66667 km/h
2114 30-11-2019 02:00:00 1.725 C 5.18 g/m*3 1.73 C 0.4 km/h
2115 30-11-2019 03:00:00 1.51667 C 5.11 g/m*3 1.52 C 0.93333 km/h
2116 30-11-2019 04:00:00 1.93333 C 5.29 g/m*3 1.93 C 2.93333 km/h
2117 30-11-2019 05:00:00 1.35 C 5.05 g/m*3 1.35 C 0.93333 km/h
2118 30-11-2019 06:00:00 0.18333 C 4.66 g/m*3 0.18 C 0.13333 km/h
2119 30-11-2019 07:00:00 -0.19167 C 4.57 g/m*3 -0.19 C 0.26667 km/h
2120 30-11-2019 08:00:00 0.14167 C 4.7 g/m*3 0.14 C 0 km/h
2121 30-11-2019 09:00:00 0.18333 C 4.71 g/m*3 0.18 C 0.53333 km/h
2122 30-11-2019 10:00:00 0.55 C 4.88 g/m*3 0.55 C 1.6 km/h
2123 30-11-2019 11:00:00 0.89167 C 5 g/m*3 0.89 C 2.26667 km/h
2124 30-11-2019 12:00:00 1.35 C 5.16 g/m*3 1.35 C 0.66667 km/h
2125 30-11-2019 13:00:00 2.11667 C 5.43 g/m*3 2.12 C 0.93333 km/h
Sensor: Nr:Datum:Temp:Abs-Feuchte:Windchill:Wind:
Aussen-T/F 2126 30-11-2019 14:00:00 2.26667 C 5.49 g/m*3 2.27 C 2.13333 km/h
2127 30-11-2019 15:00:00 2.19167 C 5.46 g/m*3 2.19 C 1.2 km/h
2128 30-11-2019 16:00:00 1.99167 C 5.39 g/m*3 1.99 C 0 km/h
2129 30-11-2019 17:00:00 1.525 C 5.22 g/m*3 1.53 C 0 km/h
2130 30-11-2019 18:00:00 1.05833 C 5.05 g/m*3 1.06 C 0 km/h
2131 30-11-2019 19:00:00 0.79167 C 4.96 g/m*3 0.79 C 0 km/h
2132 30-11-2019 20:00:00 0.65 C 4.92 g/m*3 0.65 C 0 km/h
2133 30-11-2019 21:00:00 0.58333 C 4.89 g/m*3 0.58 C 0.26667 km/h
2134 30-11-2019 22:00:00 0.66667 C 4.92 g/m*3 0.67 C 0.53333 km/h
2135 30-11-2019 23:00:00 0.63333 C 4.91 g/m*3 0.63 C 1.2 km/h
2136 01-12-2019 00:00:00 0.6 C 4.91 g/m*3 0.6 C 0.26667 km/h
2137 01-12-2019 01:00:00 0.75833 C 5 g/m*3 0.76 C 0.26667 km/h
2138 01-12-2019 02:00:00 0.63333 C 4.95 g/m*3 0.63 C 0.53333 km/h
2139 01-12-2019 03:00:00 0.5 C 4.86 g/m*3 0.5 C 0.93333 km/h
2140 01-12-2019 04:00:00 0.10833 C 4.76 g/m*3 0.11 C 0 km/h
2141 01-12-2019 05:00:00 0.1 C 4.78 g/m*3 0.1 C 0.13333 km/h
2142 01-12-2019 06:00:00 -0.025 C 4.71 g/m*3 -0.03 C 0.4 km/h
2143 01-12-2019 07:00:00 0.35 C 4.86 g/m*3 0.35 C 2.53333 km/h
2144 01-12-2019 08:00:00 0.70833 C 4.99 g/m*3 0.71 C 1.06667 km/h
2145 01-12-2019 09:00:00 0.84167 C 5.03 g/m*3 0.84 C 0.26667 km/h
2146 01-12-2019 10:00:00 1.275 C 5.18 g/m*3 1.27 C 0.13333 km/h
2147 01-12-2019 11:00:00 2.1 C 5.48 g/m*3 2.1 C 3.075 km/h
2148 01-12-2019 12:00:00 2.975 C 5.48 g/m*3 1.69 C 5.23333 km/h
2149 01-12-2019 13:00:00 3.75833 C 5.24 g/m*3 3.76 C 2.13333 km/h
2150 01-12-2019 14:00:00 4.20833 C 5.11 g/m*3 4.21 C 0.93333 km/h
Sensor: Nr:Datum:Temp:Abs-Feuchte:Windchill:Wind:
Aussen-T/F 2151 01-12-2019 15:00:00 3.98333 C 5.33 g/m*3 3.98 C 0 km/h
2152 01-12-2019 16:00:00 3.16667 C 5.21 g/m*3 3.17 C 0 km/h
2153 01-12-2019 17:00:00 2.81667 C 5.2 g/m*3 2.82 C 0 km/h
2154 01-12-2019 18:00:00 2.8 C 5.19 g/m*3 2.8 C 0 km/h
2155 01-12-2019 19:00:00 2.86667 C 5.2 g/m*3 2.87 C 0 km/h
2156 01-12-2019 20:00:00 2.725 C 5.14 g/m*3 2.73 C 0 km/h
2157 01-12-2019 21:00:00 2.45 C 5.06 g/m*3 2.45 C 0.13333 km/h
2158 01-12-2019 22:00:00 1.99167 C 4.95 g/m*3 1.99 C 0 km/h
2159 01-12-2019 23:00:00 1.33333 C 4.8 g/m*3 1.33 C 0.26667 km/h
2160 02-12-2019 00:00:00 0.775 C 4.7 g/m*3 0.78 C 0.66667 km/h
2161 02-12-2019 01:00:00 0.63333 C 4.71 g/m*3 0.63 C 0.4 km/h
2162 02-12-2019 02:00:00 0.09167 C 4.53 g/m*3 0.09 C 1.6 km/h
2163 02-12-2019 03:00:00 -0.36667 C 4.41 g/m*3 -0.37 C 2.13333 km/h
2164 02-12-2019 04:00:00 -0.44167 C 4.44 g/m*3 -0.44 C 0.53333 km/h
2165 02-12-2019 05:00:00 -0.35 C 4.48 g/m*3 -0.35 C 0.26667 km/h
2166 02-12-2019 06:00:00 -0.6 C 4.42 g/m*3 -0.6 C 1.06667 km/h
2167 02-12-2019 07:00:00 -1.15833 C 4.24 g/m*3 -1.16 C 0.26667 km/h
2168 02-12-2019 08:00:00 -0.65 C 4.43 g/m*3 -0.65 C 1.06667 km/h
2169 02-12-2019 09:00:00 0.26667 C 4.71 g/m*3 0.27 C 4.26667 km/h
2170 02-12-2019 10:00:00 0.85 C 4.84 g/m*3 -0.66 C 5.08333 km/h
2171 02-12-2019 11:00:00 1.58333 C 4.99 g/m*3 1.58 C 4.41667 km/h
2172 02-12-2019 12:00:00 2.78333 C 5.31 g/m*3 2.78 C 4.69167 km/h
2173 02-12-2019 13:00:00 3.95 C 5.54 g/m*3 2.76 C 5.34167 km/h
2174 02-12-2019 14:00:00 4.725 C 5.91 g/m*3 4.72 C 4.55 km/h
2175 02-12-2019 15:00:00 5.19167 C 6.12 g/m*3 5.19 C 1.2 km/h
Sensor: Nr:Datum:Temp:Abs-Feuchte:Windchill:Wind:
Aussen-T/F 2176 02-12-2019 16:00:00 4.675 C 6.12 g/m*3 4.68 C 2.8 km/h
2177 02-12-2019 17:00:00 4.20833 C 6 g/m*3 4.21 C 1.6 km/h
2178 02-12-2019 18:00:00 3.875 C 5.88 g/m*3 3.88 C 0.53333 km/h
2179 02-12-2019 19:00:00 3.425 C 5.78 g/m*3 3.43 C 0.93333 km/h
2180 02-12-2019 20:00:00 3.7 C 5.92 g/m*3 3.7 C 1.73333 km/h
2181 02-12-2019 21:00:00 3.63333 C 5.89 g/m*3 3.63 C 4.825 km/h
2182 02-12-2019 22:00:00 3.475 C 5.89 g/m*3 3.48 C 4.40833 km/h
2183 02-12-2019 23:00:00 3.4 C 5.86 g/m*3 3.4 C 3.475 km/h
2184 03-12-2019 00:00:00 3.40833 C 5.87 g/m*3 1.52 C 7.11667 km/h
2185 03-12-2019 01:00:00 3.55833 C 5.93 g/m*3 3.56 C 4.80833 km/h
2186 03-12-2019 02:00:00 3.71667 C 5.99 g/m*3 3.72 C 2.00833 km/h
2187 03-12-2019 03:00:00 3.8 C 6.04 g/m*3 2.63 C 5.21667 km/h
2188 03-12-2019 04:00:00 3.89167 C 6.11 g/m*3 2.26 C 6.56667 km/h
2189 03-12-2019 05:00:00 4.01667 C 6.17 g/m*3 4.02 C 4.275 km/h
2190 03-12-2019 06:00:00 4.1 C 6.21 g/m*3 4.1 C 1.73333 km/h
2191 03-12-2019 07:00:00 4.19167 C 6.25 g/m*3 4.19 C 4.00833 km/h
2192 03-12-2019 08:00:00 4.23333 C 6.26 g/m*3 2.97 C 5.625 km/h
2193 03-12-2019 09:00:00 4.35 C 6.31 g/m*3 4.35 C 4.94167 km/h
2194 03-12-2019 10:00:00 4.61667 C 6.43 g/m*3 3.46 C 5.49167 km/h
2195 03-12-2019 11:00:00 5.11667 C 6.64 g/m*3 5.12 C 3.2 km/h
2196 03-12-2019 12:00:00 5.6 C 6.86 g/m*3 5.6 C 3.46667 km/h
2197 03-12-2019 13:00:00 6.06667 C 7 g/m*3 6.07 C 4.26667 km/h
2198 03-12-2019 14:00:00 6.51667 C 7.13 g/m*3 6.52 C 1.06667 km/h
2199 03-12-2019 15:00:00 6.675 C 7.13 g/m*3 6.68 C 0 km/h
2200 03-12-2019 16:00:00 6.46667 C 7.07 g/m*3 6.47 C 0 km/h
Sensor: Nr:Datum:Temp:Abs-Feuchte:Windchill:Wind:
Aussen-T/F 2201 03-12-2019 17:00:00 5.98333 C 6.89 g/m*3 5.98 C 0 km/h
2202 03-12-2019 18:00:00 5.56667 C 6.71 g/m*3 5.57 C 0 km/h
2203 03-12-2019 19:00:00 5.29167 C 6.62 g/m*3 5.29 C 0.66667 km/h
2204 03-12-2019 20:00:00 4.93333 C 6.48 g/m*3 4.93 C 0 km/h
2205 03-12-2019 21:00:00 4.6 C 6.34 g/m*3 4.6 C 0 km/h
2206 03-12-2019 22:00:00 4.00833 C 6.09 g/m*3 4.01 C 2.4 km/h
2207 03-12-2019 23:00:00 3.46667 C 5.87 g/m*3 3.47 C 2.93333 km/h
2208 04-12-2019 00:00:00 2.41667 C 5.43 g/m*3 2.42 C 0.4 km/h
2209 04-12-2019 01:00:00 1.24167 C 5.04 g/m*3 1.24 C 0 km/h
2210 04-12-2019 02:00:00 0.90833 C 4.95 g/m*3 0.91 C 0 km/h
2211 04-12-2019 03:00:00 1.64167 C 5.26 g/m*3 1.64 C 0 km/h
2212 04-12-2019 04:00:00 1.74167 C 5.3 g/m*3 1.74 C 0 km/h
2213 04-12-2019 05:00:00 1.74167 C 5.3 g/m*3 1.74 C 0 km/h
2214 04-12-2019 06:00:00 1.93333 C 5.37 g/m*3 1.93 C 0.26667 km/h
2215 04-12-2019 07:00:00 1.81667 C 5.32 g/m*3 1.82 C 0.26667 km/h
2216 04-12-2019 08:00:00 1.725 C 5.29 g/m*3 1.73 C 0.13333 km/h
2217 04-12-2019 09:00:00 1.8 C 5.32 g/m*3 1.8 C 1.06667 km/h
2218 04-12-2019 10:00:00 1.83333 C 5.33 g/m*3 1.83 C 1.33333 km/h
2219 04-12-2019 11:00:00 1.83333 C 5.32 g/m*3 1.83 C 0 km/h
2220 04-12-2019 12:00:00 2.15 C 5.45 g/m*3 2.15 C 0.4 km/h
2221 04-12-2019 13:00:00 2.51667 C 5.58 g/m*3 2.52 C 1.46667 km/h
2222 04-12-2019 14:00:00 2.825 C 5.68 g/m*3 2.83 C 2.26667 km/h
2223 04-12-2019 15:00:00 2.58333 C 5.55 g/m*3 2.58 C 0 km/h
2224 04-12-2019 16:00:00 2.025 C 5.32 g/m*3 2.03 C 1.06667 km/h
2225 04-12-2019 17:00:00 1.43333 C 5.12 g/m*3 1.43 C 0 km/h
Sensor: Nr:Datum:Temp:Abs-Feuchte:Windchill:Wind:
Aussen-T/F 2226 04-12-2019 18:00:00 1.10833 C 5.01 g/m*3 1.11 C 0 km/h
2227 04-12-2019 19:00:00 0.41667 C 4.77 g/m*3 0.42 C 0 km/h
2228 04-12-2019 20:00:00 -0.08333 C 4.62 g/m*3 -0.08 C 0.4 km/h
2229 04-12-2019 21:00:00 -0.58333 C 4.47 g/m*3 -0.58 C 0.26667 km/h
2230 04-12-2019 22:00:00 -1.23333 C 4.27 g/m*3 -1.23 C 0 km/h
2231 04-12-2019 23:00:00 -1.54167 C 4.18 g/m*3 -1.54 C 0 km/h
2232 05-12-2019 00:00:00 -1.775 C 4.11 g/m*3 -1.78 C 0.13333 km/h
2233 05-12-2019 01:00:00 -1.78333 C 4.13 g/m*3 -1.78 C 0.13333 km/h
2234 05-12-2019 02:00:00 -1.86667 C 4.12 g/m*3 -1.87 C 0 km/h
2235 05-12-2019 03:00:00 -2.225 C 4 g/m*3 -2.23 C 0.66667 km/h
2236 05-12-2019 04:00:00 -1.84167 C 4.13 g/m*3 -1.84 C 1.06667 km/h
2237 05-12-2019 05:00:00 -1.75833 C 4.16 g/m*3 -1.76 C 0.4 km/h
2238 05-12-2019 06:00:00 -1.83333 C 4.14 g/m*3 -1.83 C 0.13333 km/h
2239 05-12-2019 07:00:00 -2.03333 C 4.08 g/m*3 -2.03 C 0.26667 km/h
2240 05-12-2019 08:00:00 -2.075 C 4.07 g/m*3 -2.08 C 0.13333 km/h
2241 05-12-2019 09:00:00 -1.81667 C 4.14 g/m*3 -1.82 C 1.2 km/h
2242 05-12-2019 10:00:00 -1.575 C 4.21 g/m*3 -1.58 C 1.06667 km/h
2243 05-12-2019 11:00:00 -0.94167 C 4.4 g/m*3 -0.94 C 2.13333 km/h
2244 05-12-2019 12:00:00 -0.44167 C 4.56 g/m*3 -0.44 C 1.46667 km/h
2245 05-12-2019 13:00:00 0 C 4.7 g/m*3 0 C 3.06667 km/h
2246 05-12-2019 14:00:00 0.6 C 4.9 g/m*3 0.6 C 2.4 km/h
2247 05-12-2019 15:00:00 0.675 C 4.92 g/m*3 0.68 C 1.6 km/h
2248 05-12-2019 16:00:00 0.29167 C 4.8 g/m*3 0.29 C 0 km/h
2249 05-12-2019 17:00:00 -0.225 C 4.63 g/m*3 -0.23 C 0 km/h
2250 05-12-2019 18:00:00 -0.825 C 4.44 g/m*3 -0.83 C 0.26667 km/h
Sensor: Nr:Datum:Temp:Abs-Feuchte:Windchill:Wind:
Aussen-T/F 2251 05-12-2019 19:00:00 -1.25833 C 4.31 g/m*3 -1.26 C 1.46667 km/h
2252 05-12-2019 20:00:00 -0.65833 C 4.5 g/m*3 -0.66 C 3.75 km/h
2253 05-12-2019 21:00:00 -1.16667 C 4.33 g/m*3 -1.17 C 1.86667 km/h
2254 05-12-2019 22:00:00 -1.39167 C 4.27 g/m*3 -1.39 C 1.73333 km/h
2255 05-12-2019 23:00:00 -1.825 C 4.14 g/m*3 -1.83 C 0.8 km/h
2256 06-12-2019 00:00:00 -2.28333 C 4.01 g/m*3 -2.28 C 0.8 km/h
2257 06-12-2019 01:00:00 -1.125 C 4.36 g/m*3 -1.13 C 2.66667 km/h
2258 06-12-2019 02:00:00 -0.575 C 4.52 g/m*3 -2.41 C 5.35833 km/h
2259 06-12-2019 03:00:00 -0.225 C 4.6 g/m*3 -1.89 C 5.09167 km/h
2260 06-12-2019 04:00:00 -0.10833 C 4.6 g/m*3 -0.11 C 3.75 km/h
2261 06-12-2019 05:00:00 0.13333 C 4.65 g/m*3 0.13 C 3.475 km/h
2262 06-12-2019 06:00:00 0.36667 C 4.7 g/m*3 0.37 C 3.48333 km/h
2263 06-12-2019 07:00:00 0.725 C 4.79 g/m*3 0.73 C 4.41667 km/h
2264 06-12-2019 08:00:00 1.31667 C 4.89 g/m*3 1.32 C 4.3 km/h
2265 06-12-2019 09:00:00 1.89167 C 5.11 g/m*3 0.3 C 5.625 km/h
2266 06-12-2019 10:00:00 2.65 C 5.43 g/m*3 2.65 C 2 km/h
2267 06-12-2019 11:00:00 3.86667 C 5.92 g/m*3 2.55 C 5.63333 km/h
2268 06-12-2019 12:00:00 4.7 C 6.23 g/m*3 3.32 C 6.16667 km/h
2269 06-12-2019 13:00:00 4.95833 C 6.44 g/m*3 3.49 C 6.56667 km/h
2270 06-12-2019 14:00:00 5.25833 C 6.57 g/m*3 5.26 C 2.53333 km/h
2271 06-12-2019 15:00:00 5.44167 C 6.65 g/m*3 4.4 C 5.5 km/h
2272 06-12-2019 16:00:00 5.95833 C 6.77 g/m*3 3.76 C 10.20833 km/h
2273 06-12-2019 17:00:00 6.225 C 6.7 g/m*3 4.59 C 7.925 km/h
2274 06-12-2019 18:00:00 6.65 C 6.82 g/m*3 4.51 C 10.61667 km/h
2275 06-12-2019 19:00:00 6.91667 C 6.95 g/m*3 4.01 C 15.7 km/h
Sensor: Nr:Datum:Temp:Abs-Feuchte:Windchill:Wind:
Aussen-T/F 2276 06-12-2019 20:00:00 7.28333 C 7.02 g/m*3 3.97 C 19.84167 km/h
2277 06-12-2019 21:00:00 7.19167 C 7.02 g/m*3 3.73 C 20.90833 km/h
2278 06-12-2019 22:00:00 7.25 C 7.03 g/m*3 4.03 C 18.91667 km/h
2279 06-12-2019 23:00:00 7.44167 C 7.12 g/m*3 5.18 C 12.23333 km/h
2280 07-12-2019 00:00:00 7.65 C 7.27 g/m*3 4.92 C 15.70833 km/h
2281 07-12-2019 01:00:00 8.09167 C 7.49 g/m*3 6.03 C 11.83333 km/h
2282 07-12-2019 02:00:00 8.14167 C 7.7 g/m*3 6.81 C 8.05833 km/h
2283 07-12-2019 03:00:00 8.68333 C 7.9 g/m*3 6.68 C 12.225 km/h
2284 07-12-2019 04:00:00 8.85833 C 7.8 g/m*3 7.65 C 8.05833 km/h
2285 07-12-2019 05:00:00 8.40833 C 7.74 g/m*3 7.41 C 6.85833 km/h
2286 07-12-2019 06:00:00 8.46667 C 7.51 g/m*3 6.89 C 9.53333 km/h
2287 07-12-2019 07:00:00 7.675 C 7.26 g/m*3 6.6 C 6.69167 km/h
2288 07-12-2019 08:00:00 8.35 C 7.6 g/m*3 7.15 C 7.65833 km/h
2289 07-12-2019 09:00:00 8.70833 C 7.77 g/m*3 8.71 C 3.75 km/h
2290 07-12-2019 10:00:00 9.19167 C 7.85 g/m*3 7.93 C 8.6 km/h
2291 07-12-2019 11:00:00 9.38333 C 8.12 g/m*3 8.95 C 5.35 km/h
2292 07-12-2019 12:00:00 9.5 C 7.87 g/m*3 8.21 C 9.025 km/h
2293 07-12-2019 13:00:00 10.025 C 7.76 g/m*3 8.65 C 10.08333 km/h
2294 07-12-2019 14:00:00 10.15 C 7.79 g/m*3 9.44 C 6.84167 km/h
2295 07-12-2019 15:00:00 10.06667 C 7.83 g/m*3 10.07 C 4.00833 km/h
2296 07-12-2019 16:00:00 9.39167 C 7.74 g/m*3 9.39 C 1.33333 km/h
2297 07-12-2019 17:00:00 8.74167 C 7.68 g/m*3 8.74 C 1.2 km/h
2298 07-12-2019 18:00:00 8.40833 C 7.58 g/m*3 8.41 C 1.46667 km/h
2299 07-12-2019 19:00:00 8.25 C 7.65 g/m*3 8.25 C 1.33333 km/h
2300 07-12-2019 20:00:00 8.01667 C 7.53 g/m*3 8.02 C 0.53333 km/h
Sensor: Nr:Datum:Temp:Abs-Feuchte:Windchill:Wind:
Aussen-T/F 2301 07-12-2019 21:00:00 8.26667 C 7.6 g/m*3 8.27 C 4.00833 km/h
2302 07-12-2019 22:00:00 8.39167 C 7.63 g/m*3 8.39 C 1.34167 km/h
2303 07-12-2019 23:00:00 8.2 C 7.65 g/m*3 8.2 C 2.54167 km/h
2304 08-12-2019 00:00:00 8.9 C 7.51 g/m*3 7.7 C 8.05 km/h
2305 08-12-2019 01:00:00 9.15833 C 7.55 g/m*3 8.35 C 6.575 km/h
2306 08-12-2019 02:00:00 9.44167 C 7.31 g/m*3 8.12 C 9.13333 km/h
2307 08-12-2019 03:00:00 9.55 C 7.36 g/m*3 7.9 C 11.14167 km/h
2308 08-12-2019 04:00:00 9.91667 C 7.7 g/m*3 7.68 C 16.1 km/h
2309 08-12-2019 05:00:00 9.89167 C 7.88 g/m*3 7.67 C 15.96667 km/h
2310 08-12-2019 06:00:00 10.08333 C 8.01 g/m*3 7.37 C 21.18333 km/h
2311 08-12-2019 07:00:00 10.425 C 8.05 g/m*3 8.22 C 16.9 km/h
2312 08-12-2019 08:00:00 10.56667 C 8.15 g/m*3 8 C 21.05 km/h
2313 08-12-2019 09:00:00 10.65 C 8.27 g/m*3 7.65 C 26.69167 km/h
2314 08-12-2019 10:00:00 10.75833 C 8.45 g/m*3 7.76 C 27.06667 km/h
2315 08-12-2019 11:00:00 11.01667 C 8.55 g/m*3 11.02 C 22.39167 km/h
2316 08-12-2019 12:00:00 11.54167 C 8.79 g/m*3 11.54 C 21.975 km/h
2317 08-12-2019 13:00:00 11.70833 C 9.05 g/m*3 11.71 C 18.375 km/h
2318 08-12-2019 14:00:00 11.9 C 9.21 g/m*3 11.9 C 16.23333 km/h
2319 08-12-2019 15:00:00 12.09167 C 9.32 g/m*3 12.09 C 15.03333 km/h
2320 08-12-2019 16:00:00 11.79167 C 9.27 g/m*3 11.79 C 15.16667 km/h
2321 08-12-2019 17:00:00 9.35 C 8.27 g/m*3 8.51 C 6.84167 km/h
2322 08-12-2019 18:00:00 8.775 C 8.05 g/m*3 7.78 C 7.09167 km/h
2323 08-12-2019 19:00:00 8.75 C 7.87 g/m*3 7.88 C 6.575 km/h
2324 08-12-2019 20:00:00 8.48333 C 7.78 g/m*3 7.04 C 8.85833 km/h
2325 08-12-2019 21:00:00 8.83333 C 7.59 g/m*3 7.01 C 11.3 km/h
Sensor: Nr:Datum:Temp:Abs-Feuchte:Windchill:Wind:
Aussen-T/F 2326 08-12-2019 22:00:00 8.80833 C 7.59 g/m*3 6.49 C 14.625 km/h
2327 08-12-2019 23:00:00 9.025 C 7.48 g/m*3 6.51 C 16.63333 km/h
2328 09-12-2019 00:00:00 8.75833 C 7.16 g/m*3 6.23 C 16.23333 km/h
2329 09-12-2019 01:00:00 8.575 C 6.96 g/m*3 5.58 C 19.96667 km/h
2330 09-12-2019 02:00:00 7.975 C 6.84 g/m*3 5.34 C 15.56667 km/h
2331 09-12-2019 03:00:00 7.95833 C 6.8 g/m*3 5.27 C 15.96667 km/h
2332 09-12-2019 04:00:00 8.15 C 6.91 g/m*3 5.06 C 19.85 km/h
2333 09-12-2019 05:00:00 7.85833 C 6.54 g/m*3 4.92 C 17.83333 km/h
2334 09-12-2019 06:00:00 7.99167 C 6.62 g/m*3 5.07 C 17.96667 km/h
2335 09-12-2019 07:00:00 8.04167 C 6.83 g/m*3 5.31 C 16.49167 km/h
2336 09-12-2019 08:00:00 8.26667 C 6.83 g/m*3 5.41 C 17.96667 km/h
2337 09-12-2019 09:00:00 8.20833 C 7 g/m*3 5.34 C 17.96667 km/h
2338 09-12-2019 10:00:00 8.30833 C 7.11 g/m*3 5.86 C 14.76667 km/h
2339 09-12-2019 11:00:00 8.54167 C 7.08 g/m*3 6.2 C 14.36667 km/h
2340 09-12-2019 12:00:00 8.5 C 7.09 g/m*3 6.53 C 11.825 km/h
2341 09-12-2019 13:00:00 8.63333 C 7.17 g/m*3 6.42 C 13.56667 km/h
2342 09-12-2019 14:00:00 8.85 C 7.11 g/m*3 6.95 C 11.83333 km/h
2343 09-12-2019 15:00:00 8.15 C 7.08 g/m*3 6.94 C 7.525 km/h
2344 09-12-2019 16:00:00 7.75833 C 6.76 g/m*3 6.24 C 8.60833 km/h
2345 09-12-2019 17:00:00 7.425 C 6.89 g/m*3 7.43 C 4.80833 km/h
2346 09-12-2019 18:00:00 6.84167 C 6.97 g/m*3 5.91 C 5.76667 km/h
2347 09-12-2019 19:00:00 6.58333 C 6.98 g/m*3 4.76 C 8.99167 km/h
2348 09-12-2019 20:00:00 6.575 C 6.88 g/m*3 3.76 C 14.5 km/h
2349 09-12-2019 21:00:00 6.24167 C 6.67 g/m*3 4.07 C 10.35 km/h
2350 09-12-2019 22:00:00 5.75 C 6.35 g/m*3 3.43 C 10.61667 km/h
Sensor: Nr:Datum:Temp:Abs-Feuchte:Windchill:Wind:
Aussen-T/F 2351 09-12-2019 23:00:00 5.39167 C 6.13 g/m*3 3.26 C 9.40833 km/h
2352 10-12-2019 00:00:00 4.79167 C 5.85 g/m*3 3.43 C 6.16667 km/h
2353 10-12-2019 01:00:00 3.8 C 5.61 g/m*3 3.8 C 3.33333 km/h
2354 10-12-2019 02:00:00 3.38333 C 5.49 g/m*3 3.38 C 3.60833 km/h
2355 10-12-2019 03:00:00 2.64167 C 5.37 g/m*3 2.64 C 2 km/h
2356 10-12-2019 04:00:00 2.025 C 5.21 g/m*3 2.03 C 1.33333 km/h
2357 10-12-2019 05:00:00 2.275 C 5.35 g/m*3 2.28 C 2.8 km/h
2358 10-12-2019 06:00:00 2.05833 C 5.24 g/m*3 2.06 C 2.93333 km/h
2359 10-12-2019 07:00:00 2.075 C 5.28 g/m*3 2.08 C 2.66667 km/h
2360 10-12-2019 08:00:00 1.56667 C 5.1 g/m*3 1.57 C 2.4 km/h
2361 10-12-2019 09:00:00 1.95833 C 5.26 g/m*3 1.96 C 2.66667 km/h
2362 10-12-2019 10:00:00 3.13333 C 5.62 g/m*3 3.13 C 2.40833 km/h
2363 10-12-2019 11:00:00 3.35833 C 5.66 g/m*3 2.02 C 5.49167 km/h
2364 10-12-2019 12:00:00 4.475 C 5.89 g/m*3 1.84 C 10.88333 km/h
2365 10-12-2019 13:00:00 5.21667 C 6.04 g/m*3 3.7 C 6.85833 km/h
2366 10-12-2019 14:00:00 5.00833 C 5.93 g/m*3 5.01 C 3.60833 km/h
2367 10-12-2019 15:00:00 4.13333 C 5.71 g/m*3 4.13 C 3.2 km/h
2368 10-12-2019 16:00:00 3.84167 C 5.58 g/m*3 3.84 C 3.88333 km/h
2369 10-12-2019 17:00:00 3.675 C 5.35 g/m*3 3.68 C 4.95 km/h
2370 10-12-2019 18:00:00 2.98333 C 5.26 g/m*3 2.98 C 0.4 km/h
2371 10-12-2019 19:00:00 2.44167 C 5.23 g/m*3 2.44 C 0.26667 km/h
2372 10-12-2019 20:00:00 3.10833 C 5.41 g/m*3 3.11 C 2.94167 km/h
2373 10-12-2019 21:00:00 3.18333 C 5.42 g/m*3 3.18 C 0.66667 km/h
2374 10-12-2019 22:00:00 3.08333 C 5.46 g/m*3 3.08 C 1.73333 km/h
2375 10-12-2019 23:00:00 3.725 C 5.63 g/m*3 3.73 C 1.06667 km/h
Sensor: Nr:Datum:Temp:Abs-Feuchte:Windchill:Wind:
Aussen-T/F 2376 11-12-2019 00:00:00 4.05833 C 5.66 g/m*3 4.06 C 1.2 km/h
2377 11-12-2019 01:00:00 4.275 C 5.66 g/m*3 4.28 C 0.93333 km/h
2378 11-12-2019 02:00:00 4.08333 C 5.73 g/m*3 4.08 C 1.33333 km/h
2379 11-12-2019 03:00:00 4.08333 C 5.77 g/m*3 4.08 C 1.33333 km/h
2380 11-12-2019 04:00:00 3.81667 C 5.78 g/m*3 3.82 C 0.93333 km/h
2381 11-12-2019 05:00:00 3.69167 C 5.83 g/m*3 3.69 C 0 km/h
2382 11-12-2019 06:00:00 3.425 C 5.81 g/m*3 3.43 C 0 km/h
2383 11-12-2019 07:00:00 3.33333 C 5.78 g/m*3 3.33 C 0 km/h
2384 11-12-2019 08:00:00 3.25833 C 5.79 g/m*3 3.26 C 0 km/h
2385 11-12-2019 09:00:00 3.26667 C 5.81 g/m*3 3.27 C 0 km/h
2386 11-12-2019 10:00:00 3.54167 C 5.92 g/m*3 3.54 C 0 km/h
2387 11-12-2019 11:00:00 3.75833 C 6.01 g/m*3 3.76 C 0 km/h
2388 11-12-2019 12:00:00 3.9 C 6.06 g/m*3 3.9 C 0 km/h
2389 11-12-2019 13:00:00 3.93333 C 6.08 g/m*3 3.93 C 0 km/h
2390 11-12-2019 14:00:00 4.09167 C 6.14 g/m*3 4.09 C 0 km/h
2391 11-12-2019 15:00:00 4.2 C 6.19 g/m*3 4.2 C 0 km/h
2392 11-12-2019 16:00:00 4.11667 C 6.16 g/m*3 4.12 C 0 km/h
2393 11-12-2019 17:00:00 3.91667 C 6.07 g/m*3 3.92 C 0.26667 km/h
2394 11-12-2019 18:00:00 4.13333 C 6.22 g/m*3 4.13 C 0 km/h
2395 11-12-2019 19:00:00 4.35 C 6.31 g/m*3 4.35 C 0 km/h
2396 11-12-2019 20:00:00 4.60833 C 6.42 g/m*3 4.61 C 2.15 km/h
2397 11-12-2019 21:00:00 4.75833 C 6.49 g/m*3 2.41 C 9.81667 km/h
2398 11-12-2019 22:00:00 4.525 C 6.35 g/m*3 2.67 C 7.65 km/h
2399 11-12-2019 23:00:00 4.225 C 6.21 g/m*3 4.22 C 2.93333 km/h
2400 12-12-2019 00:00:00 3.69167 C 6.01 g/m*3 3.69 C 0.8 km/h
Sensor: Nr:Datum:Temp:Abs-Feuchte:Windchill:Wind:
Aussen-T/F 2401 12-12-2019 01:00:00 3.36667 C 5.9 g/m*3 3.37 C 1.73333 km/h
2402 12-12-2019 02:00:00 2.83333 C 5.7 g/m*3 2.83 C 0 km/h
2403 12-12-2019 03:00:00 3.29167 C 5.88 g/m*3 3.29 C 0.8 km/h
2404 12-12-2019 04:00:00 3.69167 C 6.04 g/m*3 3.69 C 0 km/h
2405 12-12-2019 05:00:00 3.175 C 5.84 g/m*3 3.18 C 0 km/h
2406 12-12-2019 06:00:00 2.95 C 5.75 g/m*3 2.95 C 0.53333 km/h
2407 12-12-2019 07:00:00 3.75 C 6.1 g/m*3 3.75 C 0 km/h
2408 12-12-2019 08:00:00 4.025 C 6.21 g/m*3 4.03 C 0 km/h
2409 12-12-2019 09:00:00 4.525 C 6.45 g/m*3 4.53 C 0.8 km/h
2410 12-12-2019 10:00:00 4.80833 C 6.56 g/m*3 3.63 C 5.625 km/h
2411 12-12-2019 11:00:00 4.9 C 6.51 g/m*3 3.47 C 6.43333 km/h
2412 12-12-2019 12:00:00 5.2 C 6.35 g/m*3 3.36 C 8.05 km/h
2413 12-12-2019 13:00:00 5.14167 C 6.05 g/m*3 3.22 C 8.33333 km/h
2414 12-12-2019 14:00:00 5.14167 C 5.87 g/m*3 3.96 C 5.775 km/h
2415 12-12-2019 15:00:00 4.875 C 5.86 g/m*3 3.08 C 7.64167 km/h
2416 12-12-2019 16:00:00 4.38333 C 5.66 g/m*3 4.38 C 1.86667 km/h
2417 12-12-2019 17:00:00 2.875 C 5.28 g/m*3 2.88 C 1.06667 km/h
2418 12-12-2019 18:00:00 2.00833 C 5.2 g/m*3 2.01 C 1.46667 km/h
2419 12-12-2019 19:00:00 1.68333 C 5.13 g/m*3 1.68 C 1.06667 km/h
2420 12-12-2019 20:00:00 1.675 C 5.16 g/m*3 1.68 C 1.6 km/h
2421 12-12-2019 21:00:00 2.31667 C 5.31 g/m*3 2.32 C 3.06667 km/h
2422 12-12-2019 22:00:00 1.85833 C 5.1 g/m*3 1.86 C 1.73333 km/h
2423 12-12-2019 23:00:00 2.4 C 5.21 g/m*3 0.99 C 5.35 km/h
2424 13-12-2019 00:00:00 2.38333 C 5.1 g/m*3 0.96 C 5.35833 km/h
2425 13-12-2019 01:00:00 2.78333 C 5.13 g/m*3 0.12 C 9.53333 km/h
Sensor: Nr:Datum:Temp:Abs-Feuchte:Windchill:Wind:
Aussen-T/F 2426 13-12-2019 02:00:00 2.9 C 5.13 g/m*3 0.47 C 8.725 km/h
2427 13-12-2019 03:00:00 2.725 C 5.13 g/m*3 -0.01 C 9.80833 km/h
2428 13-12-2019 04:00:00 2.525 C 5.19 g/m*3 -0.19 C 9.55 km/h
2429 13-12-2019 05:00:00 2.63333 C 5.28 g/m*3 0.85 C 6.43333 km/h
2430 13-12-2019 06:00:00 2.86667 C 5.38 g/m*3 1.52 C 5.35 km/h
2431 13-12-2019 07:00:00 2.85833 C 5.47 g/m*3 1.06 C 6.56667 km/h
2432 13-12-2019 08:00:00 2.83333 C 5.51 g/m*3 1.08 C 6.44167 km/h
2433 13-12-2019 09:00:00 2.8 C 5.53 g/m*3 2.8 C 4.83333 km/h
2434 13-12-2019 10:00:00 3 C 5.65 g/m*3 3 C 0.53333 km/h
2435 13-12-2019 11:00:00 3.35833 C 5.82 g/m*3 3.36 C 0.53333 km/h
2436 13-12-2019 12:00:00 4.09167 C 6.14 g/m*3 4.09 C 0.53333 km/h
2437 13-12-2019 13:00:00 5.2 C 6.66 g/m*3 5.2 C 2.675 km/h
2438 13-12-2019 14:00:00 6.93333 C 7.16 g/m*3 4.13 C 15.03333 km/h
2439 13-12-2019 15:00:00 6.675 C 6.87 g/m*3 3.97 C 13.96667 km/h
2440 13-12-2019 16:00:00 5.96667 C 6.52 g/m*3 3.41 C 12.1 km/h
2441 13-12-2019 17:00:00 5.23333 C 6.33 g/m*3 2.55 C 11.96667 km/h
2442 13-12-2019 18:00:00 4.73333 C 6.25 g/m*3 2.95 C 7.525 km/h
2443 13-12-2019 19:00:00 4.76667 C 6.29 g/m*3 2.19 C 10.88333 km/h
2444 13-12-2019 20:00:00 5.26667 C 6.44 g/m*3 2.49 C 12.49167 km/h
2445 13-12-2019 21:00:00 5.13333 C 6.39 g/m*3 2.95 C 9.40833 km/h
2446 13-12-2019 22:00:00 5.05833 C 6.29 g/m*3 3.26 C 7.79167 km/h
2447 13-12-2019 23:00:00 5.60833 C 6.44 g/m*3 3.1 C 11.43333 km/h
2448 14-12-2019 00:00:00 5.46667 C 6.37 g/m*3 5.47 C 4.28333 km/h
2449 14-12-2019 01:00:00 5.89167 C 6.33 g/m*3 3.47 C 11.28333 km/h
2450 14-12-2019 02:00:00 5.71667 C 6.3 g/m*3 5.72 C 2.53333 km/h
Sensor: Nr:Datum:Temp:Abs-Feuchte:Windchill:Wind:
Aussen-T/F 2451 14-12-2019 03:00:00 5.33333 C 6.37 g/m*3 5.33 C 2.93333 km/h
2452 14-12-2019 04:00:00 4.89167 C 6.31 g/m*3 4.89 C 1.2 km/h
2453 14-12-2019 05:00:00 4.5 C 6.22 g/m*3 4.5 C 1.2 km/h
2454 14-12-2019 06:00:00 5.18333 C 6.6 g/m*3 3.17 C 8.725 km/h
2455 14-12-2019 07:00:00 6.75 C 7.25 g/m*3 4.43 C 11.69167 km/h
2456 14-12-2019 08:00:00 7.4 C 6.97 g/m*3 3.96 C 21.30833 km/h
2457 14-12-2019 09:00:00 7.2 C 6.4 g/m*3 4 C 18.64167 km/h
2458 14-12-2019 10:00:00 7.09167 C 6.52 g/m*3 4.89 C 11.425 km/h
2459 14-12-2019 11:00:00 7.03333 C 6.55 g/m*3 4.05 C 16.5 km/h
2460 14-12-2019 12:00:00 7.58333 C 6 g/m*3 4.16 C 21.58333 km/h
2461 14-12-2019 13:00:00 8.45 C 6.16 g/m*3 5.42 C 19.96667 km/h
2462 14-12-2019 14:00:00 8.76667 C 6.51 g/m*3 5.96 C 18.63333 km/h
2463 14-12-2019 15:00:00 7.825 C 6.95 g/m*3 5.12 C 15.825 km/h
2464 14-12-2019 16:00:00 7.875 C 6.82 g/m*3 4.97 C 17.56667 km/h
2465 14-12-2019 17:00:00 8.03333 C 6.94 g/m*3 5.35 C 16.1 km/h
2466 14-12-2019 18:00:00 7.95833 C 6.92 g/m*3 5.09 C 17.43333 km/h
2467 14-12-2019 19:00:00 7.04167 C 6.53 g/m*3 5.61 C 7.66667 km/h
2468 14-12-2019 20:00:00 6.88333 C 6.45 g/m*3 5.54 C 7.23333 km/h
2469 14-12-2019 21:00:00 7.375 C 6.7 g/m*3 5.1 C 12.23333 km/h
2470 14-12-2019 22:00:00 7.45833 C 6.77 g/m*3 5.26 C 11.825 km/h
2471 14-12-2019 23:00:00 7.73333 C 6.83 g/m*3 5.88 C 10.21667 km/h
2472 15-12-2019 00:00:00 6.84167 C 6.64 g/m*3 6.84 C 2.40833 km/h
2473 15-12-2019 01:00:00 6.325 C 6.64 g/m*3 6.33 C 2.675 km/h
2474 15-12-2019 02:00:00 6.76667 C 6.97 g/m*3 6.77 C 2.14167 km/h
2475 15-12-2019 03:00:00 6.99167 C 7.3 g/m*3 6.99 C 0.66667 km/h
Sensor: Nr:Datum:Temp:Abs-Feuchte:Windchill:Wind:
Aussen-T/F 2476 15-12-2019 04:00:00 8.23333 C 8.05 g/m*3 7.51 C 5.75833 km/h
2477 15-12-2019 05:00:00 9.40833 C 8.53 g/m*3 7.57 C 12.19167 km/h
2478 15-12-2019 06:00:00 10.84167 C 8.67 g/m*3 8.16 C 23.19167 km/h
2479 15-12-2019 07:00:00 11 C 8.51 g/m*3 8.3 C 24 km/h
2480 15-12-2019 08:00:00 11.075 C 8.66 g/m*3 11.08 C 19.71667 km/h
2481 15-12-2019 09:00:00 9.46667 C 8.37 g/m*3 8.18 C 8.99167 km/h
2482 15-12-2019 10:00:00 8.7 C 8.08 g/m*3 8.7 C 4.81667 km/h
2483 15-12-2019 11:00:00 8.75833 C 7.8 g/m*3 7.21 C 9.68333 km/h
2484 15-12-2019 12:00:00 8.625 C 7.56 g/m*3 7.1 C 9.41667 km/h
2485 15-12-2019 13:00:00 9.15 C 7.41 g/m*3 7.31 C 11.83333 km/h
2486 15-12-2019 14:00:00 9.30833 C 7.19 g/m*3 7.42 C 12.35833 km/h
2487 15-12-2019 15:00:00 9.10833 C 6.98 g/m*3 6.91 C 14.23333 km/h
2488 15-12-2019 16:00:00 8.48333 C 6.65 g/m*3 6.42 C 12.35833 km/h
2489 15-12-2019 17:00:00 7.85833 C 6.6 g/m*3 5.96 C 10.625 km/h
2490 15-12-2019 18:00:00 7.65833 C 6.66 g/m*3 6.44 C 7.25833 km/h
2491 15-12-2019 19:00:00 6.325 C 6.55 g/m*3 6.33 C 1.46667 km/h
2492 15-12-2019 20:00:00 5.675 C 6.47 g/m*3 5.68 C 0 km/h
2493 15-12-2019 21:00:00 4.39167 C 6.05 g/m*3 4.39 C 0 km/h
2494 15-12-2019 22:00:00 4.25833 C 6.14 g/m*3 4.26 C 0 km/h
2495 15-12-2019 23:00:00 4.36667 C 6.21 g/m*3 4.37 C 0 km/h
2496 16-12-2019 00:00:00 5 C 6.52 g/m*3 5 C 0.4 km/h
2497 16-12-2019 01:00:00 5.85 C 6.94 g/m*3 5.85 C 2 km/h
2498 16-12-2019 02:00:00 6.44167 C 7.24 g/m*3 6.44 C 0 km/h
2499 16-12-2019 03:00:00 6.65833 C 7.35 g/m*3 6.66 C 0.13333 km/h
2500 16-12-2019 04:00:00 6.875 C 7.46 g/m*3 6.88 C 0.4 km/h
Sensor: Nr:Datum:Temp:Abs-Feuchte:Windchill:Wind:
Aussen-T/F 2501 16-12-2019 05:00:00 7.325 C 7.68 g/m*3 7.33 C 1.6 km/h
2502 16-12-2019 06:00:00 7.64167 C 7.84 g/m*3 7.64 C 1.06667 km/h
2503 16-12-2019 07:00:00 7.575 C 7.8 g/m*3 7.58 C 0.66667 km/h
2504 16-12-2019 08:00:00 7.8 C 7.92 g/m*3 7.8 C 1.06667 km/h
2505 16-12-2019 09:00:00 8.15833 C 8.12 g/m*3 8.16 C 0 km/h
2506 16-12-2019 10:00:00 8.49167 C 8.31 g/m*3 8.49 C 0 km/h
2507 16-12-2019 11:00:00 9.225 C 8.77 g/m*3 9.23 C 0 km/h
2508 16-12-2019 12:00:00 9.8 C 9.09 g/m*3 9.8 C 0 km/h
2509 16-12-2019 13:00:00 10.26667 C 9.37 g/m*3 10.27 C 0 km/h
2510 16-12-2019 14:00:00 10.41667 C 9.37 g/m*3 10.42 C 0.26667 km/h
2511 16-12-2019 15:00:00 10.09167 C 9.17 g/m*3 10.09 C 0.4 km/h
2512 16-12-2019 16:00:00 9.1 C 8.56 g/m*3 9.1 C 2 km/h
2513 16-12-2019 17:00:00 8.15833 C 8.06 g/m*3 8.16 C 1.73333 km/h
2514 16-12-2019 18:00:00 8.35833 C 8.21 g/m*3 8.36 C 4.01667 km/h
2515 16-12-2019 19:00:00 8.7 C 8.33 g/m*3 8.7 C 4.55833 km/h
2516 16-12-2019 20:00:00 8.66667 C 8.27 g/m*3 8.67 C 3.2 km/h
2517 16-12-2019 21:00:00 8.15833 C 7.96 g/m*3 8.16 C 3.20833 km/h
2518 16-12-2019 22:00:00 8.10833 C 7.97 g/m*3 8.11 C 2.93333 km/h
2519 16-12-2019 23:00:00 8.24167 C 8.04 g/m*3 8.24 C 1.73333 km/h
2520 17-12-2019 00:00:00 8.2 C 8 g/m*3 8.2 C 0.8 km/h
2521 17-12-2019 01:00:00 8.09167 C 7.97 g/m*3 8.09 C 1.33333 km/h
2522 17-12-2019 02:00:00 8.11667 C 7.91 g/m*3 8.12 C 2.53333 km/h
2523 17-12-2019 03:00:00 9.125 C 8.28 g/m*3 9.13 C 3.33333 km/h
2524 17-12-2019 04:00:00 9.44167 C 8.25 g/m*3 9.44 C 0.4 km/h
2525 17-12-2019 05:00:00 9.15 C 8.2 g/m*3 9.15 C 0 km/h
Sensor: Nr:Datum:Temp:Abs-Feuchte:Windchill:Wind:
Aussen-T/F 2526 17-12-2019 06:00:00 8.53333 C 7.98 g/m*3 8.53 C 0 km/h
2527 17-12-2019 07:00:00 8.33333 C 7.94 g/m*3 8.33 C 0 km/h
2528 17-12-2019 08:00:00 7.93333 C 7.72 g/m*3 7.93 C 0 km/h
2529 17-12-2019 09:00:00 7.525 C 7.58 g/m*3 7.53 C 0 km/h
2530 17-12-2019 10:00:00 7.51667 C 7.64 g/m*3 7.52 C 0 km/h
2531 17-12-2019 11:00:00 8.95833 C 8.4 g/m*3 8.96 C 0 km/h
2532 17-12-2019 12:00:00 9.98333 C 8.84 g/m*3 9.98 C 0 km/h
2533 17-12-2019 13:00:00 11.10833 C 9.29 g/m*3 11.11 C 0 km/h
2534 17-12-2019 14:00:00 12.41667 C 9.5 g/m*3 12.42 C 1.33333 km/h
2535 17-12-2019 15:00:00 12.54167 C 9.29 g/m*3 12.54 C 2.675 km/h
2536 17-12-2019 16:00:00 12.93333 C 9.18 g/m*3 12.93 C 2.275 km/h
2537 17-12-2019 17:00:00 13 C 8.88 g/m*3 13 C 6.55833 km/h
2538 17-12-2019 18:00:00 14.08333 C 9.39 g/m*3 14.08 C 7.93333 km/h
2539 17-12-2019 19:00:00 13.34167 C 9.63 g/m*3 13.34 C 7.39167 km/h
2540 17-12-2019 20:00:00 12.59167 C 9.83 g/m*3 12.59 C 3.34167 km/h
2541 17-12-2019 21:00:00 11.76667 C 9.58 g/m*3 11.77 C 5.09167 km/h
2542 17-12-2019 22:00:00 13.26667 C 9.58 g/m*3 13.27 C 15.16667 km/h
2543 17-12-2019 23:00:00 12.375 C 9.55 g/m*3 12.38 C 13.425 km/h
2544 18-12-2019 00:00:00 11.4 C 9.26 g/m*3 11.4 C 11.40833 km/h
2545 18-12-2019 01:00:00 11.31667 C 9.1 g/m*3 11.32 C 10.75 km/h
2546 18-12-2019 02:00:00 11.45833 C 9.26 g/m*3 11.46 C 8.85 km/h
2547 18-12-2019 03:00:00 11.19167 C 9.32 g/m*3 11.19 C 2.13333 km/h
2548 18-12-2019 04:00:00 10.53333 C 8.95 g/m*3 10.53 C 4.95833 km/h
2549 18-12-2019 05:00:00 9.69167 C 8.42 g/m*3 9.69 C 0.4 km/h
2550 18-12-2019 06:00:00 8.7 C 8.03 g/m*3 8.7 C 0.4 km/h
Sensor: Nr:Datum:Temp:Abs-Feuchte:Windchill:Wind:
Aussen-T/F 2551 18-12-2019 07:00:00 7.99167 C 7.76 g/m*3 7.99 C 0.13333 km/h
2552 18-12-2019 08:00:00 7.475 C 7.58 g/m*3 7.48 C 0 km/h
2553 18-12-2019 09:00:00 7.29167 C 7.54 g/m*3 7.29 C 0 km/h
2554 18-12-2019 10:00:00 7.79167 C 7.83 g/m*3 7.79 C 0.13333 km/h
2555 18-12-2019 11:00:00 7.60833 C 7.66 g/m*3 7.61 C 1.06667 km/h
2556 18-12-2019 12:00:00 8.43333 C 7.9 g/m*3 7.82 C 5.5 km/h
2557 18-12-2019 13:00:00 8.66667 C 7.8 g/m*3 8.67 C 2 km/h
2558 18-12-2019 14:00:00 8.175 C 7.7 g/m*3 8.18 C 1.2 km/h
2559 18-12-2019 15:00:00 7.55 C 7.48 g/m*3 7.55 C 2.26667 km/h
2560 18-12-2019 16:00:00 6.88333 C 7.22 g/m*3 6.88 C 3.86667 km/h
2561 18-12-2019 17:00:00 5.93333 C 6.79 g/m*3 5.93 C 1.46667 km/h
2562 18-12-2019 18:00:00 5.4 C 6.66 g/m*3 5.4 C 1.06667 km/h
2563 18-12-2019 19:00:00 5.58333 C 6.78 g/m*3 5.58 C 1.33333 km/h
2564 18-12-2019 20:00:00 5.39167 C 6.69 g/m*3 5.39 C 1.46667 km/h
2565 18-12-2019 21:00:00 4.74167 C 6.41 g/m*3 4.74 C 0 km/h
2566 18-12-2019 22:00:00 3.95833 C 6.09 g/m*3 3.96 C 0.13333 km/h
2567 18-12-2019 23:00:00 3.31667 C 5.84 g/m*3 3.32 C 0 km/h
2568 19-12-2019 00:00:00 3.05833 C 5.77 g/m*3 3.06 C 0.13333 km/h
2569 19-12-2019 01:00:00 2.91667 C 5.73 g/m*3 2.92 C 0.4 km/h
2570 19-12-2019 02:00:00 2.875 C 5.72 g/m*3 2.88 C 0 km/h
2571 19-12-2019 03:00:00 2.675 C 5.64 g/m*3 2.68 C 0.26667 km/h
2572 19-12-2019 04:00:00 2.39167 C 5.54 g/m*3 2.39 C 0 km/h
2573 19-12-2019 05:00:00 2.18333 C 5.46 g/m*3 2.18 C 0 km/h
2574 19-12-2019 06:00:00 1.875 C 5.34 g/m*3 1.88 C 0.4 km/h
2575 19-12-2019 07:00:00 3.075 C 5.83 g/m*3 3.08 C 2.26667 km/h
Sensor: Nr:Datum:Temp:Abs-Feuchte:Windchill:Wind:
Aussen-T/F 2576 19-12-2019 08:00:00 5.05833 C 6.68 g/m*3 5.06 C 1.46667 km/h
2577 19-12-2019 09:00:00 5.24167 C 6.77 g/m*3 5.24 C 1.33333 km/h
2578 19-12-2019 10:00:00 6.75833 C 7.47 g/m*3 6.76 C 4.15 km/h
2579 19-12-2019 11:00:00 7.35 C 7.77 g/m*3 7.35 C 2.13333 km/h
2580 19-12-2019 12:00:00 7.59167 C 7.89 g/m*3 7.59 C 1.875 km/h
2581 19-12-2019 13:00:00 7.88333 C 8.04 g/m*3 7.88 C 2.8 km/h
2582 19-12-2019 14:00:00 7.96667 C 8.03 g/m*3 7.97 C 2.8 km/h
2583 19-12-2019 15:00:00 9.23333 C 8.3 g/m*3 7.98 C 8.59167 km/h
2584 19-12-2019 16:00:00 9.61667 C 7.98 g/m*3 8.51 C 8.20833 km/h
2585 19-12-2019 17:00:00 7.6 C 7.17 g/m*3 7.6 C 0.8 km/h
2586 19-12-2019 18:00:00 6.30833 C 6.98 g/m*3 6.31 C 1.86667 km/h
2587 19-12-2019 19:00:00 6.29167 C 7.01 g/m*3 6.29 C 0.53333 km/h
2588 19-12-2019 20:00:00 6.23333 C 7.03 g/m*3 6.23 C 3.74167 km/h
2589 19-12-2019 21:00:00 6.65833 C 7.21 g/m*3 6.66 C 1.86667 km/h
2590 19-12-2019 22:00:00 6.75833 C 7.27 g/m*3 6.76 C 0.53333 km/h
2591 19-12-2019 23:00:00 6.31667 C 7.08 g/m*3 6.32 C 0.26667 km/h
2592 20-12-2019 00:00:00 5.44167 C 6.65 g/m*3 5.44 C 1.46667 km/h
2593 20-12-2019 01:00:00 4.30833 C 6.21 g/m*3 4.31 C 0.93333 km/h
2594 20-12-2019 02:00:00 4 C 6.12 g/m*3 4 C 2.275 km/h
2595 20-12-2019 03:00:00 5.275 C 6.71 g/m*3 4.12 C 5.75833 km/h
2596 20-12-2019 04:00:00 5.36667 C 6.7 g/m*3 5.37 C 2.4 km/h
2597 20-12-2019 05:00:00 6 C 6.94 g/m*3 5.14 C 5.21667 km/h
2598 20-12-2019 06:00:00 6.7 C 6.94 g/m*3 5.15 C 7.925 km/h
2599 20-12-2019 07:00:00 7.35 C 6.91 g/m*3 6.58 C 5.5 km/h
2600 20-12-2019 08:00:00 7.525 C 7.02 g/m*3 7.53 C 1.06667 km/h
Sensor: Nr:Datum:Temp:Abs-Feuchte:Windchill:Wind:
Aussen-T/F 2601 20-12-2019 09:00:00 7.375 C 7.13 g/m*3 7.38 C 1.46667 km/h
2602 20-12-2019 10:00:00 7.06667 C 7.09 g/m*3 7.07 C 1.2 km/h
2603 20-12-2019 11:00:00 7.275 C 7.46 g/m*3 7.28 C 2.55 km/h
2604 20-12-2019 12:00:00 8.375 C 8.05 g/m*3 7.17 C 7.66667 km/h
2605 20-12-2019 13:00:00 9.20833 C 8.44 g/m*3 7.58 C 10.60833 km/h
2606 20-12-2019 14:00:00 9.38333 C 8.46 g/m*3 8.02 C 9.29167 km/h
2607 20-12-2019 15:00:00 9.2 C 8.41 g/m*3 9.2 C 4.94167 km/h
2608 20-12-2019 16:00:00 9.325 C 8.6 g/m*3 9.32 C 4.66667 km/h
2609 20-12-2019 17:00:00 9.79167 C 8.83 g/m*3 9.79 C 4.55833 km/h
2610 20-12-2019 18:00:00 9.66667 C 8.72 g/m*3 8.78 C 7.24167 km/h
2611 20-12-2019 19:00:00 10.18333 C 8.56 g/m*3 8.58 C 11.7 km/h
2612 20-12-2019 20:00:00 9.76667 C 8.1 g/m*3 8.29 C 10.34167 km/h
2613 20-12-2019 21:00:00 9.10833 C 7.7 g/m*3 7.89 C 8.325 km/h
2614 20-12-2019 22:00:00 9.05 C 7.57 g/m*3 7.51 C 9.91667 km/h
2615 20-12-2019 23:00:00 8.84167 C 7.54 g/m*3 8.33 C 5.35 km/h
2616 21-12-2019 00:00:00 8.34167 C 7.42 g/m*3 8.34 C 2.94167 km/h
2617 21-12-2019 01:00:00 8.075 C 7.5 g/m*3 8.07 C 0.4 km/h
2618 21-12-2019 02:00:00 8.34167 C 7.62 g/m*3 8.34 C 3.35 km/h
2619 21-12-2019 03:00:00 8.225 C 7.55 g/m*3 8.23 C 0.66667 km/h
2620 21-12-2019 04:00:00 7.60833 C 7.36 g/m*3 7.61 C 0.8 km/h
2621 21-12-2019 05:00:00 6.69167 C 7.06 g/m*3 6.69 C 2.13333 km/h
2622 21-12-2019 06:00:00 5.60833 C 6.63 g/m*3 5.61 C 1.6 km/h
2623 21-12-2019 07:00:00 4.74167 C 6.32 g/m*3 4.74 C 0 km/h
2624 21-12-2019 08:00:00 4.725 C 6.39 g/m*3 4.72 C 2.00833 km/h
2625 21-12-2019 09:00:00 5.5 C 6.74 g/m*3 5.5 C 1.33333 km/h
Sensor: Nr:Datum:Temp:Abs-Feuchte:Windchill:Wind:
Aussen-T/F 2626 21-12-2019 10:00:00 5.85833 C 6.83 g/m*3 5.86 C 0.93333 km/h
2627 21-12-2019 11:00:00 6.30833 C 7.04 g/m*3 6.31 C 0.26667 km/h
2628 21-12-2019 12:00:00 6.88333 C 7.27 g/m*3 6.88 C 4.55833 km/h
2629 21-12-2019 13:00:00 8.01667 C 7.43 g/m*3 8.02 C 4.56667 km/h
2630 21-12-2019 14:00:00 9.05833 C 7.54 g/m*3 9.06 C 3.74167 km/h
2631 21-12-2019 15:00:00 9.10833 C 7.45 g/m*3 9.11 C 4.425 km/h
2632 21-12-2019 16:00:00 8.325 C 7.39 g/m*3 8.32 C 1.2 km/h
2633 21-12-2019 17:00:00 8.04167 C 7.38 g/m*3 8.04 C 0.53333 km/h
2634 21-12-2019 18:00:00 8.125 C 7.2 g/m*3 8.13 C 4.29167 km/h
2635 21-12-2019 19:00:00 7.875 C 7.12 g/m*3 7.88 C 1.2 km/h
2636 21-12-2019 20:00:00 7.76667 C 7.04 g/m*3 7.77 C 1.2 km/h
2637 21-12-2019 21:00:00 7.13333 C 6.9 g/m*3 7.13 C 1.46667 km/h
2638 21-12-2019 22:00:00 6.56667 C 6.62 g/m*3 5.78 C 5.21667 km/h
2639 21-12-2019 23:00:00 7.03333 C 6.56 g/m*3 5.78 C 6.99167 km/h
2640 22-12-2019 00:00:00 7.48333 C 6.8 g/m*3 5.67 C 9.79167 km/h
2641 22-12-2019 01:00:00 6.98333 C 7.04 g/m*3 6.98 C 4.275 km/h
2642 22-12-2019 02:00:00 6.75 C 7.09 g/m*3 5.85 C 5.63333 km/h
2643 22-12-2019 03:00:00 6.95 C 7.14 g/m*3 6.95 C 4.68333 km/h
2644 22-12-2019 04:00:00 7.06667 C 7.16 g/m*3 7.07 C 3.475 km/h
2645 22-12-2019 05:00:00 6.89167 C 7.08 g/m*3 6.89 C 3.075 km/h
2646 22-12-2019 06:00:00 6.48333 C 7 g/m*3 6.48 C 3.34167 km/h
2647 22-12-2019 07:00:00 6.83333 C 7.22 g/m*3 6.83 C 1.875 km/h
2648 22-12-2019 08:00:00 6.975 C 7.34 g/m*3 6.98 C 1.06667 km/h
2649 22-12-2019 09:00:00 7.29167 C 7.5 g/m*3 7.29 C 2.275 km/h
2650 22-12-2019 10:00:00 8.56667 C 7.98 g/m*3 8.57 C 4.14167 km/h
Sensor: Nr:Datum:Temp:Abs-Feuchte:Windchill:Wind:
Aussen-T/F 2651 22-12-2019 11:00:00 10.06667 C 8.22 g/m*3 9.31 C 6.98333 km/h
2652 22-12-2019 12:00:00 10.70833 C 8.42 g/m*3 9.88 C 7.80833 km/h
2653 22-12-2019 13:00:00 10.95 C 8.36 g/m*3 9.26 C 13.56667 km/h
2654 22-12-2019 14:00:00 11.06667 C 8.24 g/m*3 11.07 C 12.9 km/h
2655 22-12-2019 15:00:00 10.44167 C 8.12 g/m*3 8.08 C 18.50833 km/h
2656 22-12-2019 16:00:00 9.34167 C 7.58 g/m*3 7.02 C 15.69167 km/h
2657 22-12-2019 17:00:00 8.16667 C 7.4 g/m*3 5.68 C 14.76667 km/h
2658 22-12-2019 18:00:00 7.825 C 7.3 g/m*3 5.78 C 11.425 km/h
2659 22-12-2019 19:00:00 7.88333 C 7.41 g/m*3 5.84 C 11.43333 km/h
2660 22-12-2019 20:00:00 8.4 C 7.18 g/m*3 6.12 C 13.7 km/h
2661 22-12-2019 21:00:00 8.34167 C 7.16 g/m*3 6.31 C 11.96667 km/h
2662 22-12-2019 22:00:00 7.85 C 7.07 g/m*3 6.6 C 7.51667 km/h
2663 22-12-2019 23:00:00 7.09167 C 7.02 g/m*3 7.09 C 1.33333 km/h
2664 23-12-2019 00:00:00 7.14167 C 7.12 g/m*3 7.14 C 2.26667 km/h
2665 23-12-2019 01:00:00 7.325 C 7.1 g/m*3 6.39 C 6.03333 km/h
2666 23-12-2019 02:00:00 7.35833 C 7.05 g/m*3 5.95 C 7.79167 km/h
2667 23-12-2019 03:00:00 7.15 C 7.04 g/m*3 5.61 C 8.19167 km/h
2668 23-12-2019 04:00:00 7.25833 C 7.1 g/m*3 6.52 C 5.35833 km/h
2669 23-12-2019 05:00:00 7.23333 C 7.19 g/m*3 6.28 C 6.03333 km/h
2670 23-12-2019 06:00:00 7.21667 C 7.21 g/m*3 6.52 C 5.225 km/h
2671 23-12-2019 07:00:00 7.56667 C 7.36 g/m*3 6.58 C 6.30833 km/h
2672 23-12-2019 08:00:00 7.85833 C 7.35 g/m*3 6.51 C 7.90833 km/h
2673 23-12-2019 09:00:00 8.15833 C 7.37 g/m*3 6.32 C 10.61667 km/h
2674 23-12-2019 10:00:00 7.89167 C 7.48 g/m*3 6.64 C 7.51667 km/h
2675 23-12-2019 11:00:00 8.425 C 7.57 g/m*3 7.03 C 8.6 km/h
Sensor: Nr:Datum:Temp:Abs-Feuchte:Windchill:Wind:
Aussen-T/F 2676 23-12-2019 12:00:00 9.28333 C 7.6 g/m*3 8.04 C 8.60833 km/h
2677 23-12-2019 13:00:00 9.125 C 7.76 g/m*3 8.18 C 7.1 km/h
2678 23-12-2019 14:00:00 9.33333 C 7.67 g/m*3 7.94 C 9.40833 km/h
2679 23-12-2019 15:00:00 9.30833 C 7.58 g/m*3 7.74 C 10.35 km/h
2680 23-12-2019 16:00:00 8.99167 C 7.43 g/m*3 7.44 C 9.95 km/h
2681 23-12-2019 17:00:00 8.49167 C 7.17 g/m*3 7.32 C 7.64167 km/h
2682 23-12-2019 18:00:00 8.18333 C 7.08 g/m*3 7.11 C 7 km/h
2683 23-12-2019 19:00:00 7.575 C 7.03 g/m*3 6.72 C 5.89167 km/h
2684 23-12-2019 20:00:00 7.21667 C 7.05 g/m*3 7.22 C 2.93333 km/h
2685 23-12-2019 21:00:00 7.30833 C 7.12 g/m*3 6.33 C 6.16667 km/h
2686 23-12-2019 22:00:00 6.64167 C 6.86 g/m*3 6.64 C 4.00833 km/h
2687 23-12-2019 23:00:00 5.88333 C 6.55 g/m*3 5.88 C 4.54167 km/h
2688 24-12-2019 00:00:00 6.04167 C 6.76 g/m*3 6.04 C 3.6 km/h
2689 24-12-2019 01:00:00 6.325 C 6.83 g/m*3 6.33 C 3.35 km/h
2690 24-12-2019 02:00:00 6.39167 C 6.87 g/m*3 6.39 C 1.34167 km/h
2691 24-12-2019 03:00:00 6.55833 C 6.8 g/m*3 5.82 C 5.08333 km/h
2692 24-12-2019 04:00:00 5.90833 C 6.64 g/m*3 5.91 C 1.73333 km/h
2693 24-12-2019 05:00:00 5.76667 C 6.64 g/m*3 5.77 C 2.26667 km/h
2694 24-12-2019 06:00:00 5.28333 C 6.48 g/m*3 5.28 C 0.66667 km/h
2695 24-12-2019 07:00:00 5.61667 C 6.65 g/m*3 5.62 C 0.66667 km/h
2696 24-12-2019 08:00:00 6.53333 C 6.86 g/m*3 6.53 C 1.2 km/h
2697 24-12-2019 09:00:00 7.25 C 6.96 g/m*3 7.25 C 4.69167 km/h
2698 24-12-2019 10:00:00 7.34167 C 7.21 g/m*3 7.34 C 2.675 km/h
2699 24-12-2019 11:00:00 7.85833 C 7.56 g/m*3 6.85 C 6.55833 km/h
2700 24-12-2019 12:00:00 8.5 C 7.61 g/m*3 6.1 C 14.76667 km/h
Sensor: Nr:Datum:Temp:Abs-Feuchte:Windchill:Wind:
Aussen-T/F 2701 24-12-2019 13:00:00 9.5 C 7.84 g/m*3 7.9 C 10.75833 km/h
2702 24-12-2019 14:00:00 9.85833 C 7.94 g/m*3 7.92 C 13.56667 km/h
2703 24-12-2019 15:00:00 10.025 C 7.84 g/m*3 8.45 C 11.3 km/h
2704 24-12-2019 16:00:00 10.275 C 7.63 g/m*3 9.04 C 9.54167 km/h
2705 24-12-2019 17:00:00 9.84167 C 7.43 g/m*3 8.07 C 12.36667 km/h
2706 24-12-2019 18:00:00 9.23333 C 7.62 g/m*3 7.9 C 9 km/h
2707 24-12-2019 19:00:00 7.675 C 7.37 g/m*3 5.89 C 9.80833 km/h
2708 24-12-2019 20:00:00 7.26667 C 7.31 g/m*3 5.78 C 8.05833 km/h
2709 24-12-2019 21:00:00 7.85 C 7.44 g/m*3 6.05 C 10.09167 km/h
2710 24-12-2019 22:00:00 8.68333 C 7.47 g/m*3 6.93 C 10.74167 km/h
2711 24-12-2019 23:00:00 8.73333 C 7.61 g/m*3 6.85 C 11.55833 km/h
2712 25-12-2019 00:00:00 8.8 C 7.7 g/m*3 6.67 C 13.3 km/h
2713 25-12-2019 01:00:00 8.4 C 7.73 g/m*3 7.03 C 8.46667 km/h
2714 25-12-2019 02:00:00 8.28333 C 7.69 g/m*3 6.67 C 9.53333 km/h
2715 25-12-2019 03:00:00 8.60833 C 7.83 g/m*3 7.08 C 9.425 km/h
2716 25-12-2019 04:00:00 8.68333 C 7.98 g/m*3 7.95 C 6.025 km/h
2717 25-12-2019 05:00:00 8.5 C 8 g/m*3 8.5 C 4.81667 km/h
2718 25-12-2019 06:00:00 8.06667 C 7.76 g/m*3 8.07 C 1.875 km/h
2719 25-12-2019 07:00:00 7.91667 C 7.6 g/m*3 7.92 C 3.075 km/h
2720 25-12-2019 08:00:00 7.41667 C 7.2 g/m*3 5.22 C 11.81667 km/h
2721 25-12-2019 09:00:00 7.625 C 7.14 g/m*3 6.54 C 6.7 km/h
2722 25-12-2019 10:00:00 7.925 C 7.1 g/m*3 6.75 C 7.24167 km/h
2723 25-12-2019 11:00:00 8.13333 C 7.19 g/m*3 6.44 C 9.81667 km/h
2724 25-12-2019 12:00:00 8.11667 C 7.3 g/m*3 6.11 C 11.54167 km/h
2725 25-12-2019 13:00:00 7.925 C 7.36 g/m*3 6.41 C 8.74167 km/h
Sensor: Nr:Datum:Temp:Abs-Feuchte:Windchill:Wind:
Aussen-T/F 2726 25-12-2019 14:00:00 8.05833 C 7.41 g/m*3 6.43 C 9.4 km/h
2727 25-12-2019 15:00:00 7.975 C 7.41 g/m*3 6.71 C 7.65 km/h
2728 25-12-2019 16:00:00 7.75833 C 7.28 g/m*3 7.76 C 3.75 km/h
2729 25-12-2019 17:00:00 7.25 C 7.05 g/m*3 7.25 C 1.46667 km/h
2730 25-12-2019 18:00:00 6.8 C 6.96 g/m*3 6.8 C 0.93333 km/h
2731 25-12-2019 19:00:00 6.725 C 6.94 g/m*3 6.73 C 1.46667 km/h
2732 25-12-2019 20:00:00 6.64167 C 6.96 g/m*3 6.64 C 2.26667 km/h
2733 25-12-2019 21:00:00 6.33333 C 6.93 g/m*3 6.33 C 1.33333 km/h
2734 25-12-2019 22:00:00 6.05 C 6.91 g/m*3 6.05 C 0.8 km/h
2735 25-12-2019 23:00:00 5.94167 C 6.87 g/m*3 5.94 C 0.66667 km/h
2736 26-12-2019 00:00:00 4.98333 C 6.46 g/m*3 4.98 C 0.4 km/h
2737 26-12-2019 01:00:00 5.11667 C 6.57 g/m*3 5.12 C 1.06667 km/h
2738 26-12-2019 02:00:00 5.075 C 6.56 g/m*3 5.08 C 1.06667 km/h
2739 26-12-2019 03:00:00 4.94167 C 6.5 g/m*3 4.94 C 0.26667 km/h
2740 26-12-2019 04:00:00 4.4 C 6.27 g/m*3 4.4 C 0.66667 km/h
2741 26-12-2019 05:00:00 4.25833 C 6.26 g/m*3 4.26 C 0.13333 km/h
2742 26-12-2019 06:00:00 4.325 C 6.3 g/m*3 4.33 C 0 km/h
2743 26-12-2019 07:00:00 4.325 C 6.3 g/m*3 4.33 C 0 km/h
2744 26-12-2019 08:00:00 4.23333 C 6.26 g/m*3 4.23 C 0 km/h
2745 26-12-2019 09:00:00 4.35 C 6.31 g/m*3 4.35 C 0 km/h
2746 26-12-2019 10:00:00 4.65833 C 6.44 g/m*3 4.66 C 0 km/h
2747 26-12-2019 11:00:00 5.5 C 6.81 g/m*3 5.5 C 0.13333 km/h
2748 26-12-2019 12:00:00 5.89167 C 6.98 g/m*3 5.89 C 0 km/h
2749 26-12-2019 13:00:00 6.26667 C 7.09 g/m*3 6.27 C 0 km/h
2750 26-12-2019 14:00:00 6.275 C 7.06 g/m*3 6.28 C 0 km/h
Sensor: Nr:Datum:Temp:Abs-Feuchte:Windchill:Wind:
Aussen-T/F 2751 26-12-2019 15:00:00 6.00833 C 6.9 g/m*3 6.01 C 0 km/h
2752 26-12-2019 16:00:00 5.34167 C 6.61 g/m*3 5.34 C 0 km/h
2753 26-12-2019 17:00:00 5.03333 C 6.54 g/m*3 5.03 C 0.26667 km/h
2754 26-12-2019 18:00:00 4.81667 C 6.44 g/m*3 4.82 C 0 km/h
2755 26-12-2019 19:00:00 4.74167 C 6.41 g/m*3 4.74 C 0.13333 km/h
2756 26-12-2019 20:00:00 4.71667 C 6.4 g/m*3 4.72 C 0.26667 km/h
2757 26-12-2019 21:00:00 4.79167 C 6.43 g/m*3 4.79 C 0.53333 km/h
2758 26-12-2019 22:00:00 4.89167 C 6.48 g/m*3 4.89 C 0.13333 km/h
2759 26-12-2019 23:00:00 4.9 C 6.48 g/m*3 4.9 C 0.4 km/h
2760 27-12-2019 00:00:00 4.9 C 6.49 g/m*3 4.9 C 0 km/h
2761 27-12-2019 01:00:00 4.91667 C 6.55 g/m*3 4.92 C 0 km/h
2762 27-12-2019 02:00:00 4.98333 C 6.58 g/m*3 4.98 C 0 km/h
2763 27-12-2019 03:00:00 5.08333 C 6.63 g/m*3 5.08 C 0 km/h
2764 27-12-2019 04:00:00 5.15833 C 6.66 g/m*3 5.16 C 0 km/h
2765 27-12-2019 05:00:00 5.2 C 6.68 g/m*3 5.2 C 0 km/h
2766 27-12-2019 06:00:00 5.29167 C 6.72 g/m*3 5.29 C 0 km/h
2767 27-12-2019 07:00:00 5.3 C 6.72 g/m*3 5.3 C 0 km/h
2768 27-12-2019 08:00:00 5.13333 C 6.65 g/m*3 5.13 C 0.26667 km/h
2769 27-12-2019 09:00:00 5.25833 C 6.7 g/m*3 5.26 C 1.2 km/h
2770 27-12-2019 10:00:00 5.575 C 6.85 g/m*3 5.58 C 0.4 km/h
2771 27-12-2019 11:00:00 5.7 C 6.9 g/m*3 5.7 C 1.33333 km/h
2772 27-12-2019 12:00:00 6.10833 C 6.96 g/m*3 6.11 C 3.33333 km/h
2773 27-12-2019 13:00:00 6.18333 C 6.83 g/m*3 6.18 C 2.8 km/h
2774 27-12-2019 14:00:00 6.275 C 6.68 g/m*3 6.28 C 2.93333 km/h
2775 27-12-2019 15:00:00 6.21667 C 6.53 g/m*3 6.22 C 0.94167 km/h
Sensor: Nr:Datum:Temp:Abs-Feuchte:Windchill:Wind:
Aussen-T/F 2776 27-12-2019 16:00:00 5.8 C 6.52 g/m*3 5.8 C 0 km/h
2777 27-12-2019 17:00:00 5.25833 C 6.41 g/m*3 5.26 C 0 km/h
2778 27-12-2019 18:00:00 5.01667 C 6.33 g/m*3 5.02 C 0.93333 km/h
2779 27-12-2019 19:00:00 4.76667 C 6.22 g/m*3 4.77 C 0.8 km/h
2780 27-12-2019 20:00:00 4.55 C 6.13 g/m*3 4.55 C 0 km/h
2781 27-12-2019 21:00:00 4.525 C 6.13 g/m*3 4.53 C 0 km/h
2782 27-12-2019 22:00:00 3.70833 C 5.72 g/m*3 3.71 C 0 km/h
2783 27-12-2019 23:00:00 2.00833 C 5.15 g/m*3 2.01 C 0.13333 km/h
2784 28-12-2019 00:00:00 1.075 C 4.9 g/m*3 1.08 C 2 km/h
2785 28-12-2019 01:00:00 0.53333 C 4.76 g/m*3 0.53 C 0.4 km/h
2786 28-12-2019 02:00:00 -0.13333 C 4.56 g/m*3 -0.13 C 0 km/h
2787 28-12-2019 03:00:00 -0.58333 C 4.44 g/m*3 -0.58 C 0 km/h
2788 28-12-2019 04:00:00 -0.9 C 4.36 g/m*3 -0.9 C 0 km/h
2789 28-12-2019 05:00:00 -1.18333 C 4.28 g/m*3 -1.18 C 0 km/h
2790 28-12-2019 06:00:00 -1.25833 C 4.26 g/m*3 -1.26 C 0.13333 km/h
2791 28-12-2019 07:00:00 -1.35833 C 4.23 g/m*3 -1.36 C 0 km/h
2792 28-12-2019 08:00:00 -1.61667 C 4.16 g/m*3 -1.62 C 0 km/h
2793 28-12-2019 09:00:00 -1.525 C 4.19 g/m*3 -1.53 C 0.13333 km/h
2794 28-12-2019 10:00:00 -0.63333 C 4.5 g/m*3 -0.63 C 0.93333 km/h
2795 28-12-2019 11:00:00 -0.05833 C 4.68 g/m*3 -0.06 C 0.53333 km/h
2796 28-12-2019 12:00:00 0.53333 C 4.88 g/m*3 0.53 C 0 km/h
2797 28-12-2019 13:00:00 1.175 C 5.1 g/m*3 1.18 C 0.13333 km/h
2798 28-12-2019 14:00:00 1.325 C 5.15 g/m*3 1.33 C 0.26667 km/h
2799 28-12-2019 15:00:00 1.08333 C 5.02 g/m*3 1.08 C 0.26667 km/h
2800 28-12-2019 16:00:00 0.7 C 4.88 g/m*3 0.7 C 0 km/h
Sensor: Nr:Datum:Temp:Abs-Feuchte:Windchill:Wind:
Aussen-T/F 2801 28-12-2019 17:00:00 0.19167 C 4.71 g/m*3 0.19 C 0 km/h
2802 28-12-2019 18:00:00 -0.275 C 4.56 g/m*3 -0.28 C 0 km/h
2803 28-12-2019 19:00:00 -0.525 C 4.49 g/m*3 -0.53 C 0 km/h
2804 28-12-2019 20:00:00 -0.46667 C 4.5 g/m*3 -0.47 C 0.26667 km/h
2805 28-12-2019 21:00:00 -0.45 C 4.51 g/m*3 -0.45 C 0.8 km/h
2806 28-12-2019 22:00:00 -0.975 C 4.35 g/m*3 -0.98 C 0 km/h
2807 28-12-2019 23:00:00 -1.26667 C 4.26 g/m*3 -1.27 C 0 km/h
2808 29-12-2019 00:00:00 -1.58333 C 4.17 g/m*3 -1.58 C 0 km/h
2809 29-12-2019 01:00:00 -1.925 C 4.07 g/m*3 -1.93 C 0 km/h
2810 29-12-2019 02:00:00 -2.25833 C 3.97 g/m*3 -2.26 C 0 km/h
2811 29-12-2019 03:00:00 -2.525 C 3.9 g/m*3 -2.53 C 0 km/h
2812 29-12-2019 04:00:00 -2.65 C 3.87 g/m*3 -2.65 C 0 km/h
2813 29-12-2019 05:00:00 -3 C 3.77 g/m*3 -3 C 0 km/h
2814 29-12-2019 06:00:00 -3.26667 C 3.7 g/m*3 -3.27 C 0 km/h
2815 29-12-2019 07:00:00 -3.54167 C 3.63 g/m*3 -3.54 C 0 km/h
2816 29-12-2019 08:00:00 -3.24167 C 3.72 g/m*3 -3.24 C 0 km/h
2817 29-12-2019 09:00:00 -2.90833 C 3.8 g/m*3 -2.91 C 0 km/h
2818 29-12-2019 10:00:00 -2.51667 C 3.93 g/m*3 -2.52 C 0.13333 km/h
2819 29-12-2019 11:00:00 -1.05833 C 4.37 g/m*3 -1.06 C 0.26667 km/h
2820 29-12-2019 12:00:00 0.38333 C 4.83 g/m*3 0.38 C 0.66667 km/h
2821 29-12-2019 13:00:00 1.36667 C 5.16 g/m*3 1.37 C 0 km/h
2822 29-12-2019 14:00:00 2.05833 C 5.39 g/m*3 2.06 C 0.4 km/h
2823 29-12-2019 15:00:00 2.25 C 5.23 g/m*3 2.25 C 2 km/h
2824 29-12-2019 16:00:00 1.31667 C 4.9 g/m*3 1.32 C 0 km/h
2825 29-12-2019 17:00:00 0.54167 C 4.72 g/m*3 0.54 C 0.26667 km/h
Sensor: Nr:Datum:Temp:Abs-Feuchte:Windchill:Wind:
Aussen-T/F 2826 29-12-2019 18:00:00 0.64167 C 4.8 g/m*3 0.64 C 0 km/h
2827 29-12-2019 19:00:00 0.08333 C 4.58 g/m*3 0.08 C 0 km/h
2828 29-12-2019 20:00:00 -0.24167 C 4.48 g/m*3 -0.24 C 0 km/h
2829 29-12-2019 21:00:00 -0.60833 C 4.37 g/m*3 -0.61 C 0.13333 km/h
2830 29-12-2019 22:00:00 -1.09167 C 4.23 g/m*3 -1.09 C 0 km/h
2831 29-12-2019 23:00:00 -1.33333 C 4.2 g/m*3 -1.33 C 0 km/h
2832 30-12-2019 00:00:00 -1.66667 C 4.1 g/m*3 -1.67 C 0 km/h
2833 30-12-2019 01:00:00 -1.825 C 4.05 g/m*3 -1.83 C 0 km/h
2834 30-12-2019 02:00:00 -1.99167 C 4.03 g/m*3 -1.99 C 0 km/h
2835 30-12-2019 03:00:00 -2.025 C 4.04 g/m*3 -2.03 C 0 km/h
2836 30-12-2019 04:00:00 -2.38333 C 3.94 g/m*3 -2.38 C 0 km/h
2837 30-12-2019 05:00:00 -2.59167 C 3.88 g/m*3 -2.59 C 0 km/h
2838 30-12-2019 06:00:00 -2.675 C 3.86 g/m*3 -2.68 C 0 km/h
2839 30-12-2019 07:00:00 -2.79167 C 3.83 g/m*3 -2.79 C 0 km/h
2840 30-12-2019 08:00:00 -3.06667 C 3.75 g/m*3 -3.07 C 0 km/h
2841 30-12-2019 09:00:00 -2.70833 C 3.85 g/m*3 -2.71 C 0 km/h
2842 30-12-2019 10:00:00 -2.225 C 4 g/m*3 -2.23 C 0 km/h
2843 30-12-2019 11:00:00 -1.61667 C 4.2 g/m*3 -1.62 C 0 km/h
2844 30-12-2019 12:00:00 -0.725 C 4.47 g/m*3 -0.73 C 0.13333 km/h
2845 30-12-2019 13:00:00 0.2 C 4.76 g/m*3 0.2 C 0.13333 km/h
2846 30-12-2019 14:00:00 0.875 C 4.93 g/m*3 0.88 C 1.06667 km/h
2847 30-12-2019 15:00:00 1.50833 C 5.07 g/m*3 1.51 C 1.6 km/h
2848 30-12-2019 16:00:00 2.025 C 5.18 g/m*3 2.03 C 1.73333 km/h
2849 30-12-2019 17:00:00 1.65 C 5.05 g/m*3 1.65 C 0 km/h
2850 30-12-2019 18:00:00 0.90833 C 4.76 g/m*3 0.91 C 0 km/h
Sensor: Nr:Datum:Temp:Abs-Feuchte:Windchill:Wind:
Aussen-T/F 2851 30-12-2019 19:00:00 0.28333 C 4.55 g/m*3 0.28 C 1.2 km/h
2852 30-12-2019 20:00:00 0.18333 C 4.42 g/m*3 0.18 C 1.33333 km/h
2853 30-12-2019 21:00:00 -0.175 C 4.41 g/m*3 -0.18 C 3.06667 km/h
2854 30-12-2019 22:00:00 -0.23333 C 4.32 g/m*3 -0.23 C 1.86667 km/h
2855 30-12-2019 23:00:00 -0.175 C 4.36 g/m*3 -0.18 C 1.73333 km/h
2856 31-12-2019 00:00:00 -0.05 C 4.37 g/m*3 -0.05 C 1.2 km/h
2857 31-12-2019 01:00:00 -0.15833 C 4.39 g/m*3 -0.16 C 1.33333 km/h
2858 31-12-2019 02:00:00 -1.03333 C 4.18 g/m*3 -1.03 C 0.66667 km/h
2859 31-12-2019 03:00:00 -0.9 C 4.28 g/m*3 -0.9 C 0.66667 km/h
2860 31-12-2019 04:00:00 -1.53333 C 4.09 g/m*3 -1.53 C 0.4 km/h
2861 31-12-2019 05:00:00 -1.70833 C 4.08 g/m*3 -1.71 C 0.26667 km/h
2862 31-12-2019 06:00:00 -1.79167 C 4.06 g/m*3 -1.79 C 0.26667 km/h
2863 31-12-2019 07:00:00 -1.70833 C 4.11 g/m*3 -1.71 C 0 km/h
2864 31-12-2019 08:00:00 -0.70833 C 4.43 g/m*3 -0.71 C 1.86667 km/h
2865 31-12-2019 09:00:00 -0.1 C 4.62 g/m*3 -0.1 C 0.53333 km/h
2866 31-12-2019 10:00:00 0.46667 C 4.79 g/m*3 0.47 C 0.26667 km/h
2867 31-12-2019 11:00:00 1.20833 C 4.95 g/m*3 1.21 C 0.13333 km/h
2868 31-12-2019 12:00:00 2.275 C 5.23 g/m*3 2.28 C 1.33333 km/h
2869 31-12-2019 13:00:00 2.84167 C 5.24 g/m*3 2.84 C 0.13333 km/h
2870 31-12-2019 14:00:00 3.26667 C 5.31 g/m*3 3.27 C 0 km/h
2871 31-12-2019 15:00:00 3.48333 C 5.37 g/m*3 3.48 C 0 km/h
2872 31-12-2019 16:00:00 2.26667 C 5.05 g/m*3 2.27 C 0 km/h
2873 31-12-2019 17:00:00 0.65833 C 4.69 g/m*3 0.66 C 0 km/h
2874 31-12-2019 18:00:00 0.31667 C 4.67 g/m*3 0.32 C 0 km/h
2875 31-12-2019 19:00:00 0.875 C 4.89 g/m*3 0.88 C 0 km/h
Sensor: Nr:Datum:Temp:Abs-Feuchte:Windchill:Wind:
Aussen-T/F 2876 31-12-2019 20:00:00 1.26667 C 5.03 g/m*3 1.27 C 0 km/h
2877 31-12-2019 21:00:00 1.23333 C 5.01 g/m*3 1.23 C 0.13333 km/h
2878 31-12-2019 22:00:00 1.18333 C 4.99 g/m*3 1.18 C 0.13333 km/h
2879 31-12-2019 23:00:00 0.90833 C 4.92 g/m*3 0.91 C 0 km/h
2880 01-01-2020 00:00:00 0.98333 C 4.96 g/m*3 0.98 C 0.4 km/h
2881 01-01-2020 01:00:00 0.35 C 4.75 g/m*3 0.35 C 0.4 km/h
2882 01-01-2020 02:00:00 0.50833 C 4.82 g/m*3 0.51 C 0 km/h
2883 01-01-2020 03:00:00 1.06667 C 5.01 g/m*3 1.07 C 0 km/h
2884 01-01-2020 04:00:00 1.15 C 5.03 g/m*3 1.15 C 0.13333 km/h
2885 01-01-2020 05:00:00 1.25 C 5.07 g/m*3 1.25 C 0 km/h
2886 01-01-2020 06:00:00 1.26667 C 5.07 g/m*3 1.27 C 0.53333 km/h
2887 01-01-2020 07:00:00 1.3 C 5.09 g/m*3 1.3 C 0 km/h
2888 01-01-2020 08:00:00 1.425 C 5.13 g/m*3 1.43 C 0 km/h
2889 01-01-2020 09:00:00 1.8 C 5.26 g/m*3 1.8 C 0 km/h
2890 01-01-2020 10:00:00 2.53333 C 5.46 g/m*3 2.53 C 4.4 km/h
2891 01-01-2020 11:00:00 3.125 C 5.5 g/m*3 1.71 C 5.60833 km/h
2892 01-01-2020 12:00:00 3.375 C 5.49 g/m*3 3.38 C 2.53333 km/h
2893 01-01-2020 13:00:00 2.70833 C 5.31 g/m*3 2.71 C 0.53333 km/h
2894 01-01-2020 14:00:00 2.35833 C 5.33 g/m*3 2.36 C 0.13333 km/h
2895 01-01-2020 15:00:00 2.25 C 5.32 g/m*3 2.25 C 0.93333 km/h
2896 01-01-2020 16:00:00 1.33333 C 4.99 g/m*3 1.33 C 0 km/h
2897 01-01-2020 17:00:00 0.21667 C 4.66 g/m*3 0.22 C 0 km/h
2898 01-01-2020 18:00:00 -0.50833 C 4.46 g/m*3 -0.51 C 0 km/h
2899 01-01-2020 19:00:00 -0.88333 C 4.37 g/m*3 -0.88 C 0 km/h
2900 01-01-2020 20:00:00 -1.19167 C 4.28 g/m*3 -1.19 C 0 km/h
Sensor: Nr:Datum:Temp:Abs-Feuchte:Windchill:Wind:
Aussen-T/F 2901 01-01-2020 21:00:00 -1.50833 C 4.19 g/m*3 -1.51 C 0 km/h
2902 01-01-2020 22:00:00 -1.74167 C 4.12 g/m*3 -1.74 C 0 km/h
2903 01-01-2020 23:00:00 -1.66667 C 4.16 g/m*3 -1.67 C 0 km/h
2904 02-01-2020 00:00:00 -1.35 C 4.27 g/m*3 -1.35 C 0 km/h
2905 02-01-2020 01:00:00 -1.11667 C 4.35 g/m*3 -1.12 C 0 km/h
2906 02-01-2020 02:00:00 -0.65833 C 4.49 g/m*3 -0.66 C 0 km/h
2907 02-01-2020 03:00:00 -0.26667 C 4.61 g/m*3 -0.27 C 0 km/h
2908 02-01-2020 04:00:00 0.16667 C 4.75 g/m*3 0.17 C 0.8 km/h
2909 02-01-2020 05:00:00 0.18333 C 4.76 g/m*3 0.18 C 4.28333 km/h
2910 02-01-2020 06:00:00 0.10833 C 4.73 g/m*3 -2.46 C 7.525 km/h
2911 02-01-2020 07:00:00 0.15833 C 4.69 g/m*3 0.16 C 4.95833 km/h
2912 02-01-2020 08:00:00 0.45833 C 4.76 g/m*3 0.46 C 0.8 km/h
2913 02-01-2020 09:00:00 0.925 C 4.91 g/m*3 0.93 C 2 km/h
2914 02-01-2020 10:00:00 1.36667 C 5.06 g/m*3 1.37 C 0 km/h
2915 02-01-2020 11:00:00 2.01667 C 5.22 g/m*3 2.02 C 0.4 km/h
2916 02-01-2020 12:00:00 2.69167 C 5.37 g/m*3 2.69 C 0.93333 km/h
2917 02-01-2020 13:00:00 3.19167 C 5.49 g/m*3 3.19 C 1.2 km/h
2918 02-01-2020 14:00:00 3.6 C 5.68 g/m*3 3.6 C 0.8 km/h
2919 02-01-2020 15:00:00 3.46667 C 5.65 g/m*3 3.47 C 1.6 km/h
2920 02-01-2020 16:00:00 3.16667 C 5.59 g/m*3 3.17 C 0.4 km/h
2921 02-01-2020 17:00:00 3.025 C 5.58 g/m*3 3.03 C 0 km/h
2922 02-01-2020 18:00:00 2.9 C 5.56 g/m*3 2.9 C 0 km/h
2923 02-01-2020 19:00:00 3.075 C 5.68 g/m*3 3.08 C 0 km/h
2924 02-01-2020 20:00:00 3.2 C 5.72 g/m*3 3.2 C 0 km/h
2925 02-01-2020 21:00:00 3.28333 C 5.76 g/m*3 3.28 C 0 km/h
Sensor: Nr:Datum:Temp:Abs-Feuchte:Windchill:Wind:
Aussen-T/F 2926 02-01-2020 22:00:00 3.21667 C 5.77 g/m*3 3.22 C 0 km/h
2927 02-01-2020 23:00:00 3.65833 C 5.97 g/m*3 3.66 C 0 km/h
2928 03-01-2020 00:00:00 3.81667 C 6.03 g/m*3 3.82 C 0 km/h
2929 03-01-2020 01:00:00 4.24167 C 6.2 g/m*3 4.24 C 0 km/h
2930 03-01-2020 02:00:00 4.53333 C 6.32 g/m*3 4.53 C 0 km/h
2931 03-01-2020 03:00:00 4.76667 C 6.48 g/m*3 4.77 C 0 km/h
2932 03-01-2020 04:00:00 4.86667 C 6.53 g/m*3 4.87 C 0.66667 km/h
2933 03-01-2020 05:00:00 5.08333 C 6.62 g/m*3 5.08 C 1.33333 km/h
2934 03-01-2020 06:00:00 5.425 C 6.73 g/m*3 5.43 C 3.075 km/h
2935 03-01-2020 07:00:00 7.875 C 7.54 g/m*3 5.73 C 12.08333 km/h
2936 03-01-2020 08:00:00 8.34167 C 7.45 g/m*3 6.96 C 8.45833 km/h
2937 03-01-2020 09:00:00 8.675 C 7.43 g/m*3 7.01 C 10.23333 km/h
2938 03-01-2020 10:00:00 8.91667 C 7.42 g/m*3 6.41 C 16.36667 km/h
2939 03-01-2020 11:00:00 8.99167 C 7.49 g/m*3 5.86 C 22.51667 km/h
2940 03-01-2020 12:00:00 8.89167 C 7.51 g/m*3 5.91 C 20.64167 km/h
2941 03-01-2020 13:00:00 8.91667 C 7.63 g/m*3 5.99 C 20.23333 km/h
2942 03-01-2020 14:00:00 8.93333 C 7.75 g/m*3 6.72 C 14.1 km/h
2943 03-01-2020 15:00:00 9.29167 C 7.94 g/m*3 7.18 C 13.96667 km/h
2944 03-01-2020 16:00:00 9.38333 C 8.03 g/m*3 7.07 C 15.7 km/h
2945 03-01-2020 17:00:00 9.29167 C 8.08 g/m*3 6.99 C 15.43333 km/h
2946 03-01-2020 18:00:00 9.56667 C 8.23 g/m*3 7.34 C 15.3 km/h
2947 03-01-2020 19:00:00 9.60833 C 8.33 g/m*3 7.91 C 11.56667 km/h
2948 03-01-2020 20:00:00 9.58333 C 8.43 g/m*3 8.26 C 9.29167 km/h
2949 03-01-2020 21:00:00 8.56667 C 7.91 g/m*3 6.04 C 15.83333 km/h
2950 03-01-2020 22:00:00 7.21667 C 7.15 g/m*3 4.71 C 13.425 km/h
Sensor: Nr:Datum:Temp:Abs-Feuchte:Windchill:Wind:
Aussen-T/F 2951 03-01-2020 23:00:00 6.68333 C 6.91 g/m*3 5.26 C 7.4 km/h
2952 04-01-2020 00:00:00 6.34167 C 6.83 g/m*3 6.34 C 4.55 km/h
2953 04-01-2020 01:00:00 5.70833 C 6.52 g/m*3 5.71 C 2.26667 km/h
2954 04-01-2020 02:00:00 4.70833 C 6.13 g/m*3 4.71 C 2.675 km/h
2955 04-01-2020 03:00:00 4.41667 C 6.1 g/m*3 4.42 C 2.13333 km/h
2956 04-01-2020 04:00:00 4.15 C 5.95 g/m*3 4.15 C 2.66667 km/h
2957 04-01-2020 05:00:00 3.30833 C 5.65 g/m*3 3.31 C 2 km/h
2958 04-01-2020 06:00:00 2.90833 C 5.55 g/m*3 1.26 C 6.16667 km/h
2959 04-01-2020 07:00:00 2.93333 C 5.5 g/m*3 2.93 C 4.675 km/h
2960 04-01-2020 08:00:00 2.26667 C 5.3 g/m*3 2.27 C 2.26667 km/h
2961 04-01-2020 09:00:00 2.075 C 5.29 g/m*3 2.08 C 2.13333 km/h
2962 04-01-2020 10:00:00 3.32857 C 5.73 g/m*3 1.73 C 6.2 km/h
2963 04-01-2020 11:00:00 5.73333 C 6.23 g/m*3 3.73 C 9.125 km/h
2964 04-01-2020 12:00:00 6.48333 C 6.39 g/m*3 4.41 C 10.08333 km/h
2965 04-01-2020 13:00:00 7.11667 C 6.55 g/m*3 4.72 C 12.63333 km/h
2966 04-01-2020 14:00:00 7.48333 C 6.58 g/m*3 5.21 C 12.36667 km/h
2967 04-01-2020 15:00:00 7.41667 C 6.6 g/m*3 5.63 C 9.55833 km/h
2968 04-01-2020 16:00:00 7.25833 C 6.54 g/m*3 5.62 C 8.74167 km/h
2969 04-01-2020 17:00:00 7.175 C 6.49 g/m*3 5.32 C 9.675 km/h
2970 04-01-2020 18:00:00 7.08333 C 6.47 g/m*3 5.08 C 10.36667 km/h
2971 04-01-2020 19:00:00 6.96667 C 6.53 g/m*3 5.22 C 8.99167 km/h
2972 04-01-2020 20:00:00 6.54167 C 6.57 g/m*3 5.33 C 6.56667 km/h
2973 04-01-2020 21:00:00 6.475 C 6.78 g/m*3 5.37 C 6.15833 km/h
2974 04-01-2020 22:00:00 6.125 C 6.86 g/m*3 5.24 C 5.34167 km/h
2975 04-01-2020 23:00:00 6.13333 C 6.83 g/m*3 5.25 C 5.34167 km/h
Sensor: Nr:Datum:Temp:Abs-Feuchte:Windchill:Wind:
Aussen-T/F 2976 05-01-2020 00:00:00 6.14167 C 6.81 g/m*3 6.14 C 3.6 km/h
2977 05-01-2020 01:00:00 5.9 C 6.76 g/m*3 5.9 C 3.2 km/h
2978 05-01-2020 02:00:00 5.625 C 6.72 g/m*3 5.63 C 1.86667 km/h
2979 05-01-2020 03:00:00 5.35 C 6.61 g/m*3 5.35 C 0.93333 km/h
2980 05-01-2020 04:00:00 5.26667 C 6.64 g/m*3 5.27 C 0.93333 km/h
2981 05-01-2020 05:00:00 5.31667 C 6.66 g/m*3 5.32 C 0.53333 km/h
2982 05-01-2020 06:00:00 5.4 C 6.7 g/m*3 5.4 C 0.93333 km/h
2983 05-01-2020 07:00:00 5.36667 C 6.68 g/m*3 5.37 C 0.26667 km/h
2984 05-01-2020 08:00:00 5.19 C 6.61 g/m*3 5.19 C 0.64 km/h
2985 05-01-2020 09:00:00 5.33 C 6.67 g/m*3 5.33 C 4.8 km/h
2986 05-01-2020 10:00:00 5.8 C 6.82 g/m*3 4.68 C 5.88333 km/h
2987 05-01-2020 11:00:00 6.25833 C 6.9 g/m*3 5.34 C 5.49167 km/h
2988 05-01-2020 12:00:00 6.6 C 6.96 g/m*3 5.77 C 5.35 km/h
2989 05-01-2020 13:00:00 6.93333 C 7.05 g/m*3 6.2 C 5.20833 km/h
2990 05-01-2020 14:00:00 7.20833 C 7.08 g/m*3 7.21 C 2.8 km/h
2991 05-01-2020 15:00:00 7.20833 C 7.11 g/m*3 7.21 C 0.8 km/h
2992 05-01-2020 16:00:00 6.79167 C 7.02 g/m*3 6.79 C 0 km/h
2993 05-01-2020 17:00:00 6.24167 C 6.77 g/m*3 6.24 C 1.73333 km/h
2994 05-01-2020 18:00:00 6.16667 C 6.63 g/m*3 6.17 C 2.26667 km/h
2995 05-01-2020 19:00:00 6.11667 C 6.56 g/m*3 6.12 C 0.4 km/h
2996 05-01-2020 20:00:00 5.90833 C 6.51 g/m*3 5.91 C 0.4 km/h
2997 05-01-2020 21:00:00 5.8 C 6.51 g/m*3 5.8 C 0 km/h
2998 05-01-2020 22:00:00 5.58333 C 6.5 g/m*3 5.58 C 0 km/h
2999 05-01-2020 23:00:00 5.30833 C 6.43 g/m*3 5.31 C 0 km/h
3000 06-01-2020 00:00:00 5.11667 C 6.3 g/m*3 5.12 C 0 km/h
Sensor: Nr:Datum:Temp:Abs-Feuchte:Windchill:Wind:
Aussen-T/F 3001 06-01-2020 01:00:00 4.98333 C 6.2 g/m*3 4.98 C 0 km/h
3002 06-01-2020 02:00:00 4.84167 C 6.12 g/m*3 4.84 C 0 km/h
3003 06-01-2020 03:00:00 4.71667 C 6.08 g/m*3 4.72 C 0 km/h
3004 06-01-2020 04:00:00 4.61667 C 6.04 g/m*3 4.62 C 0.13333 km/h
3005 06-01-2020 05:00:00 4.4 C 6 g/m*3 4.4 C 0 km/h
3006 06-01-2020 06:00:00 4.15833 C 5.92 g/m*3 4.16 C 0 km/h
3007 06-01-2020 07:00:00 3.76667 C 5.78 g/m*3 3.77 C 0 km/h
3008 06-01-2020 08:00:00 3.36667 C 5.65 g/m*3 3.37 C 0 km/h
3009 06-01-2020 09:00:00 3.475 C 5.69 g/m*3 3.48 C 0 km/h
3010 06-01-2020 10:00:00 3.73333 C 5.7 g/m*3 3.73 C 0 km/h
3011 06-01-2020 11:00:00 2.975 C 5.48 g/m*3 2.98 C 1.06667 km/h
3012 06-01-2020 12:00:00 3.10833 C 5.57 g/m*3 3.11 C 1.2 km/h
3013 06-01-2020 13:00:00 3.2 C 5.65 g/m*3 3.2 C 0.93333 km/h
3014 06-01-2020 14:00:00 3.26667 C 5.69 g/m*3 3.27 C 0.53333 km/h
3015 06-01-2020 15:00:00 3.4 C 5.74 g/m*3 3.4 C 2.53333 km/h
3016 06-01-2020 16:00:00 2.925 C 5.56 g/m*3 2.93 C 1.73333 km/h
3017 06-01-2020 17:00:00 1.85833 C 5.19 g/m*3 1.86 C 0.66667 km/h
3018 06-01-2020 18:00:00 1.01667 C 4.92 g/m*3 1.02 C 0.93333 km/h
3019 06-01-2020 19:00:00 0.39167 C 4.73 g/m*3 0.39 C 1.2 km/h
3020 06-01-2020 20:00:00 -0.125 C 4.58 g/m*3 -0.13 C 0.53333 km/h
3021 06-01-2020 21:00:00 -0.11667 C 4.61 g/m*3 -0.12 C 0 km/h
3022 06-01-2020 22:00:00 0.98333 C 5 g/m*3 0.98 C 2.40833 km/h
3023 06-01-2020 23:00:00 1.59167 C 5.19 g/m*3 1.59 C 1.06667 km/h
3024 07-01-2020 00:00:00 2.34167 C 5.46 g/m*3 2.34 C 4.55 km/h
3025 07-01-2020 01:00:00 3.15 C 5.69 g/m*3 1.95 C 5.09167 km/h
Sensor: Nr:Datum:Temp:Abs-Feuchte:Windchill:Wind:
Aussen-T/F 3026 07-01-2020 02:00:00 3.71667 C 5.83 g/m*3 1.65 C 7.925 km/h
3027 07-01-2020 03:00:00 3.7 C 5.86 g/m*3 1.66 C 7.8 km/h
3028 07-01-2020 04:00:00 3.93333 C 5.96 g/m*3 1.55 C 9.275 km/h
3029 07-01-2020 05:00:00 4.26667 C 6.08 g/m*3 1.76 C 10.08333 km/h
3030 07-01-2020 06:00:00 4.6 C 6.21 g/m*3 2.07 C 10.5 km/h
3031 07-01-2020 07:00:00 5 C 6.32 g/m*3 2.82 C 9.28333 km/h
3032 07-01-2020 08:00:00 4.925 C 6.29 g/m*3 3.25 C 7.25 km/h
3033 07-01-2020 09:00:00 4.725 C 6.31 g/m*3 3.54 C 5.625 km/h
3034 07-01-2020 10:00:00 5.68333 C 6.66 g/m*3 4.18 C 7.10833 km/h
3035 07-01-2020 11:00:00 6.6 C 6.95 g/m*3 4.75 C 9.15 km/h
3036 07-01-2020 12:00:00 7.1 C 6.96 g/m*3 4.67 C 12.76667 km/h
3037 07-01-2020 13:00:00 7.28333 C 6.98 g/m*3 5.35 C 10.20833 km/h
3038 07-01-2020 14:00:00 7.38333 C 6.92 g/m*3 5.83 C 8.46667 km/h
3039 07-01-2020 15:00:00 6.925 C 6.75 g/m*3 6.15 C 5.34167 km/h
3040 07-01-2020 16:00:00 5.84167 C 6.46 g/m*3 5.84 C 2.13333 km/h
3041 07-01-2020 17:00:00 4.54167 C 6.12 g/m*3 4.54 C 3.06667 km/h
3042 07-01-2020 18:00:00 4.025 C 6 g/m*3 4.03 C 2.8 km/h
3043 07-01-2020 19:00:00 3.65833 C 5.9 g/m*3 3.66 C 2.66667 km/h
3044 07-01-2020 20:00:00 4.20833 C 6.16 g/m*3 4.21 C 4.55 km/h
3045 07-01-2020 21:00:00 5.49167 C 6.5 g/m*3 3.66 C 8.2 km/h
3046 07-01-2020 22:00:00 6.20833 C 6.52 g/m*3 5.1 C 6.04167 km/h
3047 07-01-2020 23:00:00 6.56667 C 6.51 g/m*3 6.57 C 4.425 km/h
3048 08-01-2020 00:00:00 6.26667 C 6.38 g/m*3 6.27 C 2.40833 km/h
3049 08-01-2020 01:00:00 6.13333 C 6.3 g/m*3 6.13 C 2.8 km/h
3050 08-01-2020 02:00:00 5.85833 C 6.32 g/m*3 5.86 C 2.53333 km/h
Sensor: Nr:Datum:Temp:Abs-Feuchte:Windchill:Wind:
Aussen-T/F 3051 08-01-2020 03:00:00 6.45833 C 6.65 g/m*3 6.46 C 4.81667 km/h
3052 08-01-2020 04:00:00 6.575 C 6.74 g/m*3 6.58 C 1.86667 km/h
3053 08-01-2020 05:00:00 6.44167 C 6.82 g/m*3 6.44 C 0.13333 km/h
3054 08-01-2020 06:00:00 6.7 C 7.05 g/m*3 6.7 C 2.13333 km/h
3055 08-01-2020 07:00:00 7.04167 C 7.33 g/m*3 7.04 C 1.46667 km/h
3056 08-01-2020 08:00:00 7.175 C 7.46 g/m*3 7.18 C 4.29167 km/h
3057 08-01-2020 09:00:00 7.475 C 7.67 g/m*3 6.86 C 5.1 km/h
3058 08-01-2020 10:00:00 7.85833 C 7.82 g/m*3 6.01 C 10.35833 km/h
3059 08-01-2020 11:00:00 8.24167 C 7.9 g/m*3 6.9 C 8.20833 km/h
3060 08-01-2020 12:00:00 8.375 C 7.96 g/m*3 8.38 C 2.26667 km/h
3061 08-01-2020 13:00:00 9.05833 C 8.27 g/m*3 9.06 C 4.68333 km/h
3062 08-01-2020 14:00:00 9.36667 C 8.39 g/m*3 9.37 C 3.075 km/h
3063 08-01-2020 15:00:00 9.73333 C 8.51 g/m*3 8.68 C 8.05833 km/h
3064 08-01-2020 16:00:00 9.78333 C 8.57 g/m*3 9.78 C 4.55 km/h
3065 08-01-2020 17:00:00 9.8 C 8.63 g/m*3 8.88 C 7.51667 km/h
3066 08-01-2020 18:00:00 9.71667 C 8.64 g/m*3 9.1 C 6.18333 km/h
3067 08-01-2020 19:00:00 9.95833 C 8.81 g/m*3 9.56 C 5.49167 km/h
3068 08-01-2020 20:00:00 10.175 C 8.93 g/m*3 9.6 C 6.3 km/h
3069 08-01-2020 21:00:00 10.3 C 9 g/m*3 9.78 C 6.15833 km/h
3070 08-01-2020 22:00:00 10.20833 C 8.99 g/m*3 10.21 C 4.41667 km/h
3071 08-01-2020 23:00:00 10.1 C 8.98 g/m*3 10.1 C 1.6 km/h
3072 09-01-2020 00:00:00 9.89167 C 8.88 g/m*3 9.89 C 0 km/h
3073 09-01-2020 01:00:00 9.78333 C 8.9 g/m*3 9.78 C 0 km/h
3074 09-01-2020 02:00:00 9.59167 C 8.79 g/m*3 9.59 C 1.46667 km/h
3075 09-01-2020 03:00:00 9.425 C 8.7 g/m*3 9.43 C 1.6 km/h
Sensor: Nr:Datum:Temp:Abs-Feuchte:Windchill:Wind:
Aussen-T/F 3076 09-01-2020 04:00:00 9.23333 C 8.62 g/m*3 9.23 C 0.13333 km/h
3077 09-01-2020 05:00:00 9.25 C 8.69 g/m*3 9.25 C 0.26667 km/h
3078 09-01-2020 06:00:00 9.21667 C 8.67 g/m*3 9.22 C 0.26667 km/h
3079 09-01-2020 07:00:00 9.48333 C 8.82 g/m*3 9.48 C 1.2 km/h
3080 09-01-2020 08:00:00 9.79167 C 9.04 g/m*3 9.79 C 1.475 km/h
3081 09-01-2020 09:00:00 10.53333 C 9.49 g/m*3 10.53 C 4.28333 km/h
3082 09-01-2020 10:00:00 11.11667 C 9.71 g/m*3 11.12 C 5.61667 km/h
3083 09-01-2020 11:00:00 12.125 C 9.98 g/m*3 12.13 C 10.48333 km/h
3084 09-01-2020 12:00:00 12.95833 C 10.08 g/m*3 12.96 C 13.83333 km/h
3085 09-01-2020 13:00:00 13.325 C 10.1 g/m*3 13.33 C 15.43333 km/h
3086 09-01-2020 14:00:00 13.11667 C 10.03 g/m*3 13.12 C 9.95 km/h
3087 09-01-2020 15:00:00 12.925 C 9.96 g/m*3 12.93 C 9.81667 km/h
3088 09-01-2020 16:00:00 12.79167 C 9.85 g/m*3 12.79 C 6.43333 km/h
3089 09-01-2020 17:00:00 12.59167 C 9.67 g/m*3 12.59 C 5.08333 km/h
3090 09-01-2020 18:00:00 12.05833 C 9.47 g/m*3 12.06 C 4.68333 km/h
3091 09-01-2020 19:00:00 11.73333 C 9.24 g/m*3 11.73 C 4.01667 km/h
3092 09-01-2020 20:00:00 10.9 C 9.07 g/m*3 10.9 C 3.61667 km/h
3093 09-01-2020 21:00:00 10.21667 C 8.83 g/m*3 10.22 C 2.94167 km/h
3094 09-01-2020 22:00:00 9.875 C 8.72 g/m*3 9.88 C 1.2 km/h
3095 09-01-2020 23:00:00 10.275 C 8.6 g/m*3 9.82 C 5.89167 km/h
3096 10-01-2020 00:00:00 10.5 C 8.57 g/m*3 10.5 C 3.625 km/h
3097 10-01-2020 01:00:00 10.28333 C 8.51 g/m*3 10.28 C 3.875 km/h
3098 10-01-2020 02:00:00 10.23333 C 8.46 g/m*3 9.32 C 7.79167 km/h
3099 10-01-2020 03:00:00 10.29167 C 8.36 g/m*3 9.4 C 7.775 km/h
3100 10-01-2020 04:00:00 10.325 C 8.01 g/m*3 8.88 C 10.89167 km/h
Sensor: Nr:Datum:Temp:Abs-Feuchte:Windchill:Wind:
Aussen-T/F 3101 10-01-2020 05:00:00 10.025 C 7.85 g/m*3 9.22 C 7.13333 km/h
3102 10-01-2020 06:00:00 9.55 C 8.02 g/m*3 9.55 C 2 km/h
3103 10-01-2020 07:00:00 8.71667 C 8.05 g/m*3 8.72 C 0.26667 km/h
3104 10-01-2020 08:00:00 8.43333 C 7.98 g/m*3 8.43 C 0.26667 km/h
3105 10-01-2020 09:00:00 8.99167 C 8.03 g/m*3 8.99 C 2.81667 km/h
3106 10-01-2020 10:00:00 9.675 C 8.11 g/m*3 9.68 C 2.94167 km/h
3107 10-01-2020 11:00:00 10.39167 C 8.28 g/m*3 9.09 C 10.075 km/h
3108 10-01-2020 12:00:00 10.70833 C 8.47 g/m*3 8.82 C 14.76667 km/h
3109 10-01-2020 13:00:00 9.41667 C 8.18 g/m*3 9.42 C 4.28333 km/h
3110 10-01-2020 14:00:00 9.1 C 7.86 g/m*3 7.91 C 8.19167 km/h
3111 10-01-2020 15:00:00 9.15833 C 7.53 g/m*3 7.79 C 9.13333 km/h
3112 10-01-2020 16:00:00 8.51667 C 7.51 g/m*3 6.68 C 11.01667 km/h
3113 10-01-2020 17:00:00 7.75 C 7.23 g/m*3 5.95 C 9.95833 km/h
3114 10-01-2020 18:00:00 7.7 C 7.16 g/m*3 6.32 C 7.91667 km/h
3115 10-01-2020 19:00:00 7.225 C 7.1 g/m*3 5.61 C 8.59167 km/h
3116 10-01-2020 20:00:00 6.9 C 6.92 g/m*3 5.98 C 5.75833 km/h
3117 10-01-2020 21:00:00 6.66667 C 6.72 g/m*3 6.67 C 2.675 km/h
3118 10-01-2020 22:00:00 6.66667 C 6.65 g/m*3 6.67 C 4.68333 km/h
3119 10-01-2020 23:00:00 6.775 C 6.63 g/m*3 5.84 C 5.75 km/h
3120 11-01-2020 00:00:00 6.20833 C 6.41 g/m*3 6.21 C 3.2 km/h
3121 11-01-2020 01:00:00 4.93333 C 6.14 g/m*3 4.93 C 0.26667 km/h
3122 11-01-2020 02:00:00 4.4 C 5.99 g/m*3 4.4 C 0.66667 km/h
3123 11-01-2020 03:00:00 3.59167 C 5.79 g/m*3 3.59 C 1.06667 km/h
3124 11-01-2020 04:00:00 3.80833 C 5.96 g/m*3 3.81 C 0.8 km/h
3125 11-01-2020 05:00:00 3.725 C 5.91 g/m*3 3.73 C 1.46667 km/h
Sensor: Nr:Datum:Temp:Abs-Feuchte:Windchill:Wind:
Aussen-T/F 3126 11-01-2020 06:00:00 3.59167 C 5.88 g/m*3 3.59 C 3.34167 km/h
3127 11-01-2020 07:00:00 3.31667 C 5.73 g/m*3 3.32 C 2.66667 km/h
3128 11-01-2020 08:00:00 1.94167 C 5.21 g/m*3 1.94 C 1.74167 km/h
3129 11-01-2020 09:00:00 2.15833 C 5.36 g/m*3 0.77 C 5.20833 km/h
3130 11-01-2020 10:00:00 2.85 C 5.59 g/m*3 2.85 C 4.55833 km/h
3131 11-01-2020 11:00:00 3.94167 C 5.95 g/m*3 3.94 C 0.8 km/h
3132 11-01-2020 12:00:00 5.89167 C 6.19 g/m*3 5.89 C 3.2 km/h
3133 11-01-2020 13:00:00 7.15833 C 5.92 g/m*3 5.3 C 9.66667 km/h
3134 11-01-2020 14:00:00 7.075 C 5.87 g/m*3 5.62 C 7.78333 km/h
3135 11-01-2020 15:00:00 6.925 C 5.93 g/m*3 6.93 C 3.60833 km/h
3136 11-01-2020 16:00:00 6.76667 C 5.93 g/m*3 5.91 C 5.5 km/h
3137 11-01-2020 17:00:00 6.26667 C 5.82 g/m*3 6.27 C 3.88333 km/h
3138 11-01-2020 18:00:00 5.44167 C 5.75 g/m*3 5.44 C 1.33333 km/h
3139 11-01-2020 19:00:00 3.95 C 5.57 g/m*3 3.95 C 2.26667 km/h
3140 11-01-2020 20:00:00 3.19167 C 5.42 g/m*3 3.19 C 2.53333 km/h
3141 11-01-2020 21:00:00 2.675 C 5.3 g/m*3 2.68 C 2.13333 km/h
3142 11-01-2020 22:00:00 2.29167 C 5.23 g/m*3 2.29 C 0.8 km/h
3143 11-01-2020 23:00:00 2.11667 C 5.18 g/m*3 2.12 C 1.34167 km/h
3144 12-01-2020 00:00:00 1.95 C 5.15 g/m*3 1.95 C 2.93333 km/h
3145 12-01-2020 01:00:00 1.99167 C 5.17 g/m*3 1.99 C 2.26667 km/h
3146 12-01-2020 02:00:00 2.46667 C 5.31 g/m*3 2.47 C 2.4 km/h
3147 12-01-2020 03:00:00 2.48333 C 5.28 g/m*3 2.48 C 2.53333 km/h
3148 12-01-2020 04:00:00 2.59167 C 5.38 g/m*3 2.59 C 0.66667 km/h
3149 12-01-2020 05:00:00 3.73333 C 5.63 g/m*3 3.73 C 2.80833 km/h
3150 12-01-2020 06:00:00 4.275 C 5.65 g/m*3 2.34 C 7.78333 km/h
Sensor: Nr:Datum:Temp:Abs-Feuchte:Windchill:Wind:
Aussen-T/F 3151 12-01-2020 07:00:00 4.325 C 5.64 g/m*3 1.55 C 11.425 km/h
3152 12-01-2020 08:00:00 4.425 C 5.61 g/m*3 1.47 C 12.49167 km/h
3153 12-01-2020 09:00:00 4.825 C 5.69 g/m*3 1.55 C 14.9 km/h
3154 12-01-2020 10:00:00 5.325 C 5.8 g/m*3 2.42 C 13.3 km/h
3155 12-01-20